     2              OBSERVATION DATA    GPS                 RINEX VERSION / TYPE
ASRINEXO V2.4.4 UX USGS 18-JAN-95 12:47                     PGM / RUN BY / DATE
                                                            COMMENT
Original Marker Name: blaz Bluff_Azi_Mk_1939_USC&GS         COMMENT
Campaign Name: usgs.salton.profile                          COMMENT
4-Character Station Name: BLAZ                              COMMENT
6-Character Antenna Code: ASHL12                            COMMENT
Vertical Measurement Point: BBE                             COMMENT
Vertical Offset to Rinex Ref. Point: 0.0595                 COMMENT
Radial Measurement Point: EGP                               COMMENT
Radial Offset to Rinex Ref. Point: 0.1424                   COMMENT
Antenna Height from Field Measurement: 1.2800 m             COMMENT
Additional Antenna Identification Info.:                    COMMENT
Original Ashtech L1/L2                                      COMMENT
Original XYZ: -2360364.6500 -4790071.4600 3478391.3300      COMMENT
New XYZ position is based on association with SCEC monument COMMENT
E1D0H0V0+0011. Position of that monument is believed to be  COMMENT
valid to within 1 m horizontally; vertical accuracy         COMMENT
should be no worse than 3-times this value.                 COMMENT
                                                            COMMENT
Revised Rinex header created by UCSD GPS archive for        COMMENT
GSAC on 10-Nov-1999 (1999:314) 00:03:47 GMT                 COMMENT
For assistance contact dagnew@ucsd.edu or hjohnson@ucsd.edu COMMENT
                                                            COMMENT
BLAZ BLUFF_AZI_MK_1939_USC&GS                               MARKER NAME
JMS US GEOLOGICAL SURVEY                                    OBSERVER / AGENCY
579 ASHTECH Z-XII3 1E00                                     REC # / TYPE / VERS
718 ASHTECH GEODETIC L                                      ANT # / TYPE
 -2360029.0000 -4789193.0000  3478138.0000                  APPROX POSITION XYZ
        1.2126        0.0000        0.0000                  ANTENNA: DELTA H/E/N
     1     1     0                                          WAVELENGTH FACT L1/2
     5    C1    L1    L2    P1    P2                        # / TYPES OF OBSERV
    30                                                      INTERVAL
  1995     1     9    15    57    0.000000                  TIME OF FIRST OBS
  1995     1     9    22    46   30.000000                  TIME OF LAST OBS
                                                            END OF HEADER
 95  1  9 15 57  0.0000000  0  7  1 25 23 21 31 28 15
  19219741.845       26140.80959     16519.49959  19219743.7634   19219752.1044
  21251908.445      -62694.16019
  22558849.462       46562.45519
  19777205.303       19196.27819
  21889428.378       33091.03919
  22241229.657       61056.47819
  22102300.684      -35884.36419
 95  1  9 15 57 30.0000000  0  7  1 25 23 21 31 28 15
  19225701.296       57446.79149     40913.77049  19225701.3224   19225708.3154
  21234737.476     -152917.24459   -103581.18059  21234737.5034   21234744.8894
  22571012.951      110473.36959     73878.57359  22571012.0914   22571021.3434
  19782322.743       46063.51259     31215.57759  19782320.4654   19782327.4944
  21898996.785       83365.56659     58113.54459  21898997.3414   21899002.5444
  22258065.085      149529.48959    102149.68359  22258065.5744   22258073.5374
  22083117.199     -136711.60159    -84557.36359  22083114.4714   22083124.5034
 95  1  9 15 58  0.0000000  0  7  1 25 23 21 31 28 15
  20730431.839       87757.55549     64532.54149  20730431.6874   20730438.1414
  22716320.661     -244244.78549   -174745.48449  22716321.2004   22716327.4034
  24081896.972      173123.39949    122696.64749  24081896.2934   24081904.4854
  21286181.865       71813.00649     51280.11749  21286181.7974   21286189.2554
  23407338.632      132667.46749     96530.62049  23407341.9594   23407346.9124
  23773632.309      236754.83449    170117.34249  23773627.2924   23773634.2524
  23562671.785     -238685.25549   -164017.33749  23562672.7984   23562680.9064
 95  1  9 15 58 30.0000000  0  7  1 25 23 21 31 28 15
  20736014.211      117097.43149     87394.77349  20736014.7654   20736021.7614
  22698728.446     -336683.37949   -246775.54549  22698730.5584   22698737.8874
  24093581.902      234545.37849    170557.91049  24093583.3494   24093592.0484
  21290872.719       96460.93949     70486.27249  21290872.6394   21290879.7244
  23416541.676      181012.64249    134202.13749  23416540.7214   23416549.1024
  23789992.478      322769.36949    237141.63349  23789994.1264   23790003.4084
  23543047.956     -341825.64749   -244386.47649  23543046.1404   23543054.0164
 95  1  9 15 59  0.0000000  0  7  1 25 23 21 31 28 15
  20741419.737      145501.07349    109527.48449  20741419.6154   20741426.9484
  22680937.599     -430179.47049   -319629.61249  22680939.0964   22680946.1134
  24105045.113      294760.93349    217479.07049  24105043.6004   24105052.1864
  21295359.398      120029.98749     88851.76149  21295357.9294   21295365.4764
  23425562.461      228411.32049    171136.14649  23425559.9124   23425567.7734
  23806133.445      407587.01849    303233.18249  23806135.8094   23806144.5174
  23523209.825     -446081.45649   -325624.76849  23523207.0824   23523215.6334
 95  1  9 15 59 30.0000000  0  7  1 25 23 21 31 28 15
  20746656.548      173025.89149    130975.40249  20746657.6104   20746665.1454
  22662955.564     -524685.74049   -393270.83849  22662955.5334   22662962.7504
  24116284.528      353840.33649    263514.93849  24116285.9674   24116293.7344
  21299648.784      142580.96649    106423.95049  21299648.7514   21299657.5584
  23434409.194      274911.02849    207369.64449  23434409.0574   23434417.5054
  23822052.432      491255.21149    368429.11649  23822057.2554   23822065.6044
  23503170.622     -551399.38349   -407690.67049  23503165.4324   23503174.1404
 95  1  9 16  0  0.0000000  0  7  1 25 23 21 31 28 15
  20751731.481      199699.00649    151759.64649  20751733.1684   20751739.8724
  22644788.695     -620160.50549   -467666.72249  22644787.3014   22644793.8374
  24127321.153      411820.31549    308694.07949  24127318.2984   24127327.2514
  21303754.541      164154.44849    123234.45449  21303754.4944   21303760.9924
  23443094.509      320547.44949    242930.42349  23443092.7294   23443100.9814
  23837761.917      573805.68349    432754.13749  23837765.4824   23837773.0474
  23482928.705     -657741.59949   -490554.72649  23482929.5984   23482937.0474
 95  1  9 16  0 30.0000000  0  7  1 25 23 21 31 28 15
  20756654.265      225563.42949    171913.74249  20756655.3674   20756662.0224
  22626438.239     -716571.99549   -542792.52949  22626440.5074   22626447.2044
  24138154.850      468744.97949    353050.91449  24138151.2864   24138159.5154
  21307682.367      184792.39649    139315.96549  21307681.5264   21307688.7194
  23451619.156      365357.22349    277847.08949  23451620.3024   23451627.9644
  23853273.147      655274.69949    496236.42349  23853269.6254   23853277.3054
  23462507.663     -765066.15749   -574184.24949  23462506.6984   23462513.7024
 95  1  9 16  1  0.0000000  0  7  1 25 23 21 31 28 15
  20761428.979      250648.56249    191460.59549  20761428.9464   20761435.6064
  22607919.745     -813888.71349   -618623.70349  22607921.3944   22607928.3914
  24148789.489      524652.96549    396615.51849  24148789.9604   24148798.8514
  21311439.193      204536.38449    154700.87249  21311438.8664   21311446.5174
  23459996.303      409384.33849    312153.88249  23459998.8404   23460006.8754
  23868571.895      735693.94949    558900.69349  23868572.2904   23868580.6904
  23441901.641     -873335.36049   -658549.85549  23441903.2664   23441911.2694
 95  1  9 16  1 30.0000000  0  7  1 25 23 21 31 28 15
  20766055.536      274963.23049    210407.10249  20766055.9424   20766062.5904
  22589232.706     -912097.86349   -695150.27749  22589233.2094   22589240.1714
  24159244.727      579574.54649    439411.48149  24159241.3634   24159249.8674
  21315031.751      223421.04349    169416.19449  21315032.5644   21315040.0254
  23468238.739      452671.58049    345884.15749  23468236.9664   23468243.9654
  23883681.235      815086.35949    620764.81549  23883680.9554   23883687.9174
  23421125.143     -982520.57949   -743629.22249  23421126.6074   23421133.9134
 95  1  9 16  2  0.0000000  0  7  1 25 23 21 31 28 15
  20770540.674      298531.25549    228771.80149  20770540.8404   20770547.3504
  22570378.886    -1011167.82049   -772347.61049  22570381.0124   22570387.5104
  24169508.297      633511.03749    481439.88649  24169506.5594   24169515.5714
  21318465.622      241454.07849    183467.89649  21318464.0784   21318471.2694
  23476337.655      495247.84549    379060.41149  23476338.4834   23476345.8354
  23898598.645      893471.98449    681844.52349  23898597.0234   23898603.9894
  23400177.651    -1092595.36549   -829401.80449  23400180.1154   23400187.5954
 95  1  9 16  2 30.0000000  0  7  1 25 23 21 31 28 15
  20774889.441      321389.42949    246583.34449  20774890.4214   20774897.0834
  22551371.727    -1111060.59849   -850186.10649  22551372.3584   22551378.4264
  24179597.449      686489.57449    522721.80849  24179587.1374   24179594.5004
  21321740.636      258659.71549    196874.87549  21321738.8124   21321745.4464
  23484308.791      537138.54649    411702.48849  23484310.6644   23484317.3444
  23913324.069      970876.01349    742159.25049  23913326.1264   23913334.8804
  23379069.463    -1203529.08349   -915843.65049  23379069.9624   23379077.5834
 95  1  9 16  3  0.0000000  0  7  1 25 23 21 31 28 15
  20779109.966      343569.99949    263866.90549  20779111.2564   20779117.8074
  22532215.453    -1211727.41849   -928627.75849  22532215.7944   22532222.3074
  24189493.840      738533.34149    563275.31549  24189490.6074   24189499.4764
  21324856.007      275055.91749    209651.13349  21324857.9974   21324865.5384
  23492156.525      578376.85949    443836.20949  23492157.2584   23492163.6324
  23927875.026     1047322.20249    801727.59449  23927873.8374   23927879.9944
  23357800.131    -1315291.69849  -1002931.37649  23357802.2654   23357809.4604
 95  1  9 16  3 30.0000000  0  7  1 25 23 21 31 28 15
  20783207.501      365106.34649    280648.46949  20783209.4794   20783215.8044
  22512920.659    -1313118.59649  -1007633.83849  22512921.6264   22512927.5994
  24199224.880      789668.43749    603120.76249  24199221.7394   24199230.4014
  21327830.169      290675.15749    221821.96249  21327830.6854   21327836.8784
  23499883.131      618994.88349    475486.58849  23499886.4254   23499894.0054
  23942244.276     1122844.85149    860576.44149  23942243.7064   23942251.3034
  23336382.833    -1427843.16649  -1090633.81849  23336384.8984   23336391.6344
 95  1  9 16  4  0.0000000  0  7  1 25 23 21 31 28 15
  20787192.937      386047.85149    296966.51749  20787194.4614   20787200.8694
  22493502.539    -1415163.32349  -1087149.17349  22493503.2034   22493509.5064
  24208787.551      839945.34649    642297.51049  24208789.0014   24208797.3834
  21330663.148      305562.30849    233422.33249  21330663.8994   21330670.5054
  23507504.465      659017.95549    506673.34149  23507502.4274   23507508.7134
  23956455.563     1197492.19749    918743.10949  23956450.5074   23956458.2404
  23314826.411    -1541129.49249  -1178908.87649  23314827.0784   23314833.8374
 95  1  9 16  4 30.0000000  0  7  1 25 23 21 31 28 15
  20791067.611      406406.88549    312830.69349  20791068.6584   20791075.1754
  22473966.144    -1517832.96949  -1167151.45449  22473965.9444   22473971.9784
  24218201.049      889413.51449    680844.06449  24218202.5014   24218211.2064
  21333364.889      319761.41249    244486.55449  21333365.3424   21333372.3804
  23515007.095      698463.35549    537409.97849  23515008.6004   23515016.9774
  23970494.136     1271294.15049    976251.06449  23970494.8484   23970501.3034
  23293134.180    -1655114.58649  -1267728.42149  23293136.2534   23293143.4834
 95  1  9 16  5  0.0000000  0  7  1 25 23 21 31 28 15
  20794833.073      426189.25149    328245.51449  20794833.2994   20794840.0604
  22454313.056    -1621105.55649  -1247623.55449  22454313.8634   22454320.2074
  24227467.797      938108.36849    718788.01949  24227469.6624   24227477.7614
  21335941.452      333308.57349    255042.76749  21335943.4484   21335950.4494
  23522407.891      737354.09049    567714.37749  23522409.8494   23522416.1864
  23984382.215     1344276.34649   1033120.30049  23984382.0744   23984388.9344
  23271318.072    -1769767.22449  -1357068.14349  23271318.8534   23271325.9644
 95  1  9 16  5 30.0000000  0  7  1 25 23 21 31 28 15
  20798486.678      445389.75349    343206.94549  20798486.8184   20798493.7104
  22434548.357    -1724981.93349  -1328566.14649  22434546.7804   22434553.1454
  24236597.985      986062.23149    756154.65049  24236594.4384   24236602.2464
  21338402.932      346231.01849    265112.19849  21338402.6614   21338409.2774
  23529703.464      775682.67249    597580.78749  23529702.9914   23529711.1434
  23998115.039     1416450.33049   1089359.71049  23998116.8424   23998125.5324
  23249380.821    -1885069.62249  -1446914.14349  23249377.6064   23249384.8654
 95  1  9 16  6  0.0000000  0  7  1 25 23 21 31 28 15
  20802041.412      464070.63349    357763.46549  20802041.7114   20802048.5094
  22414671.525    -1829419.56049  -1409946.07949  22414672.4834   22414679.2584
  24245590.505     1033341.43149    792995.59849  24245590.2644   24245600.3074
  21340753.950      358588.67749    274741.52549  21340754.0064   21340761.6084
  23536900.111      813491.11649    627041.85049  23536898.7644   23536905.9524
  24011705.585     1487866.56949   1145008.65849  24011706.9254   24011715.4124
  23227324.047    -2000965.58349  -1537222.69149  23227322.7704   23227330.5344
 95  1  9 16  6 30.0000000  0  7  1 25 23 21 31 28 15
  20805504.642      482275.53349    371949.09449  20805506.0114   20805512.8634
  22394694.834    -1934392.68249  -1491743.29449  22394696.9274   22394703.0544
  24254468.675     1079976.29349    829334.34349  24254464.2794   24254475.4194
  21343006.672      370419.22349    283960.11849  21343005.6444   21343012.7124
  23544002.678      850823.95249    656132.33149  23544003.3004   23544010.6664
  24025153.735     1558553.62749   1200089.42949  24025157.6064   24025166.6034
  23205158.608    -2117420.85149  -1627967.03649  23205162.1754   23205169.7244
 95  1  9 16  7  0.0000000  0  7  1 25 23 21 31 28 15
  20808881.067      500017.02449    385773.62849  20808882.1364   20808888.9004
  22374620.331    -2039897.75849  -1573955.00849  22374619.5764   22374626.3504
  24263216.074     1125956.47949    865162.98349  24263215.1244   24263222.8944
  21345155.620      381714.49449    292761.61949  21345155.6124   21345162.1584
  23551018.704      887687.78649    684857.37049  23551017.9564   23551024.6784
  24038466.325     1628507.87049   1254599.10749  24038469.6274   24038477.7164
  23182896.685    -2234432.62349  -1719145.00649  23182895.9724   23182903.3934
 95  1  9 16  7 30.0000000  0  7  1 25 23 21 31 28 15
  20812178.641      517342.12849    399273.69749  20812179.0624   20812185.9374
  22354444.864    -2145903.94149  -1656557.20149  22354447.4294   22354454.2294
  24271843.038     1171300.25849    900495.82449  24271844.4124   24271852.1604
  21347202.662      392483.88249    301153.33349  21347204.2214   21347211.8854
  23557947.711      924105.02049    713234.38849  23557948.5094   23557955.3544
  24051648.419     1697753.40049   1308556.60149  24051646.9954   24051654.5314
  23160526.954    -2351970.60249  -1810733.05649  23160529.1574   23160536.5114
 95  1  9 16  8  0.0000000  0  7  1 25 23 21 31 28 15
  20815402.863      534287.48849    412477.86549  20815403.5234   20815410.4504
  22334185.283    -2252376.02949  -1739522.43149  22334186.4094   22334193.2724
  24280350.919     1216011.69149    935335.80549  24280352.0624   24280361.9144
  21349155.818      402743.47049    309147.80049  21349156.8494   21349164.2564
  23564796.938      960119.80249    741297.78549  23564800.4604   23564809.5654
  24064697.764     1766311.81249   1361978.66349  24064692.7834   24064700.7694
  23138067.820    -2470008.03749  -1902710.29249  23138067.3634   23138074.6624
 95  1  9 16  8 30.0000000  0  7  1 25 23 21 31 28 15
  20818558.002      550867.20649    425397.11349  20818558.6464   20818565.4674
  22313841.001    -2359289.00049  -1822831.20949  22313841.3944   22313848.3174
  24288741.447     1260099.30249    969689.81049  24288742.1174   24288746.9704
  21351013.126      412512.07249    316759.67849  21351015.7254   21351023.4024
  23571583.033      995751.12349    769062.40749  23571582.0184   23571589.3064
  24077612.781     1834199.59349   1414878.13149  24077612.8494   24077619.8494
  23115515.967    -2588522.08549  -1995058.88749  23115514.7704   23115522.0574
 95  1  9 16  9  0.0000000  0  7  1 25 23 21 31 28 15
  20821647.279      567096.63849    438043.41149  20821646.9344   20821653.9004
  22293419.906    -2466612.67549  -1906460.02449  22293418.6364   22293425.2154
  24297018.047     1303588.87249   1003577.68849  24297018.2074   24297027.1774
  21352781.218      421793.20549    323991.71549  21352781.6664   21352789.3064
  23578284.883     1031007.27549    796534.67649  23578289.6634   23578298.4074
  24090406.166     1901431.06349   1467266.27949  24090406.0754   24090413.7314
  23092876.201    -2707492.59049  -2087763.17149  23092875.6424   23092882.4054
 95  1  9 16  9 30.0000000  0  7  1 25 23 21 31 28 15
  20824672.311      582999.48849    450435.23549  20824673.3804   20824680.3244
  22272921.815    -2574311.93849  -1990381.50349  22272924.2054   22272930.9884
  24305177.897     1346509.33849   1037022.13749  24305186.5164   24305192.7534
  21354459.054      430613.40549    330864.57849  21354460.2474   21354467.7524
  23584929.236     1065904.35649    823727.17649  23584930.5734   23584936.5624
  24103080.129     1968023.34349   1519156.34949  24103077.7284   24103086.8784
  23070154.013    -2826897.06149  -2180805.60749  23070154.0404   23070160.7854
 95  1  9 16 10  0.0000000  0  7  1 25 23 21 31 28 15
  20827640.201      598590.10849    462583.75949  20827640.0054   20827647.0384
  22252364.855    -2682342.91349  -2074561.46749  22252366.5974   22252373.4804
  24313254.127     1388890.10349   1070046.05349  24313250.8814   24313257.7384
  21356058.829      439013.87049    337410.37449  21356058.9574   21356066.5934
  23591510.495     1100467.22849    850659.25849  23591509.2184   23591516.4194
  24115632.476     2034002.23749   1570568.38349  24115633.2284   24115642.5094
  23047354.907    -2946703.58649  -2274161.32949  23047355.3014   23047362.2494
 95  1  9 16 10 30.0000000  0  7  1 25 23 21 31 28 15
  20830546.835      613863.06849    474484.75949  20830546.5524   20830553.4584
  22231749.098    -2790687.21749  -2158985.58349  22231749.1464   22231756.1754
  24321215.412     1430757.09349   1102669.65449  24321217.3374   24321226.7864
  21357578.179      447002.94849    343635.61249  21357579.0284   21357586.7984
  23598023.515     1134687.47449    877324.32749  23598020.6464   23598027.1704
  24128071.207     2099375.01849   1621508.17349  24128073.8574   24128081.3214
  23024485.673    -3066898.70949  -2367819.86049  23024482.4904   23024489.8464
 95  1  9 16 11  0.0000000  0  7  1 25 23 21 31 28 15
  20833386.473      628790.44349    486116.47649  20833387.1434   20833393.9734
  22211070.301    -2899352.78949  -2243660.03349  22211071.3984   22211078.0834
  24329080.121     1472101.33149   1134885.82649  24329083.3334   24329093.2744
  21359017.838      454568.31049    349530.68949  21359018.6544   21359026.1674
  23604464.028     1168554.52049    903714.20649  23604464.7334   23604472.4024
  24140400.350     2164124.14449   1671961.94449  24140394.8054   24140403.3434
  23001535.811    -3187494.34049  -2461790.47349  23001533.9494   23001541.0004
 95  1  9 16 11 30.0000000  0  7  1 25 23 21 31 28 15
  20836159.468      643361.10849    497470.23149  20836159.9124   20836166.8014
  22190326.743    -3008353.16349  -2328595.38149  22190328.8664   22190335.8984
  24336851.579     1512906.06949   1166681.67449  24336850.0484   24336858.0014
  21360381.989      461741.45749    355120.13549  21360384.0824   21360391.2054
  23610841.789     1202067.57049    929828.21549  23610843.4364   23610849.9364
  24152594.263     2228242.52549   1721924.23449  24152596.2444   24152604.6524
  22978511.571    -3308491.81749  -2556074.21449  22978509.1174   22978516.6134
 95  1  9 16 12  0.0000000  0  7  1 25 23 21 31 28 15
  20838868.442      657597.35049    508563.39949  20838868.9004   20838875.7434
  22169525.365    -3117664.09549  -2413772.72449  22169527.6014   22169534.6544
  24344514.363     1553201.59349   1198080.71149  24344518.5084   24344527.3484
  21361683.038      468567.53349    360439.13949  21361683.3244   21361690.4034
  23617160.104     1235265.08049    955696.37049  23617159.8334   23617166.1764
  24164685.602     2291763.98349   1771421.34249  24164684.0824   24164692.9814
  22955414.558    -3429851.17849  -2650639.93649  22955415.2914   22955422.4094
 95  1  9 16 12 30.0000000  0  7  1 25 23 21 31 28 15
  20841515.842      671511.67749    519405.72549  20841516.7644   20841523.5204
  22148663.419    -3227288.37249  -2499194.23249  22148666.8344   22148673.6244
  24352090.012     1593002.68149   1229094.45549  24352092.3584   24352100.0734
  21362919.886      475059.46549    365497.76949  21362917.7564   21362925.6974
  23623418.284     1268153.35349    981323.53749  23623418.2064   23623426.5744
  24176656.555     2354693.83049   1820457.48249  24176659.6054   24176667.9714
  22932253.211    -3551561.07749  -2745478.81149  22932254.6134   22932261.7514
 95  1  9 16 13  0.0000000  0  7  1 25 23 21 31 28 15
  20844110.910      685145.39949    530029.39649  20844111.2364   20844118.1834
  22127750.555    -3337205.00749  -2584843.55149  22127750.6564   22127757.0474
  24359574.752     1632330.12949   1259739.20149  24359576.0884   24359584.8224
  21364098.051      481254.69149    370325.19249  21364097.4054   21364104.6184
  23629622.390     1300770.02049   1006739.09349  23629625.3894   23629632.6494
  24188523.160     2417055.70749   1869051.04949  24188525.5984   24188534.7074
  22909035.868    -3673592.22149  -2840568.00749  22909032.6324   22909039.6864
 95  1  9 16 13 30.0000000  0  7  1 25 23 21 31 28 15
  20846657.840      698524.45349    540454.62349  20846657.1754   20846664.0794
  22106784.205    -3447383.00749  -2670696.53249  22106784.4414   22106790.7474
  24366974.816     1671206.87449   1290032.70549  24366974.0324   24366983.5354
  21365222.376      487164.72649    374930.39949  21365221.9154   21365228.7274
  23635783.465     1333129.72949   1031954.40749  23635782.5224   23635789.9344
  24200288.403     2478869.44349   1917217.54649  24200289.8314   24200297.2824
  22885752.293    -3795918.67049  -2935887.31449  22885754.6764   22885762.0034
 95  1  9 16 14  0.0000000  0  7  1 25 23 21 31 28 15
  20849157.559      711663.67249    550692.96849  20849157.6164   20849164.3954
  22085774.456    -3557791.29749  -2756728.95949  22085774.7034   22085781.0744
  24374290.008     1709656.69649   1319993.49349  24374289.6794   24374299.4974
  21366289.384      492777.05749    379303.62949  21366289.6344   21366297.2264
  23641890.470     1365238.80049   1056974.42749  23641893.6964   23641900.2514
  24211953.329     2540154.25749   1964971.88349  24211951.9544   24211960.0984
  22862425.598    -3918515.70049  -3031417.46249  22862425.3284   22862432.9814
 95  1  9 16 14 30.0000000  0  7  1 25 23 21 31 28 15
  20851624.305      724625.46049    560793.05449  20851624.2494   20851630.9824
  22064733.287    -3668365.62049  -2842890.76449  22064733.1584   22064739.6094
  24381536.961     1747745.55949   1349673.04949  24381539.3744   24381547.2914
  21367310.574      498142.11149    383484.16749  21367310.9064   21367318.2274
  23647967.071     1397150.09549   1081840.32649  23647965.2144   23647973.0724
  24223521.459     2600963.79449   2012355.84549  24223523.1854   24223532.0144
  22839057.478    -4041323.63649  -3127111.94649  22839055.5534   22839063.2354
 95  1  9 16 15  0.0000000  0  7  1 25 23 21 31 28 15
  20854059.494      737423.05549    570765.19849  20854059.6404   20854066.4534
  22043666.054    -3779068.63849  -2929152.84849  22043667.1364   22043673.5344
  24388721.439     1785495.00849   1379088.14449  24388723.2514   24388731.8164
  21368289.442      503283.31849    387490.28549  21368289.3334   21368296.7094
  23654006.169     1428892.13649   1106574.33249  23654006.1124   23654012.6274
  24235006.844     2661318.68349   2059385.48449  24235008.2914   24235016.6944
  22815651.841    -4164315.82549  -3222950.01249  22815651.0544   22815658.0294
 95  1  9 16 15 30.0000000  0  7  1 25 23 21 31 28 15
  20856457.622      750027.14749    580586.56149  20856457.9304   20856464.7874
  22022572.379    -3889919.81249  -3015530.38249  22022572.7054   22022579.0664
  24395838.280     1822876.85849   1408216.76549  24395835.5334   24395845.7274
  21369219.651      508177.96549    391304.27949  21369220.6994   21369228.2694
  23660009.371     1460428.71149   1131148.27949  23660007.6184   23660013.4824
  24246402.883     2721191.69149   2106039.75649  24246402.4474   24246408.4954
  22792205.314    -4287513.69249  -3318948.34149  22792207.1494   22792214.4624
 95  1  9 16 16  0.0000000  0  7  1 25 23 21 31 28 15
  20858815.561      762424.64849    590246.94349  20858817.0824   20858823.9984
  22001445.748    -4000943.89949  -3102042.65349  22001445.6264   22001451.8634
  24402874.574     1859873.35449   1437045.14049  24402876.0004   24402884.6424
  21370106.331      512824.66449    394925.06249  21370104.5704   21370111.8994
  23665964.462     1491737.94549   1155545.05249  23665965.6774   23665973.8934
  24257698.419     2780557.00549   2152298.53849  24257699.8284   24257707.4764
  22768720.164    -4410937.17449  -3415122.48049  22768720.6704   22768728.1254
 95  1  9 16 16 30.0000000  0  7  1 25 23 21 31 28 15
  20861138.619      774627.48749    599755.63949  20861139.2854   20861146.0884
  21980285.636    -4112135.55749  -3188685.49949  21980286.6024   21980293.0094
  24409846.489     1896496.35049   1465582.47549  24409846.1124   24409855.1774
  21370943.039      517236.62149    398362.93849  21370944.9284   21370951.2284
  23671881.072     1522832.18849   1179774.28249  23671882.0044   23671890.3564
  24268901.301     2839416.35049   2198162.81149  24268898.8124   24268908.9354
  22745193.212    -4534578.66449  -3511466.49749  22745192.8074   22745199.8364
 95  1  9 16 17  0.0000000  0  7  1 25 23 21 31 28 15
  20863418.475      786609.26549    609092.07649  20863419.2704   20863426.3134
  21959089.356    -4223523.88449  -3275481.59349  21959089.5614   21959096.2974
  24416734.816     1932717.28949   1493806.47149  24416738.1244   24416747.5784
  21371733.925      521390.12749    401599.42049  21371734.5984   21371742.7004
  23677750.205     1553673.91249   1203806.75049  23677751.1384   23677758.2974
  24279992.205     2897745.84049   2243614.12349  24279999.4044   24280007.8864
  22721620.176    -4658456.82149  -3607994.93049  22721619.2774   22721626.8784
 95  1  9 16 17 30.0000000  0  7  1 25 23 21 31 28 15
  20865662.753      798399.98949    618279.64449  20865663.1414   20865670.0204
  21937857.507    -4335096.68049  -3362421.42749  21937858.2224   21937864.6804
  24423558.314     1968556.75849   1521733.20149  24423558.9174   24423566.9284
  21372475.591      525289.66849    404638.00849  21372477.5874   21372483.9694
  23683570.547     1584270.87649   1227648.49949  23683573.7044   23683582.7874
  24290995.332     2955562.23749   2288665.83949  24291001.8754   24291007.2294
  22698004.674    -4782548.40749  -3704689.67249  22698005.4284   22698013.0414
 95  1  9 16 18  0.0000000  0  7  1 25 23 21 31 28 15
  20867873.786      810022.07549    627335.80349  20867874.7464   20867881.6974
  21916597.237    -4446820.52249  -3449478.96149  21916598.0144   21916604.5514
  24430315.684     2004057.88549   1549396.34249  24430314.2734   24430322.0694
  21373170.866      528944.45649    407485.87449  21373171.9834   21373180.4254
  23689353.672     1614660.81449   1251328.93049  23689356.9774   23689364.2134
  24301911.726     3012893.77049   2333339.81449  24301911.6764   24301920.9564
  22674357.257    -4906819.18849  -3801524.04649  22674357.3674   22674365.0274
 95  1  9 16 18 30.0000000  0  7  1 25 23 21 31 28 15
  20870045.599      821433.08349    636227.48849  20870046.1194   20870053.0104
  21895303.773    -4558714.83249  -3536669.31149  21895305.0544   21895311.8244
  24436999.674     2039190.02349   1576772.01449  24436999.3694   24437007.5304
  21373813.689      532315.21149    410112.40749  21373814.0444   21373821.0984
  23695094.938     1644816.06249   1274826.50149  23695094.9204   23695103.2814
  24312729.439     3069713.51849   2377614.67949  24312723.7384   24312731.6754
  22650671.289    -5031290.81149  -3898514.91449  22650671.3514   22650678.7664
 95  1  9 16 19  0.0000000  0  7  1 25 23 21 31 28 15
  20872174.523      832617.99049    644942.98849  20872174.7104   20872181.5764
  21873979.199    -4670776.25649  -3623989.88249  21873980.5384   21873987.3294
  24443612.032     2073938.80949   1603848.92449  24443611.4244   24443621.6704
  21374401.162      535399.71749    412515.90149  21374401.0604   21374408.3144
  23700780.859     1674727.52949   1298134.07349  23700787.1314   23700795.7624
  24323435.188     3126009.91649   2421481.89449  24323437.4454   24323445.8474
  22626948.401    -5155969.06449  -3995666.79449  22626945.7584   22626953.4804
 95  1  9 16 19 30.0000000  0  7  1 25 23 21 31 28 15
  20874260.746      843591.43849    653493.71849  20874262.8484   20874269.7064
  21852632.226    -4782959.96149  -3711405.73349  21852632.6614   21852639.3684
  24450159.486     2108327.40949   1630645.13649  24450157.7624   24450164.0584
  21374935.998      538227.92749    414719.68449  21374939.4504   21374946.3194
  23706440.088     1704432.62649   1321280.85349  23706439.4814   23706447.6574
  24334053.434     3181801.91349   2464956.07549  24334054.1614   24334062.8124
  22603184.037    -5280828.69749  -4092960.00349  22603185.5554   22603193.3574
 95  1  9 16 20  0.0000000  0  7  1 25 23 21 31 28 15
  20876315.501      854384.50549    661903.89249  20876316.7234   20876323.6084
  21831271.843    -4895216.74749  -3798878.54249  21831270.8604   21831277.5154
  24456640.104     2142395.15849   1657191.34649  24456637.7784   24456648.2254
  21375439.122      540857.46149    416768.65449  21375439.6654   21375446.9204
  23712061.323     1733958.05049   1344287.65449  23712059.5294   23712066.5494
  24344579.047     3237124.54149   2508064.49149  24344581.2844   24344590.2014
  22579399.146    -5405828.95649  -4190362.79549  22579399.1864   22579406.2974
 95  1  9 16 20 30.0000000  0  7  1 25 23 21 31 28 15
  20878337.924      865007.04349    670181.18449  20878338.0814   20878345.0764
  21809894.451    -5007533.18549  -3886397.83649  21809897.6494   21809904.5274
  24463065.769     2176144.52749   1683489.51549  24463061.0104   24463068.7704
  21375906.320      543318.77349    418686.53249  21375907.3934   21375915.7964
  23717637.319     1763298.28149   1367150.11349  23717641.1324   23717650.2584
  24355023.929     3291985.48749   2550813.28549  24355021.1444   24355028.4564
  22555590.563    -5530956.59949  -4287864.84249  22555588.2944   22555595.2664
 95  1  9 16 21  0.0000000  0  7  1 25 23 21 31 28 15
  20880333.006      875485.54949    678346.24549  20880332.3414   20880339.0974
  21788516.702    -5119889.16749  -3973947.93449  21788516.9724   21788523.8494
  24469428.846     2209602.54649   1709560.62949  24469427.6874   24469438.5764
  21376350.580      545642.14149    420496.92249  21376350.2374   21376357.1464
  23723190.348     1792464.53549   1389877.00349  23723192.1184   23723200.5814
  24365378.649     3346404.45749   2593217.63549  24365377.1444   24365385.9374
  22531754.827    -5656185.67549  -4385445.93249  22531757.9074   22531765.3024
 95  1  9 16 21 30.0000000  0  7  1 25 23 21 31 28 15
  20882299.957      885832.11049    686408.49549  20882301.2354   20882307.8284
  21767127.580    -5232291.21449  -4061533.92549  21767127.7694   21767134.3814
  24475738.813     2242784.61349   1735416.71249  24475742.2434   24475750.9364
  21376766.632      547831.93649    422203.24149  21376767.2484   21376774.8524
  23728713.121     1821450.76449   1412463.62649  23728707.3634   23728716.3844
  24375649.647     3400384.31749   2635279.69749  24375648.4154   24375658.6834
  22507910.847    -5781507.92949  -4483099.63649  22507909.6974   22507916.9694
 95  1  9 16 22  0.0000000  0  7  1 25 23 21 31 28 15
  20884243.661      896049.97149    694370.45649  20884245.7154   20884252.4354
  21745728.980    -5344742.50649  -4149158.29249  21745729.1114   21745735.7684
  24482005.276     2275703.13849   1761067.43749  24482006.8914   24482015.7514
  21377160.307      549890.96249    423807.64949  21377158.9224   21377165.9804
  23734186.447     1850244.84249   1434900.51549  23734187.6974   23734195.1064
  24385830.932     3453927.35749   2677001.40249  24385837.5844   24385845.9304
  22484043.605    -5906915.28149  -4580819.64549  22484045.6654   22484053.0604
 95  1  9 16 22 30.0000000  0  7  1 25 23 21 31 28 15
  20886160.692      906121.28449    702218.22549  20886162.1314   20886168.8754
  21724317.337    -5457247.59449  -4236824.57649  21724319.8524   21724326.5434
  24488219.038     2308346.93949   1786504.10549  24488218.6674   24488227.5864
  21377521.737      551807.44849    425300.99649  21377522.7664   21377531.3374
  23739633.332     1878849.90349   1457190.16049  23739631.5214   23739638.8494
  24395941.322     3507023.20949   2718374.78049  24395943.0764   24395948.8804
  22460163.487    -6032412.47549  -4678609.66249  22460164.3084   22460171.7064
 95  1  9 16 23  0.0000000  0  7  1 25 23 21 31 28 15
  20888050.902      916048.93649    709954.05149  20888051.3404   20888058.0244
  21702901.509    -5569808.22049  -4324534.14449  21702900.3974   21702906.9174
  24494375.913     2340710.52749   1811722.36249  24494377.7804   24494386.6194
  21377858.973      553573.43649    426677.06749  21377859.3814   21377867.2024
  23745035.585     1907269.35349   1479335.10549  23745039.0584   23745047.9064
  24405958.346     3559666.12349   2759395.23549  24405959.8574   24405969.6654
  22436265.633    -6157999.32649  -4776469.53749  22436265.9324   22436273.3274
 95  1  9 16 23 30.0000000  0  7  1 25 23 21 31 28 15
  20889912.732      925833.36349    717578.26949  20889913.1844   20889919.9834
  21681467.897    -5682426.50549  -4412288.63949  21681469.7604   21681476.5384
  24500484.456     2372789.61349   1836718.94449  24500482.4464   24500491.2094
  21378165.485      555181.16449    427929.81949  21378165.7814   21378173.0174
  23750406.627     1935499.57849   1501332.63349  23750410.6184   23750417.8544
  24415888.042     3611850.42249   2800058.24349  24415890.6704   24415899.2684
  22412347.660    -6283675.78849  -4874399.23749  22412350.1604   22412357.8214
 95  1  9 16 24  0.0000000  0  7  1 25 23 21 31 28 15
  20891754.818      935512.17349    725120.18649  20891754.9914   20891761.8244
  21660035.907    -5795049.55249  -4500046.85049  21660038.3194   21660045.0244
  24506540.274     2404614.36849   1861517.40449  24506538.7584   24506547.4534
  21378450.098      556674.51349    429093.44849  21378449.8194   21378457.1364
  23755756.790     1963591.52749   1523222.42449  23755757.6454   23755763.9904
  24425740.036     3663617.66649   2840396.19249  24425740.9254   24425750.6174
  22388429.261    -6409395.03049  -4972362.27249  22388426.9304   22388434.3364
 95  1  9 16 24 29.9990000  0  7  1 25 23 21 31 28 15
  20893580.090      945108.47149    732597.80949  20893581.1934   20893588.0264
  21638606.008    -5907667.55549  -4587801.13349  21638607.9554   21638614.5024
  24512548.400     2436169.02949   1886105.36649  24512542.8174   24512551.9284
  21378712.386      558058.47949    430171.84149  21378713.2094   21378720.2174
  23761080.643     1991565.33649   1545020.17449  23761080.8554   23761089.5134
  24435512.459     3714969.73249   2880410.61849  24435513.3414   24435522.5754
  22364498.736    -6535142.88549  -5070347.60649  22364497.8874   22364505.0824
 95  1  9 16 24 59.9990000  0  7  1 25 23 21 31 28 15
  20895398.315      954669.11649    740047.64949  20895400.4504   20895407.3564
  21617181.419    -6020263.43249  -4675538.17149  21617181.8294   21617188.4424
  24518500.598     2467487.28449   1910509.08849  24518502.2214   24518511.9364
  21378958.329      559360.33549    431186.26049  21378960.7464   21378968.0484
  23766389.201     2019444.98249   1566744.47449  23766385.0134   23766393.6554
  24445211.833     3765934.43449   2920123.27749  24445212.0294   24445219.4654
  22340567.053    -6660897.82249  -5168338.46249  22340567.5504   22340574.8474
 95  1  9 16 25 29.9990000  0  7  1 25 23 21 31 28 15
  20897211.428      964186.11549    747463.48349  20897211.5744   20897218.4384
  21595760.787    -6132827.77349  -4763250.63849  21595761.4084   21595768.0474
  24524419.266     2498572.10149   1934730.92549  24524416.8544   24524427.6714
  21379190.333      560582.32949    432138.43249  21379193.1684   21379201.7084
  23771672.849     2047233.31949   1588397.68449  23771674.0674   23771681.6744
  24454834.832     3816504.53949   2959528.51949  24454835.0464   24454843.5574
  22316635.589    -6786655.66949  -5266331.58649  22316636.6674   22316643.6064
 95  1  9 16 25 59.9990000  0  6  1 25 21 31 28 15
  20899020.599      973694.80949    754872.84149  20899020.9374   20899027.8754
  21574354.728    -6245315.07349  -4850903.06949  21574355.9364   21574362.4594
  21379417.722      561770.98249    433064.63649  21379419.8984   21379426.4934
  23776944.122     2074972.92149   1610012.96149  23776952.4474   23776960.1184
  24464387.317     3866714.32349   2998652.97049  24464389.5134   24464398.4144
  22292712.712    -6912376.27749  -5364295.69649  22292712.7934   22292719.9074
 95  1  9 16 26 29.9990000  0  6  1 25 21 31 28 15
  20900827.661      983196.88849    762277.04449  20900829.1854   20900835.9904
  21552965.945    -6357714.01649  -4938486.64949  21552966.7864   21552973.4454
  21379640.749      562933.11949    433970.17549  21379640.7014   21379649.3834
  23782218.178     2102656.52949   1631584.50249  23782220.1664   23782228.3904
  24473875.045     3916566.93549   3037499.07149  24473876.4144   24473884.8904
  22268793.317    -7038050.60749  -5462223.74449  22268797.7234   22268804.6894
 95  1  9 16 26 59.9990000  0  6  1 25 21 31 28 15
  20902631.117      992663.52549    769653.63349  20902630.6764   20902637.3754
  21531596.277    -6470014.23649  -5025993.29949  21531596.6484   21531603.0894
  21379854.120      564065.41949    434852.45949  21379856.6394   21379863.1604
  23787473.325     2130263.92849   1653096.73849  23787474.4804   23787480.8324
  24483292.433     3966055.92449   3076061.75449  24483292.9624   24483303.0954
  22244890.242    -7163679.82649  -5560116.64049  22244891.3554   22244898.2094
 95  1  9 16 27 29.9990000  0  6  1 25 21 31 28 15
  20904420.478     1002070.34949    776983.61049  20904420.8374   20904427.2854
  21510245.156    -6582211.91349  -5113420.05449  21510246.4634   21510252.5884
  21380064.094      565163.44249    435708.04549  21380064.6754   21380072.4934
  23792709.499     2157777.75349   1674536.05749  23792709.9694   23792717.4964
  24492637.467     4015176.56449   3114337.40849  24492642.0704   24492650.4684
  22220991.840    -7289262.91349  -5657973.58749  22220993.4374   22221000.7014
 95  1  9 16 27 59.9990000  0  6  1 25 21 31 28 15
  20906205.632     1011450.73049    784292.98549  20906205.8064   20906212.4054
  21488920.639    -6694276.58949  -5200743.17649  21488921.0044   21488927.3464
  21380270.850      566258.27449    436561.13649  21380274.0804   21380282.1964
  23797932.780     2185211.81749   1695913.18149  23797930.4004   23797938.3084
  24501921.332     4063965.48249   3152354.62149  24501926.0944   24501934.0904
  22197110.943    -7414757.32149  -5755761.43449  22197112.9244   22197119.8974
 95  1  9 16 28 29.9990000  0  6  1 25 21 31 28 15
  20907978.955     1020777.59049    791560.65749  20907980.6344   20907987.2674
  21467616.371    -6806228.37049  -5287978.32049  21467617.5464   21467623.9364
  21380474.237      567321.82949    437389.85149  21380475.7654   21380482.6364
  23803132.346     2212543.20849   1717210.33749  23803131.7234   23803139.1424
  24511147.127     4112401.25449   3190096.68049  24511142.2764   24511151.3694
  22173248.125    -7540178.87949  -5853492.51349  22173246.1024   22173253.2594
 95  1  9 16 28 59.9990000  0  5  1 25 21 31 15
  20909744.374     1030048.20149    798784.50049  20909744.7854   20909751.5184
  21446336.275    -6918063.72949  -5375122.74549  21446335.9644   21446342.4014
  21380674.716      568361.55749    438200.00749  21380674.0764   21380682.1924
  23808313.475     2239780.04949   1738433.79649  23808314.7904   23808321.9624
  22149391.681    -7665522.57849  -5951162.92949  22149393.7654   22149401.0504
 95  1  9 16 29 29.9990000  0  5  1 25 21 31 15
  20911501.212     1039287.75549    805984.14249  20911503.1574   20911509.6894
  21425077.794    -7029766.59449  -5462163.93249  21425079.6544   21425086.0304
  21380872.576      569401.69449    439010.46449  21380871.4574   21380879.2994
  23813487.094     2266947.08949   1759602.87149  23813483.5704   23813491.9284
  22125562.953    -7790765.47349  -6048754.79149  22125561.1494   22125568.4574
 95  1  9 16 29 59.9990000  0  5  1 25 21 31 15
  20913253.723     1048503.06849    813164.89749  20913256.6064   20913263.2464
  21403846.566    -7141344.74849  -5549107.93949  21403846.9874   21403853.4194
  21381069.011      570436.77249    439816.98949  21381069.1194   21381076.0744
  23818644.795     2294057.76649   1780728.07049  23818642.8674   23818650.0324
  22101743.511    -7915915.70749  -6146274.44649  22101745.6254   22101753.0304
 95  1  9 16 30 29.9990000  0  5  1 25 21 31 15
  20915005.169     1057696.89049    820328.90549  20915006.1554   20915012.7984
  21382639.871    -7252785.73649  -5635945.05949  21382640.4794   21382647.0194
  21381265.769      571481.60349    440631.11849  21381267.6354   21381275.5964
  23823786.815     2321120.73749   1801815.99549  23823793.2674   23823801.8094
  22077947.666    -8040970.86849  -6243720.01849  22077948.2424   22077955.9024
 95  1  9 16 30 59.9990000  0  5  1 25 21 31 15
  20916749.943     1066865.35749    827473.15749  20916750.9284   20916757.6564
  21361456.465    -7364104.77049  -5722687.14349  21361456.9174   21361463.7114
  21381464.470      572526.09049    441444.97649  21381466.3784   21381474.1944
  23828925.403     2348112.53049   1822848.53549  23828929.1544   23828935.6464
  22054166.847    -8165941.56949  -6341099.78049  22054167.2724   22054174.8494
 95  1  9 16 31 29.9990000  0  5  1 25 21 31 15
  20918492.740     1076023.89449    834609.66949  20918493.7314   20918500.3594
  21340294.119    -7475305.02849  -5809336.67949  21340296.3914   21340303.1784
  21381663.142      573562.72449    442252.71149  21381663.5414   21381671.2664
  23834048.429     2375024.42749   1843818.81549  23834050.9314   23834056.9824
  22030403.159    -8290820.91349  -6438408.35549  22030403.4034   22030411.0364
 95  1  9 16 31 59.9990000  0  5  1 25 21 31 15
  20920232.005     1085161.62049    841729.96749  20920232.7054   20920239.4294
  21319157.473    -7586385.30049  -5895892.71749  21319158.5474   21319165.0904
  21381858.487      574580.64949    443045.87149  21381857.8704   21381864.9824
  23839153.600     2401838.79649   1864713.12149  23839153.6734   23839162.5054
  22006657.670    -8415609.59049  -6535646.27849  22006656.8754   22006664.6774
 95  1  9 16 32 29.9990000  0  5  1 25 21 31 15
  20921961.158     1094251.28749    848812.81449  20921962.3924   20921969.2784
  21298044.000    -7697341.19249  -5982351.83249  21298044.1534   21298050.6344
  21382044.772      575563.29149    443811.54749  21382044.6894   21382052.1474
  23844231.836     2428529.91549   1885511.32449  23844232.1044   23844239.6844
  21982928.905    -8540308.66549  -6632814.38549  21982927.4004   21982935.1084
 95  1  9 16 32 59.9990000  0  5  1 25 21 31 15
  20923681.877     1103288.84849    855855.05749  20923682.1354   20923689.0734
  21276954.456    -7808164.82849  -6068707.89349  21276955.3384   21276961.7644
  21382221.029      576493.20549    444536.12649  21382221.4594   21382228.9134
  23849288.334     2455094.60749   1906211.02549  23849287.1174   23849296.1984
  21959214.858    -8664913.96249  -6729909.41749  21959216.0614   21959223.3774
 95  1  9 16 33 29.9990000  0  5  1 25 21 31 15
  20925390.974     1112271.33449    862854.38049  20925391.2924   20925398.2384
  21255896.131    -7918826.05649  -6154937.40149  21255896.8034   21255903.4184
  21382391.892      577382.92149    445229.38349  21382390.8714   21382398.9714
  23854320.591     2481549.18249   1926824.95249  23854321.1314   23854328.4574
  21935522.359    -8789414.11749  -6826922.51949  21935524.3454   21935531.8774
 95  1  9 16 33 59.9990000  0  5  1 25 21 31 15
  20927081.730     1121160.96749    869781.36149  20927082.9744   20927089.7704
  21234867.839    -8029333.32949  -6241046.93849  21234868.3714   21234874.4724
  21382550.950      578224.73149    445885.30649  21382550.9714   21382558.5924
  23859333.874     2507874.71049   1947338.28549  23859331.5574   23859339.3054
  21911846.879    -8913828.44849  -6923868.73549  21911849.1714   21911856.7954
 95  1  9 16 34 29.9990000  0  5  1 25 21 31 15
  20928762.198     1129989.24149    876660.52049  20928763.0764   20928769.8434
  21213870.442    -8139673.18949  -6327026.03749  21213871.3034   21213877.6194
  21382709.020      579052.84849    446530.57249  21382708.2984   21382716.0934
  23864321.778     2534093.84549   1967768.74349  23864320.6314   23864329.0224
  21888193.490    -9038133.87449  -7020730.09949  21888194.7564   21888202.3684
 95  1  9 16 34 59.9990000  0  5  1 25 21 31 15
  20930433.501     1138767.60149    883500.78449  20930433.5774   20930440.3974
  21192901.689    -8249864.63149  -6412889.48549  21192902.7364   21192909.1344
  21382866.907      579884.24149    447178.37249  21382867.2374   21382874.6864
  23869287.327     2560205.59849   1988115.46049  23869290.4034   23869298.8924
  21864560.911    -9162326.39949  -7117503.49349  21864561.6954   21864569.1744
 95  1  9 16 35 29.9990000  0  5  1 25 21 31 15
  20932093.195     1147496.23549    890302.30149  20932094.5214   20932101.3524
  21171957.712    -8359924.65349  -6498650.52049  21171959.0274   21171965.4234
  21383027.585      580740.22449    447845.34749  21383029.8834   21383036.5934
  23874235.901     2586216.96449   2008384.03149  23874238.6204   23874246.0274
  21840952.316    -9286395.91249  -7214181.03249  21840951.7144   21840959.4294
 95  1  9 16 35 59.9990000  0  5  1 25 21 31 15
  20933743.847     1156169.81049    897060.91349  20933745.2074   20933751.9024
  21151036.074    -8469871.69249  -6584323.52449  21151036.7614   21151043.1564
  21383193.370      581610.90349    448523.76549  21383195.9954   21383203.5014
  23879163.623     2612112.02449   2028561.99949  23879166.8034   23879175.3304
  21817363.653    -9410345.66549  -7310765.24749  21817364.9844   21817372.6564
 95  1  9 16 36 29.9990000  0  5  1 25 21 31 15
  20935389.192     1164813.73249    903796.42249  20935390.1024   20935396.9054
  21130138.589    -8579687.13649  -6669893.98649  21130139.4244   21130145.8824
  21383363.827      582505.10349    449220.51149  21383365.4544   21383373.0164
  23884077.555     2637904.65249   2048660.03649  23884075.8724   23884085.1564
  21793806.167    -9534153.51849  -7407238.89849  21793805.1184   21793812.7174
 95  1  9 16 36 59.9990000  0  5  1 25 21 31 15
  20937025.037     1173415.27949    910498.91249  20937027.0474   20937033.5694
  21109267.357    -8689360.77149  -6755353.95349  21109269.3974   21109275.8734
  21383534.393      583397.51749    449915.87049  21383535.6294   21383542.9674
  23888960.572     2663593.62349   2068677.33549  23888962.4374   23888971.8654
  21770274.881    -9657820.33949  -7503602.65049  21770272.0764   21770279.5204
 95  1  9 16 37 29.9990000  0  5  1 25 21 31 15
  20938653.236     1181964.92449    917160.96149  20938653.9384   20938660.6524
  21088427.473    -8798883.48549  -6840696.31949  21088427.5224   21088434.2884
  21383700.836      584270.97349    450596.44249  21383701.5774   21383709.4764
  23893829.470     2689159.00849   2088598.37449  23893829.2524   23893838.4494
  21746762.808    -9781355.21549  -7599863.58849  21746764.1464   21746771.7784
 95  1  9 16 37 59.9990000  0  5  1 25 21 31 15
  20940270.569     1190475.72349    923792.74249  20940273.6544   20940280.3424
  21067620.000    -8908225.03749  -6925897.51349  21067620.8164   21067627.2534
  21383863.788      585131.40449    451266.88749  21383865.6414   21383872.8984
  23898666.578     2714600.11849   2108422.53649  23898671.0904   23898678.4534
  21723281.601    -9904750.76549  -7696015.95949  21723283.0024   21723290.2604
 95  1  9 16 38 29.9990000  0  5  1 25 21 31 15
  20941885.383     1198942.93449    930390.55549  20941884.8934   20941891.6934
  21046845.911    -9017382.08849  -7010954.94549  21046848.8144   21046855.2954
  21384026.461      585983.18649    451930.57349  21384027.7224   21384036.4124
  23903482.461     2739913.10449   2128146.88849  23903487.8514   23903496.1544
  21699825.990   -10028005.54249  -7792058.64349  21699828.6134   21699835.5854
 95  1  9 16 38 59.9990000  0  5  1 25 21 31 15
  20943486.967     1207372.03749    936958.67949  20943488.9894   20943495.8054
  21026110.872    -9126349.79249  -7095864.82849  21026113.0354   21026119.2754
  21384188.286      586836.25949    452595.27149  21384189.7994   21384197.0984
  23908276.682     2765106.24349   2147777.84549  23908281.6984   23908288.1424
  21676401.848   -10151111.70049  -7887985.51349  21676402.0494   21676409.2094
 95  1  9 16 39 29.9990000  0  5  1 25 21 31 15
  20945085.054     1215761.80849    943496.15049  20945085.5034   20945092.4794
  21005413.860    -9235122.75749  -7180622.97249  21005414.3754   21005420.4984
  21384356.726      587712.25749    453277.84449  21384356.8174   21384364.3814
  23913050.414     2790167.83949   2167306.33149  23913050.7194   23913059.4774
  21653000.252   -10274071.58849  -7983798.41249  21653003.5594   21653010.8014
 95  1  9 16 39 59.9990000  0  5  1 25 21 31 15
  20946670.739     1224099.97549    949993.41449  20946672.0664   20946678.9524
  20984749.275    -9343707.33449  -7265234.32149  20984751.3784   20984757.6834
  21384523.885      588602.16749    453971.25349  21384526.4104   21384533.5374
  23917795.074     2815093.65449   2186728.98249  23917793.4194   23917801.1334
  21629629.993   -10396889.16049  -8079500.41249  21629632.2454   21629639.4164
 95  1  9 16 40 29.9990000  0  5  1 25 21 31 15
  20948249.725     1232397.95249    956459.36049  20948251.2514   20948257.9164
  20964122.033    -9452102.79449  -7349698.30549  20964124.2774   20964130.7544
  21384699.845      589511.33749    454679.67549  21384699.2654   21384706.4224
  23922507.770     2839883.70549   2206045.85649  23922511.5114   23922519.7744
  21606287.486   -10519556.13049  -8175085.05949  21606289.3194   21606296.6674
 95  1  9 16 40 59.9990000  0  5  1 25 21 31 15
  20949821.142     1240658.05349    962895.79949  20949823.0504   20949829.8894
  20943532.325    -9560302.85649  -7434010.03749  20943534.1384   20943540.8124
  21384878.229      590449.24249    455410.48149  21384878.0444   21384885.8264
  23927203.873     2864535.41149   2225254.92949  23927202.6914   23927210.2304
  21582975.010   -10642067.11049  -8270548.15549  21582976.3534   21582983.6094
 95  1  9 16 41 29.9990000  0  5  1 25 21 31 15
  20951382.406     1248862.79649    969289.09649  20951384.2044   20951391.0074
  20922978.782    -9668312.82149  -7518173.63949  20922980.4794   20922987.5704
  21385061.011      591417.10849    456164.63149  21385061.5784   21385069.3134
  23931865.571     2889034.69049   2244345.20849  23931865.3664   23931874.2434
  21559692.953   -10764420.16549  -8365888.19549  21559693.3664   21559700.5524
 95  1  9 16 41 59.9990000  0  5  1 25 21 31 15
  20952934.778     1257009.88249    975637.47049  20952934.7814   20952941.5264
  20902458.824    -9776157.30249  -7602208.28149  20902458.6124   20902465.3354
  21385248.877      592409.53049    456937.92349  21385250.5034   21385258.6674
  23936492.377     2913381.32049   2263316.51949  23936498.9994   23936505.9654
  21536439.838   -10886608.96949  -8461100.24249  21536441.5274   21536448.8994
 95  1  9 16 42 29.9980000  0  5  1 25 21 31 15
  20954470.116     1265081.44449    981926.98849  20954470.4014   20954477.3054
  20881965.476    -9883837.39549  -7686114.82749  20881967.9654   20881974.4884
  21385445.340      593429.40149    457732.59349  21385445.1734   21385453.2434
  23941101.562     2937568.29149   2282163.48249  23941099.7554   23941108.2654
  21513223.260   -11008627.68749  -8556179.75749  21513222.2014   21513229.3344
 95  1  9 16 42 59.9980000  0  5  1 25 21 31 15
  20955987.687     1273063.18849    988146.52449  20955989.5884   20955996.3874
  20861507.194    -9991351.69949  -7769892.18949  20861508.5234   20861514.7874
  21385639.860      594463.99849    458538.74649  21385642.2034   21385649.1314
  23945678.973     2961612.62649   2300899.26649  23945676.0694   23945683.8264
  21490034.569   -11130474.40449  -8651125.24849  21490035.7504   21490042.5974
 95  1  9 16 43 29.9980000  0  5  1 25 21 31 15
  20957489.584     1280964.92649    994303.71149  20957492.9404   20957500.1304
  20841081.742   -10098690.89149  -7853533.09949  20841082.6034   20841089.0254
  21385838.494      595499.90849    459345.92449  21385838.4874   21385846.7454
  23950224.531     2985522.71249   2319530.48849  23950226.0534   23950234.5934
  21466882.084   -11252139.90849  -8745929.53449  21466883.3424   21466890.4124
 95  1  9 16 43 59.9980000  0  5  1 25 21 31 15
  20958983.026     1288798.29949   1000407.62549  20958983.7714   20958990.6814
  20820693.425   -10205827.77749  -7937016.36849  20820695.1004   20820701.4194
  21386036.164      596538.03549    460154.81349  21386036.2754   21386044.5044
  23954751.895     3009310.04849   2338065.94749  23954752.0834   23954760.9024
  21443765.758   -11373616.95149  -8840586.96549  21443767.0664   21443774.3684
 95  1  9 16 44 29.9980000  0  5  1 25 21 31 15
  20960460.127     1296559.35649   1006455.18949  20960460.7124   20960467.6724
  20800350.769   -10312728.87949  -8020315.91449  20800352.6674   20800358.8184
  21386233.964      597569.19149    460958.27649  21386232.9004   21386240.0864
  23959256.461     3032981.31149   2356511.02749  23959257.4484   23959264.5684
  21420684.619   -11494901.57949  -8935094.46349  21420687.2004   21420694.6124
 95  1  9 16 44 59.9980000  0  5  1 25 21 31 15
  20961923.288     1304256.50049   1012452.94749  20961925.4074   20961932.3674
  20780053.185   -10419395.62449  -8103432.84449  20780054.4954   20780060.6044
  21386422.696      598586.62049    461751.05049  21386426.6494   21386434.3514
  23963740.706     3056528.16949   2374859.22149  23963738.4634   23963745.7814
  21397641.641   -11615997.53449  -9029454.93849  21397643.6144   21397650.9554
 95  1  9 16 45 29.9980000  0  5  1 25 21 31 15
  20963377.897     1311899.85949   1018408.79449  20963379.7314   20963386.8194
  20759801.006   -10525821.25849  -8186361.89549  20759802.4814   20759808.8444
  21386622.105      599617.81349    462554.55249  21386622.7984   21386629.8474
  23968192.414     3079942.75149   2393104.26549  23968192.9284   23968202.0374
  21374635.822   -11736895.76949  -9123661.34849  21374637.5074   21374644.6674
 95  1  9 16 45 59.9980000  0  5  1 25 21 31 15
  20964818.324     1319454.64449   1024295.62249  20964817.6224   20964824.6684
  20739592.125   -10632021.69649  -8269115.46949  20739592.8614   20739599.5574
  21386820.219      600659.09949    463365.92449  21386821.1594   21386828.2894
  23972620.628     3103202.89049   2411228.97049  23972619.6574   23972628.6104
  21351667.124   -11857606.11349  -9217721.34349  21351666.9864   21351674.4614
 95  1  9 16 46 29.9980000  0  5  1 25 21 31 15
  20966235.931     1326914.22949   1030108.26749  20966237.1204   20966244.1294
  20719420.185   -10738023.84149  -8351714.52349  20719421.5434   20719428.2014
  21387016.066      601703.50349    464179.72049  21387018.9304   21387028.3534
  23977003.947     3126289.77749   2429218.76149  23977012.6584   23977022.1524
  21328731.229   -11978131.23749  -9311637.01549  21328731.7894   21328739.2374
 95  1  9 16 46 59.9980000  0  5  1 25 21 31 15
  20967636.417     1334285.64449   1035852.20849  20967639.8524   20967646.8094
  20699285.874   -10843840.53949  -8434169.08249  20699285.3464   20699291.8324
  21387219.485      602767.27249    465008.58349  21387222.2454   21387229.2164
  23981371.580     3149199.41749   2447070.35149  23981372.3394   23981381.7124
  21305832.820   -12098465.38149  -9405403.87549  21305833.0484   21305840.4044
 95  1  9 16 47 29.9980000  0  5  1 25 21 31 15
  20969028.402     1341580.32549   1041536.35149  20969027.9834   20969034.8884
  20679184.725   -10949461.75549  -8516471.31549  20679186.2254   20679192.5974
  21387430.553      603871.83849    465869.26449  21387432.3534   21387440.0794
  23985700.542     3171947.19849   2464795.78749  23985701.3774   23985710.1094
  21282972.419   -12218596.99549  -9499012.91849  21282972.7664   21282980.2104
 95  1  9 16 47 59.9980000  0  5  1 25 21 31 15
  20970404.828     1348824.15549   1047180.87549  20970406.4404   20970413.3074
  20659129.030   -11054861.81849  -8598601.22049  20659129.4124   20659135.6394
  21387652.985      605038.07349    466777.97649  21387654.2804   21387662.7604
  23990000.611     3194552.81049   2482410.49549  23990003.2924   23990011.6844
  21260152.451   -12338508.29849  -9592450.28949  21260154.2704   21260161.9044
 95  1  9 16 48 29.9980000  0  5  1 25 21 31 15
  20971780.897     1356050.79749   1052812.00449  20971781.5464   20971788.8034
  20639116.679   -11160019.49349  -8680542.25649  20639118.5174   20639124.7994
  21387888.427      606277.15049    467743.47149  21387890.1664   21387896.8654
  23994283.109     3217032.24749   2499926.87949  23994279.1324   23994287.6484
  21237380.040   -12458183.48149  -9685703.67849  21237380.9534   21237388.3894
 95  1  9 16 48 59.9980000  0  5  1 25 21 31 15
  20973152.911     1363256.07749   1058426.48849  20973152.8914   20973159.7314
  20619155.308   -11264917.04749  -8762280.59949  20619157.1814   20619163.3114
  21388138.785      607583.94249    468761.72949  21388138.4334   21388147.2334
  23998534.236     3239383.13849   2517343.07549  23998535.2464   23998542.6024
  21214651.311   -12577620.69049  -9778771.62549  21214652.6434   21214660.1194
 95  1  9 16 49 29.9980000  0  5  1 25 21 31 15
  20974517.167     1370435.93449   1064021.16649  20974518.9734   20974526.0054
  20599245.421   -11369547.21849  -8843810.59549  20599246.5924   20599252.8194
  21388395.639      608936.42649    469815.56449  21388396.4884   21388404.5814
  24002755.264     3261589.57649   2534646.75049  24002758.9564   24002768.2114
  21191968.566   -12696820.11149  -9871654.28649  21191969.6704   21191977.5284
 95  1  9 16 49 59.9980000  0  5  1 25 21 31 15
  20975873.970     1377568.79849   1069579.22349  20975876.3034   20975883.5704
  20579383.135   -11473913.60849  -8925135.04749  20579386.2294   20579392.5154
  21388652.222      610299.24349    470877.47649  21388654.7504   21388661.9684
  24006950.044     3283618.22649   2551811.81849  24006951.0684   24006959.2324
  21169330.187   -12815785.69349  -9964354.73749  21169331.4254   21169339.1874
 95  1  9 16 50 29.9980000  0  5  1 25 21 31 15
  20977218.562     1384635.98849   1075086.10549  20977221.2634   20977228.3354
  20559574.906   -11578014.54449  -9006252.64449  20559576.4374   20559582.9364
  21388919.528      611661.76049    471939.15349  21388915.2454   21388923.1434
  24011102.919     3305453.42449   2568826.16249  24011106.6724   24011113.6484
  21146734.891   -12934513.57249 -10056869.96149  21146738.2914   21146745.9024
 95  1  9 16 50 59.9980000  0  5  1 25 21 31 15
  20978549.371     1391632.02849   1080537.54649  20978552.6334   20978559.6304
  20539817.311   -11681841.29649  -9087156.59649  20539818.9114   20539825.2384
  21389175.139      613039.09449    473012.36649  21389176.8084   21389186.2964
  24015224.422     3327096.79549   2585691.07549  24015224.7444   24015234.4704
  21124189.155   -13052993.12749 -10149191.69349  21124192.3064   21124200.1014
 95  1  9 16 51 29.9980000  0  5  1 25 21 31 15
  20979867.857     1398551.73049   1085929.50549  20979869.7024   20979876.4274
  20520109.218   -11785403.26349  -9167854.22749  20520111.9394   20520118.1014
  21389443.899      614452.98949    474114.04949  21389445.9484   21389453.3234
  24019304.360     3348549.62749   2602407.46449  24019308.4894   24019317.4694
  21101693.396   -13171224.90449 -10241320.35149  21101693.6594   21101701.2434
 95  1  9 16 51 59.9980000  0  5  1 25 21 31 15
  20981169.202     1405396.41249   1091263.01149  20981172.0784   20981178.8924
  20500453.843   -11888702.40549  -9248347.05549  20500454.5884   20500461.1864
  21389727.700      615937.62549    475270.88749  21389728.6704   21389736.4004
  24023357.639     3369825.61849   2618986.15649  24023357.8744   24023363.8674
  21079242.909   -13289203.37549 -10333251.62949  21079243.2514   21079250.4514
 95  1  9 16 52 29.9980000  0  5  1 25 21 31 15
  20982459.983     1412177.48749   1096546.94849  20982462.2464   20982469.3144
  20480843.305   -11991745.57749  -9328640.42149  20480846.1784   20480852.4384
  21390028.196      617520.31249    476504.11249  21390029.1994   21390038.1804
  24027376.154     3390948.56449   2635445.53349  24027377.2984   24027384.8434
  21056840.169   -13406928.06549 -10424985.15849  21056840.9424   21056848.0844
 95  1  9 16 52 59.9980000  0  5  1 25 21 31 15
  20983742.475     1418906.73049   1101790.49849  20983743.0774   20983749.8154
  20461284.390   -12094537.38649  -9408737.93149  20461285.6324   20461291.6644
  21390347.766      619201.46349    477814.06649  21390350.5154   21390357.3124
  24031365.926     3411930.63749   2651795.11049  24031367.7214   24031379.8204
  21034485.383   -13524397.23549 -10516519.58249  21034487.2874   21034494.3954
 95  1  9 16 53 29.9980000  0  5  1 25 21 31 15
  20985017.213     1425606.78749   1107011.30649  20985017.7834   20985024.8584
  20441771.011   -12197079.05549  -9488640.52349  20441772.6354   20441778.6854
  21390689.957      620989.51249    479207.34049  21390689.9064   21390697.3264
  24035336.614     3432782.29449   2668043.03649  24035337.1054   24035346.8844
  21012182.549   -13641596.20849 -10607843.45649  21012185.0674   21012192.3644
 95  1  9 16 53 59.9980000  0  5  1 25 21 31 15
  20986286.264     1432276.37349   1112208.37549  20986287.2594   20986294.0734
  20422303.988   -12299372.76249  -9568349.89849  20422306.6694   20422312.9204
  21391043.164      622856.22549    480661.88949  21391044.8454   21391053.2654
  24039277.213     3453490.54549   2684179.20149  24039278.2504   24039286.1714
  20989931.334   -13758527.45749 -10698958.71549  20989933.8564   20989941.1974
 95  1  9 16 54 29.9980000  0  5  1 25 21 31 15
  20987543.202     1438889.87049   1117361.74149  20987545.5474   20987552.6394
  20402887.077   -12401413.59949  -9647862.23049  20402888.8264   20402895.2534
  21391406.278      624758.09449    482143.82349  21391407.2724   21391415.6914
  24043184.214     3474027.49649   2700181.97449  24043187.2634   24043194.4334
  20967730.183   -13875198.80449 -10789871.45549  20967732.1764   20967739.2774
 95  1  9 16 54 59.9980000  0  5  1 25 21 31 15
  20988790.863     1445446.27349   1122470.61949  20988793.3534   20988800.3894
  20383520.961   -12503185.98649  -9727165.38049  20383522.4484   20383528.3844
  21391776.185      626689.41649    483648.72649  21391774.8034   21391782.1564
  24047054.873     3494373.49349   2716035.97849  24047058.8854   24047065.4604
  20945579.677   -13991600.96549 -10880574.44049  20945581.2494   20945588.4714
 95  1  9 16 55 29.9980000  0  5  1 25 21 31 15
  20990027.117     1451930.26149   1127523.06849  20990027.1834   20990034.2084
  20364205.301   -12604684.84149  -9806255.39049  20364207.8384   20364214.0874
  21392143.192      628653.01549    485178.77749  21392148.0774   21392156.0934
  24050891.562     3514513.11849   2731729.15549  24050890.7054   24050900.4734
  20923481.461   -14107730.47349 -10971064.97349  20923482.7044   20923489.8954
 95  1  9 16 55 59.9980000  0  5  1 25 21 31 15
  20991240.429     1458323.24849   1132504.60649  20991243.7624   20991250.7454
  20344947.321   -12705889.35949  -9885116.04449  20344949.2794   20344955.5674
  21392526.497      630649.48849    486734.43049  21392528.6414   21392537.1654
  24054676.163     3534440.22949   2747256.67749  24054683.1244   24054692.3904
  20901434.159   -14223584.04349 -11061340.48549  20901436.4614   20901443.7414
 95  1  9 16 56 29.9980000  0  6  1 25 21 31 14 15
  20992442.611     1464633.77749   1137421.89149  20992444.5354   20992451.6194
  20325747.802   -12806790.27149  -9963740.12149  20325748.4884   20325754.6944
  21392917.686      632698.27549    488330.85249  21392918.4664   21392926.7674
  24058435.899     3554155.06449   2762618.77749  24058434.3374   24058444.7754
  24157939.174    -5150736.25659  -3989086.50559  24157950.9524   24157961.0534
  20879441.746   -14339152.08049 -11151393.50349  20879444.6064   20879451.6164
 95  1  9 16 56 59.9980000  0  6  1 25 21 31 14 15
  20993629.840     1470871.50249   1142282.44849  20993631.8344   20993638.6454
  20306601.047   -12907401.25649 -10042138.27849  20306602.7814   20306609.0494
  21393317.509      634808.88649    489975.44949  21393319.6554   21393327.6664
  24062147.452     3573668.07049   2777823.59849  24062148.7474   24062156.8884
  24131397.618    -5290239.45849  -4097790.28649  24131406.0214   24131413.1864
  20857503.188   -14454439.08149 -11241227.53449  20857506.2514   20857513.3434
 95  1  9 16 57 29.9980000  0  6  1 25 21 31 14 15
  20994803.226     1477036.04749   1147085.98449  20994804.9364   20994811.5964
  20287512.823   -13007712.29449 -10120302.71649  20287514.3484   20287520.3794
  21393730.033      636977.81249    491665.48249  21393732.8434   21393740.7494
  24065823.792     3593001.03949   2792888.15649  24065826.9454   24065835.4764
  24104809.160    -5430019.22649  -4206709.58449  24104806.2914   24104814.4084
  20835618.993   -14569440.46149 -11330838.99949  20835622.1804   20835629.4804
 95  1  9 16 57 59.9970000  0  6  1 25 21 31 14 15
  20995961.823     1483131.33549   1151835.54749  20995964.5564   20995971.7144
  20268479.843   -13107724.81349 -10198234.54349  20268482.4734   20268488.4824
  21394150.546      639192.51449    493391.19849  21394153.8064   21394162.0754
  24069469.152     3612153.14049   2807811.82449  24069471.5354   24069479.4394
  24078159.644    -5570081.08149  -4315848.64749  24078153.9374   24078161.2834
  20813792.465   -14684154.15049 -11420226.29349  20813792.8884   20813800.0014
 95  1  9 16 58 29.9970000  0  6  1 25 21 31 14 15
  20997112.327     1489172.94749   1156543.28549  20997114.1984   20997121.4904
  20249501.102   -13207456.55349 -10275947.57749  20249503.9384   20249510.1264
  21394583.614      641456.12149    495155.02449  21394585.0004   21394592.7824
  24073077.780     3631138.73249   2822605.72549  24073085.0554   24073093.4414
  24051444.148    -5710450.79649  -4425227.61349  24051440.6994   24051450.9974
  20792016.270   -14798581.84149 -11509390.72949  20792017.8294   20792024.9944
 95  1  9 16 58 59.9970000  0  6  1 25 21 31 14 15
  20998250.455     1495149.85549   1161200.59849  20998251.3934   20998258.6494
  20230577.774   -13306903.89749 -10353439.00749  20230579.9284   20230585.9524
  21395024.257      643768.84849    496957.12449  21395025.3014   21395032.6294
  24076665.407     3649962.26949   2837273.31449  24076666.3134   24076675.9744
  24024671.070    -5851133.51249  -4534850.46949  24024670.6524   24024680.2984
  20770296.627   -14912714.00749 -11598324.88349  20770299.3504   20770306.7354
 95  1  9 16 59 29.9970000  0  6  1 25 21 31 14 15
  20999374.031     1501054.91949   1165801.92649  20999375.4394   20999382.4844
  20211706.911   -13406074.95349 -10430715.14849  20211708.2344   20211714.2684
  21395473.408      646142.71749    498806.87249  21395476.5174   21395484.7194
  24080212.648     3668599.07949   2851795.39149  24080213.2784   24080222.2764
  23997840.927    -5992134.34149  -4644721.21349  23997838.0914   23997847.4544
  20748637.522   -15026546.23149 -11687025.31949  20748637.8694   20748645.1894
 95  1  9 16 59 59.9970000  0  6  1 25 21 31 14 15
  21000486.558     1506906.80649   1170361.82249  21000488.9144   21000496.0374
  20192887.504   -13504971.91149 -10507777.70349  20192888.7824   20192894.9384
  21395940.417      648597.83849    500719.92549  21395944.2474   21395952.0234
  24083721.299     3687041.24949   2866165.83649  24083722.7314   24083731.6094
  23970958.726    -6133424.61249  -4754817.50549  23970952.5124   23970961.2714
  20727033.428   -15140069.12449 -11775484.71949  20727035.0944   20727042.5344
 95  1  9 17  0 29.9970000  0  5  1 25 21 31 15
  21001589.729     1512694.82349   1174871.94449  21001590.3194   21001597.5514
  20174124.076   -13603577.30849 -10584613.06549  20174124.8364   20174131.0244
  21396426.138      651133.93749    502696.07049  21396426.6094   21396434.5894
  24087189.454     3705275.59949   2880374.36449  24087192.5484   24087202.0624
  20705490.685   -15253284.36149 -11863704.38549  20705491.1824   20705498.1514
 95  1  9 17  0 59.9970000  0  6  1 25 21 31 14 15
  21002678.666     1518419.39249   1179332.62549  21002679.7924   21002686.8554
  20155417.889   -13701875.27649 -10661208.87549  20155419.5274   20155425.5904
  21396923.446      653744.86649    504730.51949  21396923.6884   21396931.6724
  24090618.783     3723291.71849   2894412.79949  24090620.6734   24090629.2644
  23917029.916     -136909.35519
  20684001.971   -15366193.92649 -11951685.86549  20684005.2304   20684012.2594
 95  1  9 17  1 29.9970000  0  6  1 25 21 31 14 15
  21003756.302     1524087.56949   1183749.36749  21003758.5014   21003765.7824
  20136771.800   -13799856.15049 -10737557.59349  20136774.1474   20136780.4464
  21397431.001      656433.77949    506825.74149  21397435.3564   21397443.0494
  24094007.958     3741090.38349   2908281.80149  24094007.9594   24094016.8964
  23890004.440     -278937.96659   -185456.47359  23890003.1114   23890009.5604
  20662575.810   -15478794.83349 -12039426.82949  20662577.6334   20662585.1864
 95  1  9 17  1 59.9970000  0  6  1 25 21 31 14 15
  21004827.368     1529713.64549   1188133.30249  21004828.9684   21004836.2354
  20118193.973   -13897484.20649 -10813631.38649  20118196.0984   20118202.4894
  21397961.358      659210.65749    508989.50349  21397963.6364   21397972.5964
  24097359.168     3758707.68649   2922009.49849  24097360.5124   24097370.2744
  23862937.380     -421152.83649   -296273.18649  23862939.7474   23862947.8934
  20641211.620   -15591061.97349 -12126907.71749  20641213.9464   20641221.3824
 95  1  9 17  2 29.9970000  0  6  1 25 21 31 14 15
  21005896.396     1535330.08349   1192509.72949  21005897.8164   21005905.1234
  20099693.696   -13994706.28349 -10889388.82649  20099695.4284   20099701.6424
  21398515.932      662120.91649    511257.21449  21398518.0574   21398525.3434
  24100690.361     3776196.03749   2935636.65949  24100688.5814   24100698.2534
  23835851.500     -563515.03549   -407204.74149  23835849.8334   23835857.4464
  20619923.117   -15702942.28349 -12214087.17549  20619923.9094   20619931.3444
 95  1  9 17  2 59.9970000  0  5  1 25 21 14 15
  21006950.796     1540853.17849   1196813.41849  21006949.1224   21006956.1944
  20081249.836   -14091621.97349 -10964907.53149  20081252.7764   20081259.2324
  21399081.208      665110.81749    513586.99249  21399086.4104   21399094.2404
  23808707.496     -706116.56049   -518322.78749  23808713.1094   23808720.5524
  20598692.185   -15814508.70449 -12301022.04749  20598693.6424   20598701.0084
 95  1  9 17  3 29.9970000  0  5  1 25 21 14 15
  21007978.557     1546263.75249   1201029.43049  21007978.7654   21007985.8534
  20062867.158   -14188235.01849 -11040190.40849  20062867.8674   20062874.3124
  21399670.321      668185.59049    515982.88149  21399671.5384   21399679.7914
  23781525.958     -848971.81949   -629638.55649  23781528.5424   23781536.3674
  20577522.718   -15925757.24849 -12387709.22649  20577523.8274   20577531.0574
 95  1  9 17  3 59.9970000  0  5  1 25 21 14 15
  21008985.479     1551566.51849   1205161.43049  21008987.6104   21008995.1524
  20044538.641   -14284546.16649 -11115238.04049  20044540.7544   20044546.9254
  21400270.627      671336.05949    518437.76649  21400271.0644   21400278.7604
  23754288.701     -992088.87949   -741158.30649  23754294.4824   23754301.9794
  20556413.103   -16036683.33349 -12474145.14049  20556415.1324   20556422.5644
 95  1  9 17  4 29.9970000  0  5  1 25 21 14 15
  21009976.920     1556772.98749   1209218.40049  21009978.4134   21009985.5924
  20026268.606   -14380555.46449 -11190050.46349  20026270.7504   20026276.8874
  21400884.599      674571.09649    520958.55749  21400886.5924   21400894.2084
  23727009.171    -1135475.78249   -852888.32949  23727008.8344   23727016.1504
  20535368.160   -16147284.82749 -12560328.12849  20535368.5964   20535375.9244
 95  1  9 17  4 59.9970000  0  5  1 25 21 14 15
  21010950.840     1561898.45649   1213212.24749  21010953.9374   21010960.8874
  20008056.567   -14476259.06649 -11264624.68449  20008058.8824   20008065.1864
  21401516.464      677890.05949    523544.74349  21401518.5454   21401525.8344
  23699675.550    -1279128.54049   -964825.52049  23699673.0444   23699679.7484
  20514381.629   -16257557.28349 -12646254.71949  20514384.3624   20514391.7734
 95  1  9 17  5 29.9970000  0  5  1 25 21 14 15
  21011914.436     1566952.45349   1217150.40549  21011915.6524   21011922.6494
  19989903.991   -14571656.31549 -11338960.18749  19989905.4634   19989911.6054
  21402158.346      681255.80149    526167.38749  21402159.0014   21402166.9074
  23672282.196    -1423040.50549  -1076964.69749  23672287.1284   23672294.8194
  20493464.616   -16367494.87149 -12731920.37549  20493463.8594   20493471.3144
 95  1  9 17  5 59.9970000  0  5  1 25 21 14 15
  21012863.162     1571949.90749   1221044.50849  21012866.5664   21012873.5044
  19971807.203   -14666749.92049 -11413059.08749  19971809.6034   19971815.8894
  21402804.027      684666.65049    528825.15649  21402807.0794   21402816.6124
  23644851.292    -1567218.03849  -1189310.80849  23644851.3604   23644858.2374
  20472604.851   -16477094.16249 -12817322.42149  20472607.7334   20472615.3424
 95  1  9 17  6 29.9970000  0  5  1 25 21 14 15
  21013802.038     1576878.93149   1224885.28749  21013804.5014   21013811.6664
  19953770.359   -14761535.67349 -11486918.10149  19953772.5284   19953778.7014
  21403465.377      688135.01949    531527.75049  21403467.6474   21403476.3074
  23617359.859    -1711676.31949  -1301875.68849  23617361.4704   23617368.5104
  20451814.275   -16586352.75949 -12902458.99749  20451816.4684   20451824.0244
 95  1  9 17  6 59.9970000  0  5  1 25 21 14 15
  21014729.883     1581735.76949   1228669.81449  21014729.0904   21014735.7544
  19935793.618   -14856001.97649 -11560528.19749  19935796.0784   19935802.3744
  21404137.530      691654.49849    534270.17649  21404137.8924   21404146.0424
  23589818.823    -1856420.38849  -1414663.26149  23589817.7224   23589823.9954
  20431090.135   -16695264.32749 -12987325.15749  20431091.5874   20431098.6514
 95  1  9 17  7 29.9970000  0  5  1 25 21 14 15
  21015636.224     1586515.26349   1232394.07249  21015638.5764   21015645.3224
  19917878.555   -14950146.51249 -11633887.56649  19917880.9364   19917887.2214
  21404816.450      695235.17549    537060.27649  21404818.4014   21404827.7384
  23562215.172    -2001453.52949  -1527676.09349  23562218.7174   23562225.2414
  20410431.023   -16803829.17449 -13071921.15049  20410432.4504   20410439.5934
 95  1  9 17  7 59.9970000  0  5  1 25 21 14 15
  21016533.053     1591230.53449   1236068.28949  21016535.6354   21016542.6354
  19900030.418   -15043938.52149 -11706972.23249  19900032.9914   19900039.2944
  21405520.815      698929.55049    539938.98049  21405522.7594   21405529.5394
  23534563.357    -2146759.59049  -1640901.58249  23534567.7614   23534575.2784
  20389839.043   -16912031.20749 -13156234.42949  20389842.4024   20389849.4774
 95  1  9 17  8 29.9970000  0  5  1 25 21 14 15
  21017417.400     1595885.85549   1239695.78949  21017421.5254   21017428.7124
  19882250.926   -15137370.57449 -11779776.41949  19882253.5444   19882259.7154
  21406241.821      702742.53249    542910.12549  21406247.2914   21406256.5714
  23506869.482    -2292300.38049  -1754309.96549  23506872.5174   23506879.4164
  20369321.642   -17019863.42549 -13240259.54349  20369322.3544   20369329.6624
 95  1  9 17  8 59.9970000  0  5  1 25 21 14 15
  21018295.996     1600488.73749   1243282.43149  21018297.6384   21018304.4964
  19864539.425   -15230451.04549 -11852306.65249  19864540.9334   19864547.1754
  21406994.964      706671.75049    545971.80949  21406995.6194   21407004.8944
  23479142.601    -2438039.61149  -1867872.99249  23479138.5464   23479145.8904
  20348872.152   -17127322.26549 -13323993.71049  20348873.6734   20348881.0304
 95  1  9 17  9 29.9970000  0  5  1 25 21 14 15
  21019158.129     1605028.99249   1246820.26849  21019161.7714   21019168.4924
  19846892.024   -15323183.93849 -11924566.04249  19846894.4114   19846900.7224
  21407765.290      710722.79549    549128.43649  21407766.4054   21407774.7134
  23451373.023    -2583947.23749  -1981567.22449  23451372.6614   23451381.8554
  20328494.554   -17234401.32349 -13407431.94449  20328497.1914   20328504.5824
 95  1  9 17  9 59.9970000  0  5  1 25 21 14 15
  21020010.457     1609497.10149   1250301.88849  21020011.8624   21020018.9584
  19829313.314   -15415563.38549 -11996550.02049  19829315.2264   19829321.4204
  21408553.708      714876.36549    552364.95849  21408557.0024   21408564.8784
  23423582.041    -2730017.51449  -2095388.17149  23423575.7874   23423585.4794
  20308191.654   -17341102.39649 -13490575.64249  20308192.5554   20308199.9754
 95  1  9 17 10 29.9970000  0  5  1 25 21 14 15
  21020850.445     1613901.67149   1253733.99349  21020849.7354   21020856.9814
  19811804.131   -15507572.29149 -12068245.26649  19811806.4144   19811812.7914
  21409362.962      719126.68849    555676.87249  21409365.7474   21409374.7034
  23395745.371    -2876240.43649  -2209328.07549  23395752.5404   23395759.8094
  20287960.134   -17447411.14149 -13573413.63449  20287962.8424   20287970.0194
 95  1  9 17 10 59.9970000  0  5  1 25 21 14 15
  21021671.354     1618228.29549   1257105.37049  21021673.3394   21021680.1424
  19794367.079   -15599203.98249 -12139646.57549  19794369.4694   19794375.8184
  21410189.983      723469.99549    559061.24349  21410192.5964   21410199.6294
  23367876.188    -3022650.03249  -2323413.44749  23367891.2674   23367898.3364
  20267804.546   -17553332.35249 -13655949.64949  20267806.6524   20267814.1104
 95  1  9 17 11 29.9960000  0  5  1 25 21 14 15
  21022479.799     1622475.17749   1260414.60749  21022481.5854   21022488.2834
  19777004.646   -15690447.74849 -12210745.60849  19777006.4764   19777012.7774
  21411034.798      727905.65449    562517.59349  21411036.9934   21411044.6274
  23339983.137    -3169269.33849  -2437662.21149  23339990.5244   23339998.7024
  20247723.316   -17658862.76949 -13738181.14649  20247724.8814   20247732.3544
 95  1  9 17 11 59.9960000  0  5  1 25 21 14 15
  21023275.473     1626658.41649   1263674.24549  21023277.4714   21023284.4524
  19759714.168   -15781308.98749 -12281546.56949  19759716.2604   19759722.4154
  21411897.030      732437.67349    566049.00849  21411898.8054   21411907.3044
  23312045.794    -3316130.10949  -2552099.13749  23312044.6924   23312051.7264
  20227714.304   -17764010.68449 -13820114.59249  20227715.8894   20227723.2844
 95  1  9 17 12 29.9960000  0  5  1 25 21 14 15
  21024061.196     1630773.47249   1266880.76149  21024060.5274   21024067.6404
  19742494.462   -15871802.60649 -12352061.07149  19742496.0554   19742502.0434
  21412777.585      737074.58149    569662.15049  21412781.6414   21412789.6714
  23284043.854    -3463238.95049  -2666729.37749  23284049.6604   23284058.4814
  20207778.579   -17868775.06149 -13901749.17749  20207779.8864   20207787.4084
 95  1  9 17 12 59.9960000  0  5  1 25 21 14 15
  21024829.553     1634830.63049   1270042.16349  21024832.3474   21024839.5864
  19725340.873   -15961940.92549 -12422298.71749  19725342.9744   19725349.2124
  21413682.054      741826.62649    573364.98849  21413685.7174   21413693.9404
  23256015.894    -3610579.05949  -2781539.82749  23256012.3394   23256020.1354
  20187917.846   -17973145.96549 -13983077.15549  20187918.8784   20187926.4324
 95  1  9 17 13 29.9960000  0  5  1 25 21 14 15
  21025592.142     1638840.96749   1273167.07249  21025595.9724   21025602.9634
  19708254.039   -16051730.66949 -12492264.74749  19708256.4614   19708262.9814
  21414610.080      746691.70649    577155.91249  21414611.5994   21414619.8034
  23227933.071    -3758134.91049  -2896518.37349  23227932.6994   23227941.1984
  20168132.036   -18077118.47449 -14064094.69549  20168133.4114   20168140.7244
 95  1  9 17 13 59.9960000  0  5  1 25 21 14 15
  21026346.688     1642807.12749   1276257.56249  21026350.6774   21026357.5554
  19691235.608   -16141167.45049 -12561955.73949  19691237.3524   19691243.6634
  21415559.297      751674.95749    581038.91649  21415559.6694   21415568.7554
  23199812.761    -3905888.07049  -3011650.70349  23199816.5964   23199825.3184
  20148423.914   -18180682.50349 -14144793.94549  20148425.8254   20148433.2414
 95  1  9 17 14 29.9960000  0  5  1 25 21 14 15
  21027093.537     1646720.26249   1279306.73549  21027095.1114   21027102.3694
  19674284.188   -16230239.43249 -12631362.47449  19674287.5494   19674293.6804
  21416528.274      756772.89549    585011.30349  21416529.8304   21416538.2294
  23171661.591    -4053826.68249  -3126927.53249  23171664.7914   23171673.1954
  20128795.572   -18283833.71849 -14225171.52049  20128796.9794   20128804.2604
 95  1  9 17 14 59.9960000  0  5  1 25 21 14 15
  21027829.352     1650578.22649   1282312.92449  21027829.5994   21027836.4864
  19657407.030   -16318937.14049 -12700477.56549  19657408.9734   19657415.1814
  21417515.423      761967.71649    589059.17449  21417518.5574   21417526.9854
  23143477.140    -4201946.87149  -3242345.83849  23143478.0144   23143486.5134
  20109244.806   -18386573.41849 -14305228.43149  20109246.3784   20109253.5374
 95  1  9 17 15 29.9960000  0  5  1 25 21 14 15
  21028549.089     1654373.60849   1285270.33449  21028551.9404   21028558.8764
  19640602.652   -16407243.63649 -12769287.81249  19640604.8214   19640610.9874
  21418522.221      767266.53049    593188.08049  21418526.8704   21418535.2364
  23115255.479    -4350253.34349  -3357909.29849  23115256.7454   23115264.9384
  20089771.721   -18488892.94949 -14384957.93549  20089775.4244   20089782.7394
 95  1  9 17 15 59.9960000  0  5  1 25 21 14 15
  21029260.533     1658105.23849   1288178.07849  21029261.3864   21029268.8884
  19623875.774   -16495143.36149 -12837781.09949  19623878.1104   19623884.2724
  21419557.438      772684.26249    597409.64749  21419557.7614   21419565.8984
  23086997.323    -4498750.07449  -3473621.01349  23086998.5264   23087007.0504
  20070383.152   -18590784.88749 -14464354.25549  20070386.0164   20070393.2754
 95  1  9 17 16 29.9960000  0  5  1 25 21 14 15
  21029958.119     1661769.26249   1291033.14049  21029959.0064   21029965.7404
  19607227.512   -16582635.96149 -12905957.14349  19607228.7864   19607234.9334
  21420607.422      778213.39049    601718.00649  21420609.5884   21420618.9404
  23058698.721    -4647439.11849  -3589482.58449  23058704.1174   23058712.2414
  20051075.370   -18692253.84149 -14543420.97049  20051077.2074   20051084.4024
 95  1  9 17 16 59.9960000  0  6  1 25 21 20 14 15
  21030640.059     1665360.90649   1293831.80849  21030642.7484   21030650.1224
  19590654.241   -16669726.53949 -12973819.92449  19590655.9584   19590662.2114
  21421683.191      783863.80449    606120.87049  21421685.4454   21421692.8704
  23530501.780    -8524795.48659  -6625337.13259  23530501.8304   23530509.4814
  23030372.554    -4796317.13149  -3705491.40549  23030373.1354   23030381.3834
  20031846.606   -18793293.83549 -14622153.43049  20031849.8644   20031857.2034
 95  1  9 17 17 29.9960000  0  6  1 25 21 20 14 15
  21031307.352     1668880.81949   1296574.56849  21031312.3414   21031319.2634
  19574162.544   -16756403.24749 -13041360.20749  19574161.8864   19574168.2564
  21422783.846      789654.94249    610633.42749  21422787.1684   21422795.8814
  23514041.925    -8611261.63049  -6692713.37749  23514046.3194   23514057.2144
  23002007.541    -4945380.61049  -3821644.74349  23002007.6904   23002015.3584
  20012703.341   -18893895.99849 -14700544.72449  20012705.9554   20012713.2904
 95  1  9 17 17 59.9960000  0  6  1 25 21 20 14 15
  21031970.568     1672334.77049   1299265.94149  21031969.5424   21031977.3484
  19557742.640   -16842674.86349 -13108584.82949  19557744.7884   19557751.2654
  21423915.450      795582.53249    615252.26949  21423915.6804   21423923.6144
  23497641.406    -8697451.73049  -6759874.54249  23497644.4344   23497656.0174
  22973604.326    -5094624.98049  -3937939.04549  22973607.4874   22973615.7944
  19993642.512   -18994061.70349 -14778595.91849  19993645.0224   19993652.3794
 95  1  9 17 18 29.9960000  0  6  1 25 21 20 14 15
  21032610.542     1675724.14149   1301906.98749  21032615.1214   21032621.4464
  19541399.917   -16928557.40549 -13175506.28249  19541401.8174   19541408.1224
  21425063.134      801638.46849    619971.14449  21425067.3164   21425075.3564
  23481302.367    -8783350.81949  -6826808.89049  23481299.1304   23481309.1164
  22945176.615    -5244045.20049  -4054370.36449  22945173.5774   22945182.1684
  19974666.143   -19093785.01349 -14856302.39149  19974668.2944   19974675.4524
 95  1  9 17 18 59.9960000  0  6  1 25 21 20 14 15
  21033245.044     1679043.54949   1304493.51049  21033246.4254   21033253.8654
  19525130.040   -17014058.42349 -13242130.44549  19525131.7884   19525138.1364
  21426243.783      807827.80249    624793.93849  21426246.0374   21426254.2634
  23465007.184    -8868945.80349  -6893506.28649  23465010.4304   23465021.8524
  22916695.916    -5393657.26149  -4170951.18149  22916703.2654   22916711.7734
  19955773.196   -19193066.53449 -14933664.61649  19955775.6394   19955782.9204
 95  1  9 17 19 29.9960000  0  6  1 25 21 20 14 15
  21033862.582     1682302.57749   1307032.99449  21033866.5134   21033873.6934
  19508929.687   -17099184.68749 -13308462.58949  19508932.4524   19508938.9224
  21427445.667      814144.89649    629716.30449  21427447.4324   21427456.2584
  23448780.822    -8954225.31549  -6959957.84749  23448784.1574   23448793.1704
  22888191.939    -5543473.01049  -4287690.69949  22888194.4454   22888202.2664
  19936963.813   -19291912.91649 -15010687.76649  19936965.6924   19936973.1904
 95  1  9 17 19 59.9960000  0  6  1 25 21 20 14 15
  21034475.732     1685511.31349   1309533.27749  21034477.3424   21034484.8234
  19492802.028   -17183937.60449 -13374503.82049  19492804.8004   19492811.0204
  21428671.827      820597.54649    634744.28249  21428675.5874   21428684.1814
  23432616.594    -9039179.87449  -7026156.23049  23432616.5894   23432627.1094
  22859644.197    -5693490.27449  -4404587.24749  22859647.2984   22859654.5674
  19918237.980   -19390319.33949 -15087368.09849  19918239.8034   19918247.0684
 95  1  9 17 20 29.9960000  0  6  1 25 21 20 14 15
  21035077.375     1688675.74149   1311999.04549  21035079.4334   21035086.6664
  19476749.636   -17268295.25549 -13440237.05349  19476751.9414   19476758.3704
  21429932.206      827207.75549    639895.04949  21429933.7424   21429941.6604
  23416512.352    -9123808.08249  -7092100.32249  23416512.9784   23416521.7444
  22831060.952    -5843697.48249  -4521631.80949  22831063.4454   22831071.7594
  19899597.222   -19488273.49349 -15163696.00749  19899599.6874   19899606.7654
 95  1  9 17 20 59.9960000  0  6  1 25 21 20 14 15
  21035670.232     1691788.71349   1314424.70449  21035671.7404   21035679.3154
  19460774.218   -17352250.15949 -13505656.45149  19460776.1844   19460782.2984
  21431219.665      833980.89249    645172.77749  21431222.4624   21431230.4244
  23400467.047    -9208119.29849  -7157797.38149  23400468.6154   23400479.1884
  22802444.234    -5994081.14649  -4638813.87249  22802446.7984   22802454.3114
  19881043.695   -19585777.40449 -15239673.08249  19881045.3594   19881052.2994
 95  1  9 17 21 29.9960000  0  6  1 25 21 20 14 15
  21036255.216     1694861.98349   1316819.43549  21036256.6754   21036264.1824
  19444876.812   -17435793.01349 -13570754.77649  19444878.2644   19444884.3504
  21432537.775      840914.75349    650575.75549  21432541.5794   21432549.6764
  23384482.320    -9292115.25849  -7223248.76649  23384484.8674   23384495.1454
  22773803.007    -6144615.19149  -4756113.10749  22773800.3494   22773808.7584
  19862576.382   -19682820.47549 -15315291.06049  19862578.6444   19862585.9604
 95  1  9 17 21 59.9960000  0  6  1 25 21 20 14 15
  21036832.589     1697885.91549   1319175.71949  21036831.9314   21036839.6624
  19429058.250   -17518915.26449 -13635525.35749  19429060.7644   19429066.9244
  21433888.830      847994.16349    656092.12349  21433888.9794   21433896.9084
  23368559.521    -9375795.88349  -7288454.44149  23368561.4234   23368571.3204
  22745126.499    -6295284.10549  -4873517.42049  22745129.7274   22745137.1124
  19844199.971   -19779396.41049 -15390545.03749  19844200.9294   19844208.2084
 95  1  9 17 22 29.9960000  0  6  1 25 21 20 14 15
  21037393.956     1700856.47349   1321490.41049  21037397.4284   21037405.0294
  19413320.795   -17601619.38149 -13699970.12449  19413322.6634   19413328.7494
  21435261.411      855197.02549    661704.72749  21435260.6174   21435268.1644
  23352693.867    -9459159.56949  -7353413.16749  23352697.9704   23352707.3624
  22716436.353    -6446075.06049  -4991016.83249  22716434.7564   22716442.5994
  19825909.510   -19875503.19849 -15465433.45049  19825912.4414   19825919.6344
 95  1  9 17 22 59.9960000  0  6  1 25 21 20 14 15
  21037952.885     1703782.64049   1323770.50649  21037954.2374   21037961.6904
  19397665.370   -17683891.49549 -13764078.26149  19397666.7184   19397672.8774
  21436653.927      862519.77149    667410.75249  21436653.6064   21436661.2304
  23336892.087    -9542200.80549  -7418120.65349  23336895.2574   23336905.0464
  22687714.091    -6596981.85549  -5108606.51349  22687718.4694   22687726.2984
  19807712.860   -19971132.71749 -15539949.95849  19807714.7534   19807721.8704
 95  1  9 17 23 29.9960000  0  6  1 25 21 20 14 15
  21038500.515     1706673.89149   1326023.40749  21038504.5504   21038512.1084
  19382095.233   -17765714.99949 -13827836.83649  19382096.3534   19382102.4394
  21438066.808      869972.90049    673218.32149  21438071.1054   21438079.3904
  23321157.957    -9624918.16149  -7482575.75649  23321155.1384   23321164.2834
  22658974.935    -6748017.17449  -5226296.33749  22658977.4574   22658984.9634
  19789606.316   -20066280.36949 -15614090.99049  19789608.7884   19789615.8334
 95  1  9 17 23 59.9950000  0  6  1 25 21 20 14 15
  21039047.130     1709524.87349   1328244.91449  21039046.8554   21039054.4404
  19366612.835   -17847073.26149 -13891232.88049  19366614.2054   19366620.4214
  21439514.410      877577.88149    679144.23049  21439518.9794   21439527.3734
  23305477.556    -9707299.17149  -7546768.77249  23305478.1904   23305488.2004
  22630210.066    -6899174.52549  -5344081.25249  22630213.3224   22630221.4154
  19771596.206   -20160935.21849 -15687848.02049  19771596.6384   19771603.5934
 95  1  9 17 24 29.9950000  0  6  1 25 21 20 14 15
  21039580.053     1712334.66149   1330434.33049  21039581.7434   21039589.2554
  19351218.619   -17927967.28049 -13954267.18249  19351220.7794   19351226.9164
  21440997.157      885354.58149    685203.95249  21440998.3584   21441006.9094
  23289857.740    -9789356.66749  -7610709.71449  23289863.3914   23289873.3974
  22601417.835    -7050465.05649  -5461969.94549  22601423.3594   22601431.6274
  19753674.280   -20255106.11049 -15761227.94049  19753676.4254   19753683.5534
 95  1  9 17 24 59.9950000  0  6  1 25 21 20 14 15
  21040106.425     1715108.96849   1332596.08349  21040109.7174   21040116.8714
  19335916.151   -18008382.65249 -14016928.51449  19335918.0584   19335924.4644
  21442513.892      893328.36749    691417.24349  21442516.9614   21442525.6484
  23274312.808    -9871068.49149  -7674381.29949  23274314.7354   23274324.7974
  22572604.749    -7201880.56349  -5579956.03149  22572610.0394   22572618.0214
  19735847.248   -20348783.06549 -15834222.97149  19735850.2404   19735857.3754
 95  1  9 17 25 29.9950000  0  6  1 25 21 20 14 15
  21040627.345     1717844.57849   1334727.71249  21040630.5114   21040637.9004
  19320699.892   -18088342.60949 -14079234.97749  19320702.3894   19320708.5594
  21444068.207      901491.70949    697778.21949  21444069.4104   21444078.1734
  23258834.706    -9952418.33349  -7737770.81749  23258834.4034   23258844.1564
  22543769.648    -7353405.38849  -5698027.30249  22543775.3294   22543783.7934
  19718115.844   -20441965.00649 -15906832.28149  19718118.3504   19718125.7174
 95  1  9 17 25 59.9950000  0  6  1 25 21 20 14 15
  21041143.286     1720539.42549   1336827.54549  21041143.2534   21041150.2944
  19305566.681   -18167868.77349 -14141203.42149  19305569.0074   19305575.2244
  21445649.770      909813.63549    704262.78149  21445653.8124   21445661.3804
  23243417.038   -10033403.42149  -7800876.08249  23243422.8584   23243433.0984
  22514922.985    -7505029.28049  -5816175.77049  22514922.5264   22514930.1654
  19700477.306   -20534657.24849 -15979060.00649  19700479.5954   19700486.8584
 95  1  9 17 26 29.9950000  0  6  1 25 21 20 14 15
  21041646.801     1723200.13149   1338900.79949  21041649.4684   21041657.1614
  19290512.551   -18246977.69449 -14202846.73749  19290515.0264   19290521.2324
  21447264.935      918286.10749    710864.71249  21447266.1904   21447274.0884
  23228077.366   -10114012.73649  -7863688.53949  23228083.2524   23228092.9124
  22486050.128    -7656750.87349  -5934400.36149  22486051.2164   22486059.0084
  19682932.473   -20626858.46449 -16050905.11449  19682934.2464   19682941.6974
 95  1  9 17 26 59.9950000  0  6  1 25 21 20 14 15
  21042144.236     1725815.81049   1340938.94549  21042147.7914   21042154.5874
  19275534.105   -18325687.76449 -14264179.25949  19275536.8404   19275543.1144
  21448899.526      926887.50649    717567.06249  21448902.8124   21448912.1284
  23212813.338   -10194250.06049  -7926211.13749  23212814.2744   23212823.8204
  22457153.302    -7808580.40949  -6052709.07449  22457158.7754   22457166.3854
  19665479.025   -20718572.67349 -16122370.73649  19665481.8644   19665488.9294
 95  1  9 17 27 29.9950000  0  6  1 25 21 20 14 15
  21042634.141     1728380.72049   1342937.55449  21042635.5824   21042642.9454
  19260630.979   -18404003.29249 -14325204.34649  19260633.8884   19260640.1114
  21450558.592      935603.19449    724358.44849  21450561.3954   21450569.3154
  23197609.170   -10274135.24549  -7988459.34149  23197612.9454   23197621.7284
  22428244.785    -7960531.55749  -6171112.55549  22428243.1534   22428251.0754
  19648118.307   -20809802.34849 -16193458.79349  19648121.5044   19648128.4924
 95  1  9 17 27 59.9950000  0  6  1 25 21 20 14 15
  21043110.317     1730887.44649   1344890.80749  21043112.4844   21043119.6414
  19245804.570   -18481916.79249 -14385916.16649  19245807.8684   19245813.8854
  21452241.477      944442.13749    731245.84649  21452242.2914   21452252.1124
  23182473.249   -10353681.25349  -8050443.22649  23182476.1784   23182485.5734
  22399296.681    -8112631.41649  -6289631.90149  22399299.6364   22399307.3224
  19630848.633   -20900545.05249 -16264167.39849  19630853.4774   19630860.7194
 95  1  9 17 28 29.9950000  0  6  1 25 21 20 14 15
  21043575.762     1733322.66849   1346788.35349  21043576.3434   21043583.1664
  19231055.113   -18559423.76349 -14446311.21449  19231058.6304   19231064.7904
  21453949.394      953419.09649    738240.81749  21453951.8824   21453960.1864
  23167401.988   -10432898.14349  -8112170.65649  23167401.9524   23167411.4724
  22370323.517    -8264897.14649  -6408280.49649  22370324.4984   22370331.9974
  19613675.357   -20990802.51449 -16334497.89749  19613678.1354   19613685.3154
 95  1  9 17 28 59.9950000  0  7  1 25 21 20 14 15 29
  21044026.998     1735701.58149   1348642.01649  21044028.7434   21044036.0014
  19216390.458   -18636492.67049 -14506364.90649  19216392.8474   19216399.0374
  21455686.281      962540.71249    745348.55649  21455687.2004   21455694.2244
  23152389.013   -10511777.34949  -8173634.94049  23152390.9904   23152400.8144
  22341319.669    -8417323.04749  -6527053.90349  22341318.5954   22341325.9634
  19596593.932   -21080563.62649 -16404441.62449  19596597.1384   19596604.3504
  23391922.890    -3017531.48559  -2333879.02159  23391930.1184   23391939.0404
 95  1  9 17 29 29.9950000  0  7  1 25 21 20 14 15 29
  21044467.330     1738019.81549   1350448.40949  21044469.8914   21044476.8014
  19201809.908   -18713115.67249 -14566071.14249  19201811.6664   19201818.0424
  21457450.483      971817.50649    752577.19649  21457452.2924   21457461.3034
  23137447.977   -10590313.65249  -8234832.02449  23137445.1704   23137456.2764
  22312277.440    -8569920.14349  -6645960.70749  22312280.4314   22312287.9954
  19579608.518   -21169829.43549 -16473999.40349  19579610.4704   19579617.7044
  23365387.657    -3156988.31849  -2442546.64149  23365393.9394   23365401.3544
 95  1  9 17 29 59.9950000  0  7  1 25 21 20 14 15 29
  21044898.322     1740275.41149   1352205.97549  21044898.9654   21044906.4914
  19187312.636   -18789293.68549 -14625430.63449  19187315.6874   19187321.9704
  21459243.618      981255.32949    759931.26449  21459247.8644   21459257.9974
  23122565.577   -10668492.82949  -8295750.83949  23122569.3104   23122578.5164
  22283209.550    -8722677.02449  -6764992.02749  22283211.9044   22283219.5884
  19562716.103   -21258597.58149 -16543169.39549  19562718.3114   19562725.7624
  23338861.741    -3296426.77149  -2551199.90949  23338858.3044   23338867.3244
 95  1  9 17 30 29.9950000  0  7  1 25 21 20 14 15 29
  21045311.215     1742473.97449   1353919.11249  21045317.3964   21045324.8594
  19172905.015   -18865012.65149 -14684432.42549  19172906.8234   19172913.1164
  21461070.561      990848.80849    767406.62249  21461073.8434   21461082.9114
  23107763.851   -10746300.86149  -8356380.46749  23107762.8964   23107771.9894
  22254117.888    -8875568.91149  -6884128.54249  22254117.6014   22254125.0144
  19545919.437   -21346870.42249 -16611953.43649  19545920.8634   19545928.0614
  23312322.285    -3435850.28449  -2659841.57849  23312326.6714   23312334.6214
 95  1  9 17 30 59.9950000  0  7  1 25 21 20 14 15 29
  21045724.953     1744622.92149   1355593.57849  21045726.1324   21045734.1264
  19158582.784   -18940269.53549 -14743074.14849  19158585.9164   19158591.9874
  21462927.462     1000598.84349    775003.99649  21462929.8594   21462938.1264
  23093022.846   -10823726.48049  -8416712.13149  23093029.3284   23093038.8004
  22224996.920    -9028581.64549  -7003359.22649  22225000.3464   22225007.5384
  19529215.902   -21434641.12149 -16680346.19349  19529218.4484   19529225.9104
  23285802.634    -3575253.99649  -2768467.78849  23285799.6294   23285809.2024
 95  1  9 17 31 29.9950000  0  7  1 25 21 20 14 15 29
  21046125.197     1746728.74449   1357234.45149  21046127.0544   21046134.2814
  19144349.605   -19015073.13349 -14801362.66349  19144351.4294   19144357.5964
  21464815.092     1010506.64749    782724.31749  21464815.1014   21464823.1064
  23078366.904   -10900766.77749  -8476743.54549  23078369.5644   23078379.0034
  22195860.504    -9181702.77449  -7122674.37249  22195862.1614   22195869.3314
  19512611.699   -21521901.61549 -16748341.39149  19512613.3304   19512620.5794
  23259282.206    -3714630.30349  -2877072.67749  23259278.0884   23259284.4584
 95  1  9 17 31 59.9950000  0  7  1 25 21 20 14 15 29
  21046520.803     1748796.36849   1358845.55249  21046520.6884   21046528.2464
  19130200.372   -19089435.28449 -14859307.18949  19130200.7224   19130207.0664
  21466724.173     1020549.24049    790549.66949  21466725.8884   21466734.8254
  23063779.106   -10977429.37749  -8536480.65249  23063780.4504   23063790.1274
  22166704.250    -9334916.20349  -7242061.44249  22166706.7184   22166713.5704
  19496100.040   -21608659.43649 -16815944.89149  19496103.9984   19496111.2184
  23232749.142    -3853989.33949  -2985664.03149  23232755.8414   23232765.9114
 95  1  9 17 32 29.9950000  0  7  1 25 21 20 14 15 29
  21046909.239     1750843.96849   1360441.05849  21046910.0854   21046917.8474
  19116132.520   -19163348.30449 -14916901.74649  19116135.4174   19116141.8184
  21468664.235     1030739.80149    798490.28849  21468665.2294   21468673.6894
  23049261.288   -11053708.27749  -8595918.78249  23049265.4534   23049275.4394
  22137532.320    -9488216.42849  -7361516.13649  22137534.2584   22137541.7204
  19479688.433   -21694909.07849 -16883152.40949  19479691.1464   19479698.4244
  23206244.775    -3993329.22949  -3094240.47249  23206243.6774   23206249.6804
 95  1  9 17 32 59.9950000  0  7  1 25 21 20 14 15 29
  21047292.329     1752863.54549   1362014.71749  21047294.3894   21047302.1984
  19102148.279   -19236842.36349 -14974169.84049  19102149.7474   19102156.1924
  21470633.711     1041086.23649    806552.39549  21470634.7004   21470642.6294
  23034822.582   -11129612.61249  -8655065.04349  23034821.1584   23034830.7994
  22108334.671    -9641616.73649  -7481048.81649  22108343.0124   22108350.9494
  19463373.053   -21780652.19849 -16949965.23649  19463374.7714   19463382.2154
  23179727.975    -4132667.97749  -3202816.13749  23179726.3624   23179735.3284
 95  1  9 17 33 29.9950000  0  7  1 25 21 20 14 15 29
  21047672.435     1754867.73649   1363576.39449  21047675.8844   21047683.1854
  19088243.140   -19309908.66749 -15031104.62149  19088246.0664   19088252.2994
  21472632.983     1051604.67849    814748.52549  21472635.5704   21472645.1274
  23020450.550   -11205120.52749  -8713902.42849  23020452.2234   23020462.0074
  22079135.036    -9795096.31149  -7600643.26549  22079136.8284   22079144.1714
  19447154.398   -21865875.72049 -17016373.18149  19447157.3614   19447164.7014
  23153213.846    -4272002.26949  -3311388.20349  23153212.0254   23153220.3944
 95  1  9 17 33 59.9950000  0  7  1 25 21 20 14 15 29
  21048048.171     1756830.96649   1365106.15149  21048049.9324   21048057.4534
  19074420.696   -19382552.26049 -15087710.01549  19074422.5374   19074428.7004
  21474669.093     1062298.74049    823081.49349  21474671.0324   21474680.0684
  23006155.645   -11280235.89249  -8772433.92249  23006159.2714   23006168.6174
  22049917.152    -9948658.50349  -7720302.08449  22049915.2064   22049922.7564
  19431034.703   -21950590.62449 -17082384.80049  19431036.5614   19431044.1334
  23126690.571    -4411357.71749  -3419976.82549  23126694.1334   23126702.8084
 95  1  9 17 34 29.9950000  0  7  1 25 21 20 14 15 29
  21048411.976     1758742.83049   1366595.88649  21048413.5784   21048420.7594
  19060678.521   -19454762.35949 -15143977.62749  19060681.0744   19060687.4374
  21476738.608     1073175.34649    831556.71449  21476740.2674   21476749.0014
  22991937.510   -11354962.55249  -8830662.51449  22991938.3334   22991948.1184
  22020672.698   -10102315.91549  -7840035.10749  22020674.9584   22020682.0844
  19415011.589   -22034792.42049 -17147996.59349  19415013.4284   19415020.9144
  23100169.016    -4550727.25549  -3528576.44449  23100173.5254   23100180.9924
 95  1  9 17 34 59.9950000  0  7  1 25 21 20 14 15 29
  21048763.359     1760589.18449   1368034.57349  21048765.2604   21048772.6214
  19047021.452   -19526535.41849 -15199904.68749  19047023.4134   19047029.5634
  21478835.263     1084208.42749    840153.86749  21478839.9474   21478849.0164
  22977796.215   -11429305.52449  -8888592.15549  22977791.6514   22977802.1024
  21991413.844   -10256065.22749  -7959839.74049  21991417.2784   21991424.8814
  19399086.567   -22118475.83749 -17213204.45749  19399089.2264   19399096.4464
  23073651.358    -4690102.60749  -3637180.54349  23073650.9764   23073659.2874
 95  1  9 17 35 29.9950000  0  7  1 25 21 20 14 15 29
  21049100.913     1762364.58149   1369417.96149  21049103.1584   21049109.9014
  19033448.936   -19597855.23849 -15255478.57449  19033451.5804   19033457.9844
  21480966.150     1095386.60049    848864.07049  21480968.0684   21480976.8154
  22963712.586   -11503267.25949  -8946224.69749  22963717.4634   22963726.6234
  21962143.570   -10409897.83249  -8079709.26649  21962144.1634   21962151.9194
  19383262.175   -22201639.35449 -17278007.19949  19383263.6374   19383270.9414
  23047124.869    -4829466.40549  -3745775.70749  23047130.8694   23047138.9304
 95  1  9 17 35 59.9940000  0  7  1 25 21 20 14 15 29
  21049424.616     1764070.81649   1370747.47349  21049427.4634   21049435.0534
  19019966.034   -19668711.17549 -15310690.99649  19019968.0334   19019974.3234
  21483120.317     1106702.86349    857681.87549  21483121.4714   21483130.0814
  22949711.139   -11576856.93049  -9003567.33749  22949714.3664   22949723.0964
  21932851.502   -10563816.78449  -8199646.08649  21932854.2444   21932861.4054
  19367536.227   -22284275.03449 -17342398.64649  19367538.6444   19367545.8794
  23020615.424    -4968801.42549  -3854348.41349  23020614.9714   23020623.4474
 95  1  9 17 36 29.9940000  0  7  1 25 21 20 14 15 29
  21049736.743     1765709.12349   1372024.03549  21049739.4204   21049746.4854
  19006569.490   -19739110.77849 -15365547.83549  19006571.6784   19006577.6664
  21485293.151     1118153.31549    866604.22549  21485299.3754   21485308.9624
  22935780.534   -11650077.66749  -9060622.49049  22935780.7444   22935789.7204
  21903542.645   -10717835.49749  -8319660.65649  21903545.8854   21903552.6734
  19351912.511   -22366383.89349 -17406379.58049  19351913.8344   19351921.0944
  22994106.514    -5108098.67949  -3962891.68649  22994109.7434   22994116.4394
 95  1  9 17 36 59.9940000  0  7  1 25 21 20 14 15 29
  21050036.387     1767274.06249   1373243.44749  21050036.8694   21050044.2474
  18993256.227   -19809070.66349 -15420062.03649  18993258.8524   18993264.9884
  21487503.271     1129744.72349    875636.43249  21487505.3124   21487513.6024
  22921916.262   -11722922.53849  -9117384.75249  22921918.0814   22921927.9324
  21874214.832   -10871949.05649  -8439749.11949  21874218.4944   21874225.9954
  19336385.639   -22447970.51249 -17469953.57449  19336388.3904   19336395.9274
  22967604.812    -5247364.66749  -4071410.65549  22967607.7034   22967614.7834
 95  1  9 17 37 29.9940000  0  7  1 25 21 20 14 15 29
  21050322.682     1768775.85949   1374413.64449  21050322.6364   21050330.6994
  18980028.329   -19878583.41349 -15474227.82549  18980030.9554   18980037.1284
  21489740.300     1141497.89449    884794.73049  21489742.9414   21489750.2824
  22908127.143   -11795381.21049  -9173846.07949  22908129.8984   22908139.8184
  21844868.564   -11026168.63049  -8559920.19249  21844871.5864   21844878.9144
  19320959.868   -22529035.65549 -17533121.22749  19320962.3044   19320969.6664
  22941102.471    -5386605.64449  -4179910.05849  22941110.4194   22941118.1044
 95  1  9 17 37 59.9940000  0  7  1 25 21 20 14 15 29
  21050597.947     1770225.98549   1375543.58349  21050599.1724   21050605.9584
  18966886.273   -19947645.73849 -15528042.63449  18966888.8824   18966894.9284
  21492008.307     1153420.60849    894085.14049  21492011.7144   21492020.3744
  22894415.932   -11867445.25449  -9229999.90949  22894416.2454   22894426.3484
  21815504.191   -11180500.94949  -8680179.11849  21815503.2104   21815510.7214
  19305633.761   -22609575.91749 -17595879.88549  19305636.0864   19305643.3554
  22914613.978    -5525830.20449  -4288396.71249  22914618.0424   22914624.2314
 95  1  9 17 38 29.9940000  0  7  1 25 21 20 14 15 29
  21050865.338     1771626.28949   1376634.69549  21050864.7904   21050873.4714
  18953828.409   -20016267.09949 -15581513.83349  18953830.6504   18953836.8464
  21494307.136     1165506.74049    903502.87049  21494310.5584   21494319.4734
  22880780.330   -11939106.43149  -9285839.77149  22880780.3654   22880790.0874
  21786107.552   -11334948.39549  -8800527.76049  21786112.8864   21786119.6684
  19290406.296   -22689598.08749 -17658234.82849  19290408.2884   19290415.7294
  22888120.100    -5665046.60549  -4396877.00349  22888125.1504   22888133.0974
 95  1  9 17 38 59.9940000  0  7  1 25 21 20 14 15 29
  21051123.617     1773006.73849   1377710.32649  21051128.1804   21051135.0574
  18940858.730   -20084422.27549 -15634621.77049  18940861.1184   18940867.5114
  21496641.460     1177780.10549    913066.43949  21496646.4784   21496655.9364
  22867222.210   -12010337.93649  -9341344.85349  22867225.2364   22867235.4664
  21756701.875   -11489493.76049  -8920952.70549  21756703.7964   21756711.2714
  19275280.905   -22769083.15449 -17720171.25749  19275282.8604   19275290.1004
  22861643.297    -5804239.66049  -4505339.04749  22861637.4144   22861644.1334
 95  1  9 17 39 29.9940000  0  7  1 25 21 20 14 15 29
  21051379.171     1774354.69249   1378760.66249  21051384.5754   21051392.4974
  18927977.053   -20152118.93049 -15687372.41749  18927978.8154   18927985.2924
  21499011.013     1190216.53449    922757.08949  21499013.6284   21499021.4584
  22853749.013   -12081147.43449  -9396521.10349  22853750.4504   22853760.2934
  21727272.195   -11644141.45149  -9041457.39349  21727275.2494   21727283.0274
  19260256.154   -22848038.79749 -17781695.14349  19260258.0894   19260265.3664
  22835142.920    -5943416.66249  -4613788.67349  22835152.0934   22835161.2764
 95  1  9 17 39 59.9940000  0  7  1 25 21 20 14 15 29
  21051631.796     1775665.10949   1379781.72049  21051634.4514   21051641.6784
  18915180.355   -20219361.68749 -15739769.38049  18915182.9454   18915189.2844
  21501407.958     1202815.17149    932574.18649  21501411.1534   21501418.9004
  22840355.294   -12151527.95349  -9451363.08149  22840357.4834   22840367.6984
  21697828.371   -11798861.40849  -9162018.38649  21697833.0194   21697840.7154
  19245333.994   -22926456.55649 -17842799.89949  19245335.7454   19245343.0404
  22808677.298    -6082557.55549  -4722210.02349  22808673.6624   22808682.9484
 95  1  9 17 40 29.9940000  0  7  1 25 21 20 14 15 29
  21051871.195     1776935.60149   1380771.69449  21051876.0704   21051883.5604
  18902471.730   -20286149.30549 -15791811.68849  18902473.8174   18902480.0494
  21503840.437     1215585.27249    942524.91249  21503841.3724   21503848.0334
  22827048.019   -12221471.95449  -9505864.90349  22827047.6014   22827057.6354
  21668379.944   -11953640.31649  -9282625.31449  21668379.8334   21668387.3974
  19230514.564   -23004333.72749 -17903483.42149  19230516.0864   19230523.3414
  22782205.541    -6221656.20149  -4830598.65049  22782206.3484   22782213.1294
 95  1  9 17 40 59.9940000  0  7  1 25 21 20 14 15 29
  21052104.831     1778155.97349   1381722.58949  21052108.1754   21052116.3904
  18889849.277   -20352477.99349 -15843496.38449  18889851.9654   18889858.0084
  21506302.998     1228543.88849    952622.50049  21506306.5114   21506315.6734
  22813819.015   -12290977.36149  -9560024.96749  22813822.1544   22813831.3624
  21638917.578   -12108469.13349  -9403271.12849  21638916.6624   21638924.1754
  19215799.366   -23081663.65349 -17963740.51549  19215800.7724   19215808.1024
  22755736.923    -6360717.18349  -4938957.79349  22755742.8034   22755752.2754
 95  1  9 17 41 29.9940000  0  7  1 25 21 20 14 15 29
  21052325.479     1779316.21549   1382626.63949  21052328.9994   21052336.1624
  18877311.822   -20418361.50149 -15894834.18649  18877314.6254   18877320.8284
  21508803.528     1241669.03649    962849.79749  21508804.1434   21508813.1964
  22800674.874   -12360060.69949  -9613856.14849  22800675.5044   22800685.0944
  21609444.982   -12263348.80149  -9523956.56649  21609444.3474   21609451.6974
  19201185.462   -23158453.21849 -18023576.54749  19201188.2454   19201195.6064
  22729282.658    -6499754.54149  -5047298.51349  22729284.6434   22729293.2444
 95  1  9 17 41 59.9940000  0  7  1 25 21 20 14 15 29
  21052536.894     1780422.44249   1383488.60049  21052539.4064   21052547.3304
  18864861.848   -20483795.69649 -15945821.87349  18864862.8434   18864869.0984
  21511336.970     1254967.01849    973211.79749  21511335.9614   21511344.3824
  22787607.940   -12428732.38049  -9667366.54249  22787607.3244   22787616.9404
  21579963.234   -12418285.40649  -9644686.36549  21579960.7864   21579967.8504
  19186676.363   -23234705.98949 -18082994.29749  19186677.9244   19186685.0704
  22702834.651    -6638769.28849  -5155621.69049  22702832.8444   22702837.6454
 95  1  9 17 42 29.9940000  0  7  1 25 21 20 14 15 29
  21052739.145     1781477.47549   1384310.66549  21052740.5244   21052747.8204
  18852496.687   -20548769.72649 -15996450.98949  18852498.5934   18852504.7824
  21513896.214     1268439.97149    983710.15849  21513899.3954   21513908.8234
  22774616.820   -12496994.50449  -9720557.79649  22774617.9294   22774627.0154
  21550459.352   -12573292.05349  -9765470.75049  21550463.9254   21550471.3334
  19172267.552   -23310424.41049 -18141995.67449  19172269.0604   19172276.5194
  22676366.952    -6777780.95349  -5263942.48249  22676377.4784   22676386.5574
 95  1  9 17 42 59.9940000  0  7  1 25 21 20 14 15 29
  21052930.100     1782482.61449   1385093.86349  21052931.6264   21052938.7644
  18840218.803   -20613287.59049 -16046724.64949  18840221.3244   18840227.3824
  21516492.182     1282067.11349    994328.68349  21516492.4774   21516500.5304
  22761701.996   -12564854.82349  -9773435.95349  22761704.3694   22761713.3594
  21520947.532   -12728377.61549  -9886316.62049  21520951.8554   21520959.3264
  19157960.390   -23385610.31949 -18200582.10849  19157961.6334   19157969.1524
  22649921.834    -6916788.90149  -5372260.26449  22649926.4774   22649933.7824
 95  1  9 17 43 29.9940000  0  7  1 25 21 20 14 15 29
  21053112.307     1783449.15249   1385846.96949  21053115.7224   21053123.1704
  18828029.234   -20677339.66849 -16096635.35749  18828032.9024   18828039.0384
  21519114.709     1295841.32549   1005061.81849  21519112.9634   21519122.1874
  22748862.412   -12632322.56649  -9826008.21749  22748865.4404   22748875.3814
  21491429.468   -12883531.97449 -10007216.09349  21491426.9774   21491434.3474
  19143753.851   -23460262.95049 -18258752.99949  19143755.7844   19143763.0154
  22623471.981    -7055774.07249  -5480560.38849  22623476.7534   22623484.0974
 95  1  9 17 43 59.9940000  0  7  1 25 21 20 14 15 29
  21053284.762     1784354.58949   1386552.47149  21053287.6034   21053294.8094
  18815929.123   -20740928.05449 -16146184.74349  18815932.2774   18815938.5464
  21521761.932     1309769.54849   1015914.86549  21521763.5484   21521773.1274
  22736094.436   -12699404.35849  -9878279.73349  22736100.3554   22736109.9444
  21461885.476   -13038760.20549 -10128173.12749  21461887.8944   21461895.2694
  19129647.240   -23534389.78649 -18316514.18349  19129649.8614   19129657.1194
  22597032.656    -7194738.87749  -5588844.62149  22597034.3504   22597041.7534
 95  1  9 17 44 29.9940000  0  7  1 25 21 20 14 15 29
  21053443.701     1785189.95149   1387203.36549  21053446.9124   21053454.8964
  18803915.580   -20804064.39049 -16195381.88349  18803917.8094   18803924.1794
  21524443.172     1323845.35549   1026882.97149  21524442.5054   21524451.5954
  22723407.442   -12766085.37649  -9930238.97049  22723411.6374   22723420.9464
  21432334.874   -13194056.29149 -10249183.03949  21432336.2114   21432343.3664
  19115644.706   -23607987.12849 -18373862.76849  19115644.8484   19115652.0694
  22570591.904    -7333682.32349  -5697112.21949  22570592.8614   22570600.2174
 95  1  9 17 44 59.9940000  0  7  1 25 21 20 14 15 29
  21053586.550     1785945.74849   1387792.24849  21053590.3194   21053598.1924
  18791980.368   -20866777.10649 -16244248.93049  18791983.9474   18791990.1454
  21527143.475     1338050.32349   1037951.71849  21527145.9154   21527155.5534
  22710796.105   -12832378.49249  -9981895.94149  22710796.8674   22710806.3424
  21402768.410   -13349416.75749 -10370243.12249  21402772.0414   21402779.2644
  19101735.792   -23681061.91549 -18430804.16849  19101739.1914   19101746.4064
  22544153.337    -7472594.78949  -5805355.62349  22544159.0694   22544167.8414
 95  1  9 17 45 29.9940000  0  7  1 25 21 20 14 15 29
  21053711.113     1786605.53949   1388306.33949  21053716.4764   21053723.5044
  18780126.625   -20929075.26949 -16292792.94749  18780129.1134   18780135.2034
  21529869.718     1352381.93549   1049119.15349  21529872.6694   21529882.0414
  22698254.726   -12898283.03949 -10033250.13649  22698255.5394   22698265.0104
  21373191.766   -13504834.44449 -10491347.79849  21373196.8004   21373204.1714
  19087930.377   -23753619.03149 -18487342.18849  19087932.2204   19087939.4284
  22517724.393    -7611484.86449  -5913581.62649  22517727.4934   22517737.9864
 95  1  9 17 45 59.9940000  0  7  1 25 21 20 14 15 29
  21053819.958     1787165.64849   1388742.74049  21053822.4994   21053830.5074
  18768348.531   -20990972.23549 -16341024.34849  18768350.6324   18768356.6294
  21532620.485     1366833.97849   1060380.41349  21532623.0184   21532632.1424
  22685783.595   -12963782.30749 -10084288.54249  22685790.9234   22685800.7384
  21343604.340   -13660330.34549 -10612513.41949  21343607.0474   21343614.1014
  19074219.670   -23825662.24449 -18543479.76649  19074222.8634   19074230.0754
  22491296.688    -7750370.47049  -6021804.13549  22491299.6804   22491307.4704
 95  1  9 17 46 29.9940000  0  7  1 25 21 20 14 15 29
  21053907.517     1787636.43249   1389109.55049  21053912.9894   21053919.5614
  18756642.709   -21052483.97949 -16388955.57449  18756645.2424   18756651.3114
  21535391.844     1381390.97249   1071723.44449  21535393.2124   21535402.1584
  22673403.294   -13028878.78849 -10135013.09549  22673403.1364   22673413.4304
  21314001.229   -13815914.36449 -10733747.70249  21314000.3344   21314007.7374
  19060607.642   -23897197.61349 -18599221.61749  19060609.9224   19060617.4934
  22464868.206    -7889257.55849  -6130027.82749  22464871.5124   22464878.6114
 95  1  9 17 46 59.9940000  0  7  1 25 21 20 14 15 29
  21053984.285     1788024.14149   1389411.64249  21053986.4404   21053994.2554
  18745011.535   -21113599.51949 -16436578.07049  18745015.3224   18745021.3734
  21538182.307     1396052.86249   1083148.25849  21538183.6124   21538192.0254
  22661085.549   -13093580.07849 -10185429.71349  22661090.4704   22661101.1374
  21284371.981   -13971597.22049 -10855058.99649  21284374.9774   21284382.2954
  19047089.987   -23968228.27149 -18654570.19049  19047093.1244   19047100.6884
  22438435.642    -8028151.45049  -6238256.76549  22438439.0444   22438448.3714
 95  1  9 17 47 29.9930000  0  7  1 25 21 20 14 15 29
  21054039.650     1788319.98549   1389642.11849  21054043.0134   21054050.1854
  18733461.695   -21174298.62649 -16483876.08049  18733464.7124   18733470.7604
  21540997.604     1410840.99549   1094671.44449  21540997.8064   21541006.2664
  22648853.564   -13157874.22849 -10235529.08749  22648855.9434   22648866.9614
  21254726.108   -14127387.62349 -10976454.08949  21254729.0774   21254736.2224
  19033669.974   -24038751.78649 -18709523.58549  19033673.1584   19033680.2064
  22412000.857    -8167053.54249  -6346492.13249  22412009.2874   22412016.4844
 95  1  9 17 47 59.9930000  0  7  1 25 21 20 14 15 29
  21054079.858     1788526.25449   1389802.83049  21054081.3404   21054089.6654
  18721992.323   -21234577.36549 -16530846.53049  18721994.1134   18722000.2514
  21543832.655     1425759.59449   1106296.27949  21543836.7444   21543845.5254
  22636696.900   -13221775.19249 -10285322.05549  22636697.1834   22636706.0214
  21225057.395   -14283309.02449 -11097951.24749  21225057.9074   21225065.5884
  19020345.430   -24108778.09149 -18764089.54049  19020347.5354   19020354.6614
  22385575.218    -8305976.56349  -6454743.78249  22385572.4534   22385579.4464
 95  1  9 17 48 29.9930000  0  7  1 25 21 20 14 15 29
  21054101.581     1788630.41149   1389883.93049  21054101.5794   21054110.2424
  18710602.618   -21294425.81849 -16577481.69649  18710605.3494   18710611.3884
  21546698.201     1440803.88049   1118019.01249  21546699.6854   21546708.8134
  22624609.399   -13285281.24849 -10334807.27649  22624612.4864   22624620.6394
  21195362.270   -14439335.46449 -11219530.26049  21195367.2854   21195374.8924
  19007114.657   -24178304.75449 -18818266.16549  19007117.0794   19007124.2924
  22359130.799    -8444909.32049  -6563003.06149  22359132.6804   22359142.2094
 95  1  9 17 48 59.9930000  0  7  1 25 21 20 14 15 29
  21054098.926     1788616.24049   1389872.84149  21054098.8584   21054106.7904
  18699294.689   -21353849.03449 -16623785.50849  18699297.5154   18699303.4834
  21549582.121     1455967.83649   1129834.97949  21549584.6234   21549594.2114
  22612595.286   -13348401.11349 -10383991.56749  22612601.0124   22612609.2824
  21165655.925   -14595469.92349 -11341193.44949  21165655.7414   21165663.3484
  18993978.614   -24247336.48649 -18872057.13149  18993980.7794   18993988.2384
  22332687.433    -8583855.67349  -6671272.88349  22332694.4884   22332702.3104
 95  1  9 17 49 29.9930000  0  7  1 25 21 20 14 15 29
  21054069.110     1788480.43349   1389766.98149  21054073.1594   21054080.7424
  18688066.917   -21412856.70749 -16669765.52149  18688068.8924   18688074.7124
  21552491.093     1471250.86749   1141743.74649  21552493.7874   21552501.5634
  22600656.190   -13411142.57649 -10432881.00649  22600661.3514   22600670.7944
  21135924.358   -14751700.56949 -11462931.59449  21135926.1334   21135933.4864
  18980938.012   -24315872.68049 -18925461.96349  18980938.7614   18980946.1694
  22306253.272    -8722813.67449  -6779551.82149  22306250.6354   22306258.4584
 95  1  9 17 49 59.9930000  0  7  1 25 21 20 14 15 29
  21054026.450     1788239.53349   1389579.21549  21054027.4794   21054035.1444
  18676913.929   -21471464.41849 -16715433.87549  18676916.0414   18676921.8694
  21555420.436     1486634.06649   1153730.65049  21555421.2834   21555428.0554
  22588791.386   -13473515.11149 -10481482.96649  22588792.0454   22588801.4614
  21106177.636   -14908013.58549 -11584733.92749  21106180.7744   21106187.9284
  18967987.806   -24383915.11649 -18978482.04749  18967990.6444   18967998.0564
  22279807.037    -8861784.58349  -6887840.82349  22279805.6414   22279812.7334
 95  1  9 17 50 29.9930000  0  7  1 25 21 20 14 15 29
  21053959.244     1787887.53649   1389304.89449  21053960.8374   21053967.7214
  18665833.593   -21529687.86349 -16760802.80249  18665836.5764   18665842.3674
  21558366.943     1502113.00249   1165792.11549  21558366.7604   21558375.1784
  22576992.273   -13535528.60049 -10529805.16649  22576990.9444   22577001.0054
  21076418.097   -15064410.11749 -11706601.32449  21076419.7534   21076426.8844
  18955134.165   -24451465.16649 -19031118.45849  18955136.3844   18955143.6664
  22253354.259    -9000768.85749  -6996140.23649  22253357.6534   22253365.4754
 95  1  9 17 50 59.9930000  0  8  1 25 21 22 20 14 15 29
  21053873.673     1787435.31249   1388952.47149  21053874.7854   21053882.4834
  18654825.436   -21587541.19649 -16805883.32849  18654827.2374   18654833.3254
  21561330.843     1517693.72749   1177932.86249  21561331.4244   21561340.0524
  22530781.043    -5959260.03259  -4610851.43559  22530780.3114   22530789.6534
  22565250.278   -13597211.28049 -10577869.61249  22565253.3594   22565263.5084
  21046639.241   -15220904.75649 -11828545.17049  21046639.4974   21046646.5884
  18942372.979   -24518525.65749 -19083373.39449  18942375.3534   18942382.5784
  22226909.809    -9139770.47749  -7104453.13749  22226906.8094   22226913.8194
 95  1  9 17 51 29.9930000  0  8  1 25 21 22 20 14 15 29
  21053769.959     1786889.17549   1388526.85749  21053770.4424   21053777.8194
  18643887.045   -21645026.96849 -16850677.44049  18643888.2144   18643894.0674
  21564310.081     1533374.48249   1190151.51949  21564315.2414   21564324.0714
  22500185.058    -6120032.62349  -4736128.72949  22500186.3284   22500195.8294
  22553577.310   -13658553.22049 -10625668.53349  22553580.5704   22553590.6334
  21016839.030   -15377491.88049 -11950561.08849  21016841.8574   21016849.0244
  18929705.148   -24585100.31849 -19135249.75349  18929706.4544   18929713.6174
  22200451.537    -9278800.02949  -7212787.84049  22200450.0404   22200456.7404
 95  1  9 17 51 59.9930000  0  8  1 25 21 22 20 14 15 29
  21053646.846     1786247.57449   1388026.88449  21053648.6184   21053656.3404
  18633015.744   -21702143.46549 -16895183.80649  18633019.1824   18633025.1124
  21567318.214     1549149.03749   1202443.25949  21567317.0994   21567326.2764
  22469548.191    -6281037.38749  -4861586.92749  22469548.2464   22469556.8764
  22541969.540   -13719543.88249 -10673193.72849  22541973.7824   22541985.0764
  20987025.382   -15534173.39149 -12072650.55449  20987026.7904   20987033.6874
  18917126.874   -24651193.11049 -19186750.63149  18917129.4224   18917136.8084
  22173982.403    -9417864.44149  -7321149.69149  22173986.4704   22173994.4114
 95  1  9 17 52 29.9930000  0  8  1 25 21 22 20 14 15 29
  21053506.110     1785510.69649   1387452.64449  21053508.3524   21053516.2614
  18622219.934   -21758881.99949 -16939395.65349  18622222.3524   18622228.2114
  21570336.951     1565028.03149   1214816.41749  21570339.4224   21570348.2634
  22438866.092    -6442257.43249  -4987212.86149  22438868.3874   22438877.9394
  22530437.059   -13780164.03149 -10720430.21349  22530438.6244   22530448.7024
  20957192.855   -15690941.81449 -12194807.74749  20957194.7554   20957202.0594
  18904643.193   -24716797.31949 -19237870.79849  18904645.4404   18904652.7254
  22147514.250    -9556966.95549  -7429541.23749  22147516.2924   22147523.8994
 95  1  9 17 52 59.9930000  0  8  1 25 21 22 20 14 15 29
  21053351.716     1784695.61249   1386817.46249  21053353.6994   21053360.9124
  18611496.993   -21815228.24549 -16983301.82449  18611500.0404   18611505.9524
  21573379.523     1581016.20849   1227274.67549  21573381.4084   21573390.5024
  22408150.013    -6603672.77249  -5112990.97749  22408152.9974   22408161.8124
  22518981.571   -13840386.34349 -10767356.69249  22518979.1954   22518988.0714
  20927348.909   -15847771.39149 -12317012.58849  20927350.7864   20927358.4104
  18892254.879   -24781903.47849 -19288602.87849  18892256.2984   18892263.5194
  22121037.586    -9696102.72849  -7537958.72349  22121040.2374   22121047.3014
 95  1  9 17 53 29.9930000  0  8  1 25 21 22 20 14 15 29
  21053175.853     1783781.41749   1386105.07749  21053179.1024   21053187.1304
  18600852.933   -21871168.07149 -17026891.29949  18600855.0064   18600861.0554
  21576443.811     1597112.87449   1239817.48849  21576444.4924   21576453.4114
  22377400.204    -6765279.88249  -5238918.54349  22377399.7204   22377409.0834
  22507595.125   -13900194.94449 -10813960.81049  22507597.7684   22507606.6614
  20897495.115   -16004654.08449 -12439258.83149  20897497.2864   20897504.1044
  18879960.398   -24846513.78849 -19338948.57649  18879961.2414   18879968.4834
  22094554.621    -9835281.51349  -7646409.70849  22094555.0964   22094562.7014
 95  1  9 17 53 59.9930000  0  8  1 25 21 22 20 14 15 29
  21052984.257     1782756.74249   1385306.57349  21052984.5604   21052992.2684
  18590283.326   -21926704.99249 -17070166.82149  18590286.6874   18590292.7954
  21579522.000     1613314.12149   1252441.75849  21579527.6584   21579536.4394
  22346609.536    -6927081.30049  -5364997.53349  22346609.2664   22346619.3664
  22496291.409   -13959609.39349 -10860257.78649  22496291.1894   22496300.4394
  20867632.185   -16161589.32849 -12561546.01549  20867633.1824   20867640.7694
  18867759.900   -24910626.91949 -19388906.86549  18867760.7624   18867768.2924
  22068057.213    -9974505.58249  -7754895.96749  22068061.5184   22068069.3574
 95  1  9 17 54 29.9930000  0  8  1 25 21 22 20 14 15 29
  21052764.161     1781611.72449   1384414.32749  21052766.8214   21052774.0324
  18579791.826   -21981837.66249 -17113127.33949  18579795.1074   18579801.2064
  21582631.361     1629627.07049   1265153.06949  21582631.7614   21582641.1174
  22315782.907    -7089076.01449  -5491227.14749  22315783.8874   22315792.6144
  22485055.520   -14018638.68149 -10906254.63349  22485057.5964   22485067.5904
  20837757.428   -16318574.31549 -12683871.95949  20837759.9174   20837767.5284
  18855652.936   -24974237.44449 -19438473.51349  18855656.1754   18855663.7634
  22041560.627   -10113761.98449  -7863407.43749  22041562.5764   22041569.1444
 95  1  9 17 54 59.9930000  0  8  1 25 21 22 20 14 15 29
  21052521.921     1780333.21749   1383418.04349  21052523.0374   21052530.8204
  18569380.525   -22036558.26849 -17155766.77149  18569382.4634   18569388.4014
  21585754.802     1646046.00849   1277946.95549  21585756.7344   21585766.1124
  22284922.332    -7251254.79149  -5617600.20749  22284922.4444   22284930.4574
  22473896.567   -14077287.13249 -10951954.73349  22473897.9364   22473908.0934
  20807875.332   -16475623.94249 -12806248.28049  20807874.5824   20807881.8474
  18843645.101   -25037346.96149 -19487649.76749  18843647.0264   18843654.2494
  22015057.784   -10253033.17749  -7971930.41949  22015060.0914   22015067.2134
 95  1  9 17 55 29.9930000  0  8  1 25 21 22 20 14 15 29
  21052252.279     1778919.19949   1382316.15249  21052254.7324   21052262.4604
  18559045.174   -22090872.38749 -17198089.46249  18559046.8344   18559052.6284
  21588897.979     1662564.14549   1290818.15449  21588900.3004   21588909.6614
  22254022.657    -7413625.69249  -5744122.94949  22254023.4514   22254033.1514
  22462807.498   -14135559.86149 -10997362.06049  22462809.4724   22462819.5464
  20777971.943   -16632758.52949 -12928690.80449  20777972.7964   20777979.9944
  18831729.943   -25099957.47749 -19536437.18849  18831732.6884   18831739.7764
  21988549.492   -10392311.71249  -8080459.12249  21988555.9384   21988564.0234
 95  1  9 17 55 59.9930000  0  8  1 25 21 22 20 14 15 29
  21051961.098     1777384.81949   1381120.50049  21051962.4394   21051969.3744
  18548785.564   -22144784.89249 -17240099.20749  18548787.5754   18548793.3274
  21592060.122     1679175.32649   1303761.86749  21592061.0624   21592069.8514
  22223090.301    -7576172.73749  -5870782.94749  22223091.9934   22223100.5664
  22451790.366   -14193437.31949 -11042461.39149  22451795.2064   22451804.9294
  20748052.397   -16789985.53149 -13051205.33349  20748053.2604   20748060.8034
  18819911.796   -25162065.95049 -19584833.40649  18819913.7064   18819920.9234
  21962048.639   -10531582.97249  -8188982.15449  21962053.2434   21962061.3724
 95  1  9 17 56 29.9930000  0  8  1 25 21 22 20 14 15 29
  21051642.739     1775707.24749   1379813.25549  21051643.3334   21051651.5634
  18538598.557   -22198319.00849 -17281814.11549  18538600.2414   18538606.6794
  21595234.579     1695855.02749   1316758.95549  21595235.0824   21595244.5264
  22192122.347    -7738914.72549  -5997594.85149  22192123.1024   22192132.5944
  22440853.701   -14250924.48749 -11087256.60349  22440854.4614   22440865.5474
  20718111.665   -16947330.14349 -13173811.51149  20718111.8894   20718119.6134
  18808185.074   -25223698.67249 -19632858.92749  18808185.4484   18808193.2794
  21935548.054   -10670851.91549  -8297503.40049  21935552.1084   21935558.8944
 95  1  9 17 56 59.9930000  0  8  1 25 21 22 20 14 15 29
  21051302.142     1773933.84449   1378431.32549  21051305.6064   21051314.2134
  18528489.770   -22251438.10949 -17323205.62249  18528492.2614   18528498.4024
  21598426.893     1712645.26549   1329842.24249  21598428.7144   21598440.8144
  22161123.110    -7901818.24949  -6124532.64049  22161123.9584   22161133.5044
  22429993.220   -14307972.50749 -11131709.59749  22429999.2784   22430009.9184
  20688155.724   -17104743.67749 -13296471.39349  20688157.0444   20688164.3784
  18796550.974   -25284819.61749 -19680485.64149  18796554.5284   18796562.0234
  21909052.499   -10810083.31649  -8405995.36649  21909055.6864   21909064.0364
 95  1  9 17 57 29.9930000  0  8  1 25 21 22 20 14 15 29
  21050955.626     1772091.63249   1376995.79449  21050955.3414   21050961.9924
  18518463.124   -22304129.55549 -17364263.89249  18518465.3144   18518471.3234
  21601650.272     1729573.79149   1343033.19149  21601650.2704   21601659.8894
  22130095.226    -8064857.31859  -6251576.04359  22130098.3244   22130106.7844
  22419226.376   -14364563.85149 -11175806.75449  22419231.6974   22419240.6044
  20658194.360   -17262181.60049 -13419150.26949  20658197.5544   20658204.8934
  18785022.232   -25345408.15549 -19727697.49149  18785025.0074   18785032.3384
  21882569.056   -10949279.20749  -8514459.64749  21882568.1944   21882575.5514
 95  1  9 17 57 59.9930000  0  8  1 25 21 22 20 14 15 29
  21050579.889     1770139.77149   1375474.81649  21050584.0524   21050592.9014
  18508510.338   -22356425.58949 -17405014.05549  18508513.7424   18508519.7704
  21604890.574     1746616.16049   1356312.90749  21604893.3734   21604901.8434
  22099040.409    -8228053.34349  -6378741.74249  22099043.2024   22099051.6284
  22408537.102   -14420741.48149 -11219581.52649  22408541.5824   22408551.1424
  20628231.613   -17419648.97549 -13541852.10049  20628232.5054   20628240.0174
  18773588.846   -25405499.24649 -19774521.72649  18773590.1734   18773597.5034
  21856076.365   -11088481.72249  -8622929.11149  21856079.1454   21856085.5034
 95  1  9 17 58 29.9920000  0  8  1 25 21 22 20 14 15 29
  21050193.926     1768090.64849   1373878.03749  21050194.2204   21050202.3364
  18498634.060   -22408324.60549 -17445454.85349  18498637.6364   18498643.6614
  21608162.990     1763777.36249   1369685.20949  21608161.0824   21608169.3014
  22067959.840    -8391404.49849  -6506028.27849  22067958.5594   22067968.1664
  22397925.662   -14476526.93149 -11263050.69749  22397925.8104   22397935.9874
  20598264.872   -17577122.77649 -13664558.93649  20598266.0484   20598273.5894
  18762246.391   -25465088.82049 -19820955.17049  18762250.5274   18762257.9194
  21829584.673   -11227690.84349  -8731403.72649  21829587.6804   21829594.3304
 95  1  9 17 58 59.9920000  0  8  1 25 21 22 20 14 15 29
  21049781.115     1765963.25049   1372220.29149  21049789.2054   21049796.4024
  18488834.236   -22459831.97749 -17485590.47549  18488836.1584   18488842.0964
  21611447.707     1781058.63749   1383151.06649  21611449.4124   21611458.3534
  22036840.795    -8554910.63249  -6633435.57049  22036843.6704   22036852.5064
  22387380.592   -14531927.77749 -11306220.19749  22387381.8614   22387392.6384
  20568295.122   -17734614.79149 -13787279.96549  20568296.6834   20568303.8304
  18751004.962   -25524178.39549 -19866999.00449  18751006.1894   18751013.5334
  21803089.504   -11366934.47649  -8839905.20849  21803091.2814   21803098.4964
 95  1  9 17 59 29.9920000  0  8  1 25 21 22 20 14 15 29
  21049365.884     1763758.87349   1370502.55849  21049370.0034   21049378.4204
  18479106.546   -22510947.97249 -17525421.12649  18479109.0244   18479114.8964
  21614753.346     1798434.88749   1396690.94149  21614755.6274   21614765.1214
  22005704.945    -8718569.31749  -6760961.73049  22005699.7614   22005709.3264
  22376907.331   -14586960.35949 -11349102.72849  22376910.2664   22376919.9514
  20538316.277   -17892138.99949 -13910026.08149  20538320.5714   20538328.0524
  18739854.330   -25582773.57549 -19912657.59549  18739855.7634   18739863.1984
  21776585.973   -11506217.25849  -8948437.23749  21776586.2554   21776592.3684
 95  1  9 17 59 59.9920000  0  8  1 25 21 22 20 14 15 29
  21048931.171     1761470.68949   1368719.49649  21048934.5904   21048942.8294
  18469452.861   -22561685.64149 -17564956.98349  18469454.1854   18469459.9004
  21618078.000     1815897.09149   1410297.71549  21618078.7094   21618087.8364
  21974517.063    -8882405.53549  -6888626.21849  21974523.1064   21974531.7604
  22366506.699   -14641631.72849 -11391703.78149  22366506.8754   22366515.7034
  20508329.533   -18049717.91149 -14032814.82149  20508334.2324   20508341.8054
  18728797.462   -25640881.98549 -19957936.89649  18728798.3534   18728805.6864
  21750075.865   -11645527.27749  -9056990.45649  21750076.6024   21750083.9814
 95  1  9 18  0 29.9920000  0  8  1 25 21 22 20 14 15 29
  21048479.766     1759090.74049   1366864.94249  21048481.4084   21048489.3994
  18459864.989   -22612058.94849 -17604208.91549  18459868.1454   18459874.3004
  21621415.218     1833434.33949   1423962.97349  21621415.9294   21621424.3264
  21943305.095    -9046422.24449  -7016431.32149  21943312.4584   21943322.6504
  22356169.457   -14695924.34049 -11434009.69349  22356175.0094   22356184.6904
  20478330.453   -18207381.26449 -14155669.36449  20478331.9204   20478339.3774
  18717830.701   -25698506.47949 -20002839.11549  18717832.8104   18717840.2654
  21723560.618   -11784859.49149  -9165561.00149  21723562.8894   21723569.3404
 95  1  9 18  0 59.9920000  0  8  1 25 21 22 20 14 15 29
  21048004.914     1756603.84949   1364927.06749  21048008.3384   21048016.8844
  18450349.513   -22662069.99249 -17643178.56649  18450351.2744   18450357.6134
  21624765.040     1851052.08649   1437691.02749  21624768.2634   21624777.1594
  21912064.486    -9210609.63249  -7144369.41349  21912067.9694   21912076.8824
  22345915.400   -14749820.27049 -11476006.51149  22345919.0764   22345928.9374
  20448309.588   -18365130.48549 -14278590.81449  20448313.2824   20448320.7724
  18706957.951   -25755643.43549 -20047361.43749  18706960.0504   18706967.3684
  21697038.279   -11924210.27649  -9274145.98749  21697044.1014   21697051.7104
 95  1  9 18  1 29.9920000  0  8  1 25 21 22 20 14 15 29
  21047508.360     1753985.57449   1362886.78149  21047510.2014   21047518.4024
  18440899.561   -22711724.70949 -17681870.56049  18440902.5404   18440908.6204
  21628136.422     1868757.80949   1451487.65149  21628137.9544   21628146.8214
  21880787.498    -9374979.59949  -7272449.83249  21880790.5454   21880799.1904
  22335732.150   -14803329.32649 -11517701.87749  22335737.0984   22335746.0264
  20418279.283   -18522956.11049 -14401571.79849  20418279.7804   20418287.4064
  18696176.194   -25812297.73149 -20091507.65649  18696178.8864   18696186.2004
  21670519.378   -12063581.45449  -9382746.91749  21670524.2424   21670530.9274
 95  1  9 18  1 59.9920000  0  8  1 25 21 22 20 14 15 29
  21046982.799     1751227.60849   1360737.67349  21046985.8004   21046993.6304
  18431517.751   -22761025.94949 -17720287.11349  18431520.6054   18431526.6984
  21631524.777     1886561.96049   1465360.96549  21631526.7184   21631535.4444
  21849478.335    -9539518.60649  -7400661.99149  21849479.5744   21849487.9924
  22325630.101   -14856429.30749 -11559078.48049  22325631.8464   22325642.3464
  20388238.133   -18680831.03149 -14524591.19749  20388237.3964   20388244.5714
  18685489.079   -25868465.91549 -20135275.09149  18685490.6454   18685497.9314
  21643994.695   -12202970.43349  -9491361.64649  21643997.9204   21644005.4064
 95  1  9 18  2 29.9920000  0  8  1 25 21 22 20 14 15 29
  21046431.988     1748341.15449   1358488.44149  21046436.4564   21046443.5034
  18422207.444   -22809952.72949 -17758411.88149  18422210.3284   18422216.3694
  21634930.547     1904463.94349   1479310.48449  21634933.1274   21634942.2434
  21818142.519    -9704197.51249  -7528983.16249  21818142.0594   21818150.6064
  22315603.221   -14909118.24949 -11600134.80749  22315606.6794   22315616.1324
  20358186.096   -18838729.94849 -14647629.30149  20358190.2824   20358197.3924
  18674895.001   -25924137.32649 -20178655.42949  18674896.6804   18674903.9404
  21617471.256   -12342374.99749  -9599988.58749  21617470.3474   21617477.6284
 95  1  9 18  2 59.9920000  0  7  1 25 21 22 14 15 29
  21045863.073     1745335.17849   1356146.08549  21045864.2484   21045872.5424
  18412972.328   -22858490.08549 -17796233.20249  18412974.0354   18412980.0004
  21638356.444     1922463.52149   1493336.02949  21638358.2514   21638367.5114
  21786776.070    -9869018.55749  -7657415.07949  21786777.7234   21786786.4944
  20328134.690   -18996636.11149 -14770673.03749  20328141.7754   20328149.0064
  18664395.712   -25979313.60949 -20221649.95349  18664397.0904   18664404.4974
  21590931.913   -12481800.82949  -9708632.05649  21590938.1884   21590945.7954
 95  1  9 18  3 29.9920000  0  7  1 25 21 22 14 15 29
  21045267.774     1742212.81349   1353713.01349  21045270.2054   21045278.0984
  18403810.162   -22906634.42149 -17833748.27649  18403812.5564   18403818.4454
  21641796.279     1940551.93449   1507430.78549  21641799.8974   21641810.2264
  21755386.258   -10033983.97349  -7785959.47349  21755385.8344   21755393.8484
  20298088.311   -19154546.51349 -14893720.08349  20298092.4414   20298099.5314
  18653988.435   -26033998.33349 -20264261.44149  18653990.9754   18653998.1144
  21564402.610   -12621248.86749  -9817292.84249  21564403.2194   21564409.9804
 95  1  9 18  3 59.9920000  0  7  1 25 21 22 14 15 29
  21044651.103     1738975.54549   1351190.42749  21044653.4644   21044661.6684
  18394721.849   -22954390.65749 -17870960.93349  18394724.7814   18394730.8574
  21645257.092     1958719.34349   1521587.05149  21645257.8164   21645267.0944
  21723967.111   -10199084.75449  -7914609.33149  21723967.7244   21723976.5274
  20268036.975   -19312476.87849 -15016782.69449  20268039.1474   20268046.1054
  18643675.715   -26088193.02749 -20306491.08949  18643677.9844   18643685.4794
  21537858.981   -12760704.13649  -9925959.25749  21537865.1504   21537873.0864
 95  1  9 18  4 29.9920000  0  7  1 25 21 22 14 15 29
  21044015.551     1735634.61349   1348587.06749  21044018.3354   21044026.5274
  18385709.689   -23001752.30149 -17907866.11749  18385712.1694   18385718.2104
  21648732.987     1976988.24449   1535822.45549  21648734.3794   21648743.9344
  21692524.202   -10364307.60649  -8043354.29949  21692526.9814   21692535.0154
  20237977.536   -19470437.90849 -15139869.19649  20237979.9634   20237987.0004
  18633458.002   -26141886.92949 -20348330.50549  18633460.4814   18633467.5404
  21511330.718   -12900156.13649 -10034623.11449  21511328.0264   21511335.5554
 95  1  9 18  4 59.9920000  0  7  1 25 21 22 14 15 29
  21043357.396     1732183.71949   1345898.01349  21043361.2094   21043370.6014
  18376770.399   -23048723.21849 -17944466.83949  18376773.8424   18376780.0084
  21652228.110     1995369.91649   1550145.79649  21652232.1114   21652240.2654
  21661061.202   -10529651.62049  -8172193.66649  21661063.2794   21661071.5374
  20207914.746   -19628435.39849 -15262984.10949  20207914.2744   20207921.3134
  18623334.148   -26195084.84349 -20389783.43649  18623337.0244   18623344.5374
  21484788.706   -13039602.94449 -10143282.93849  21484792.9564   21484799.7224
 95  1  9 18  5 29.9920000  0  7  1 25 21 22 14 15 29
  21042681.078     1728623.64449   1343123.87749  21042684.7104   21042692.5674
  18367908.569   -23095304.67749 -17980764.08549  18367909.7834   18367915.7984
  21655753.434     2013874.65749   1564565.06949  21655752.8974   21655761.5034
  21629575.215   -10695112.47649  -8301124.07849  21629576.7444   21629584.8254
  20177840.461   -19786457.58049 -15386118.25949  20177843.5034   20177850.6404
  18613308.085   -26247781.17549 -20430845.52349  18613309.5434   18613316.5174
  21458256.847   -13179034.15249 -10251930.59449  21458260.3334   21458267.4944
 95  1  9 18  5 59.9920000  0  7  1 25 21 22 14 15 29
  21041985.835     1724956.72549   1340266.51249  21041986.9464   21041994.6334
  18359116.414   -23141501.65449 -18016761.74049  18359118.6644   18359124.7034
  21659294.679     2032502.57949   1579080.28449  21659298.9164   21659306.8064
  21598069.064   -10860686.37649  -8430142.57249  21598068.5184   21598077.2294
  20147763.749   -19944510.07549 -15509276.03449  20147767.2324   20147774.1354
  18603374.221   -26299981.41449 -20471521.04149  18603375.9444   18603383.3334
  21431726.970   -13318452.83049 -10360568.49749  21431729.9774   21431735.9584
 95  1  9 18  6 29.9920000  0  7  1 25 21 22 14 15 29
  21041266.742     1721189.37349   1337330.86649  21041269.4174   21041278.6734
  18350399.786   -23187306.94149 -18052454.17749  18350402.3634   18350408.4044
  21662862.935     2051247.85349   1593686.90349  21662865.0454   21662874.7954
  21566538.433   -11026363.62449  -8559241.59649  21566541.3464   21566549.4284
  20117685.399   -20102582.22549 -15632449.12549  20117687.0804   20117694.0984
  18593534.199   -26351684.64249 -20511809.27749  18593537.4544   18593544.6724
  21405197.265   -13457865.85449 -10469201.99349  21405200.1574   21405206.9624
 95  1  9 18  6 59.9920000  0  7  1 25 21 22 14 15 29
  21040534.209     1717338.58649   1334330.18749  21040536.8394   21040544.6684
  18341758.264   -23232715.22949 -18087837.26649  18341761.3484   18341767.3274
  21666447.695     2070111.08949   1608385.39149  21666453.8944   21666464.2714
  21534988.891   -11192142.69849  -8688419.99449  21534994.2814   21535002.6504
  20087605.137   -20260652.13549 -15755620.46949  20087607.1904   20087614.3654
  18583790.781   -26402887.28949 -20551707.45449  18583793.7254   18583801.2464
  21378668.800   -13597266.58349 -10577825.91149  21378672.3844   21378679.6124
 95  1  9 18  7 29.9920000  0  7  1 25 21 22 14 15 29
  21039786.376     1713418.84249   1331275.84049  21039790.9544   21039798.4834
  18333194.831   -23277727.09249 -18122911.45149  18333196.2214   18333202.1834
  21670064.058     2089091.98049   1623175.59349  21670066.9964   21670076.7004
  21503429.554   -11358012.69849  -8817669.24749  21503430.7924   21503438.3704
  20057528.595   -20418703.40449 -15878777.28849  20057531.1474   20057538.3534
  18574145.852   -26453577.49149 -20591206.31649  18574147.6304   18574155.0514
  21352148.249   -13736648.66649 -10686435.29649  21352148.8274   21352156.7474
 95  1  9 18  7 59.9920000  0  7  1 25 21 22 14 15 29
  21039029.126     1709423.92949   1328162.86649  21039030.7064   21039039.3954
  18324704.822   -23322345.11349 -18157678.74749  18324705.6504   18324711.6924
  21673697.034     2108182.07949   1638050.90849  21673699.9824   21673709.3764
  21471850.087   -11523955.03649  -8946974.88249  21471851.8314   21471860.9904
  20027452.958   -20576752.53849 -16001932.44849  20027455.2834   20027462.4784
  18564597.241   -26503758.72949 -20630308.58849  18564598.5954   18564606.0154
  21325628.683   -13876015.03849 -10795032.43849  21325628.4584   21325635.9794
 95  1  9 18  8 29.9920000  0  7  1 25 21 22 14 15 29
  21038248.589     1705338.98849   1324979.73949  21038253.7054   21038260.8544
  18316286.279   -23366568.07649 -18192138.20149  18316290.0704   18316296.3414
  21677347.965     2127375.24049   1653006.55949  21677352.5264   21677362.2024
  21440259.191   -11689968.86249  -9076336.19049  21440260.7464   21440269.7684
  19997376.987   -20734790.42449 -16125078.83449  19997381.6284   19997389.0454
  18555143.106   -26553431.88049 -20669014.94849  18555146.0254   18555153.3544
  21299107.105   -14015375.52249 -10903624.98249  21299108.9274   21299116.3334
 95  1  9 18  8 59.9910000  0  7  1 25 21 22 14 15 29
  21037454.895     1701162.33949   1321725.19149  21037458.3104   21037466.3494
  18307947.753   -23410394.02749 -18226288.30049  18307950.4044   18307956.4734
  21681022.359     2146678.07149   1668047.67349  21681025.3524   21681034.9454
  21408654.863   -11856055.27449  -9205754.06649  21408655.6654   21408664.4874
  19967308.626   -20892808.34849 -16248209.67249  19967311.9074   19967319.0444
  18545788.795   -26602593.82749 -20707322.96449  18545790.8154   18545798.3304
  21272590.428   -14154726.26249 -11012209.94149  21272591.4134   21272599.3754
 95  1  9 18  9 29.9910000  0  7  1 25 21 22 14 15 29
  21036642.555     1696875.78749   1318384.97449  21036643.4144   21036652.0774
  18299681.926   -23453829.71049 -18260134.29349  18299684.8364   18299690.8614
  21684713.937     2166073.84449   1683161.22949  21684716.7824   21684724.9194
  21377035.129   -12022214.24649  -9335228.51949  21377036.7094   21377045.0444
  19937240.196   -21050829.75849 -16371343.22449  19937241.4154   19937248.7284
  18536528.386   -26651252.36249 -20745238.71049  18536531.5174   18536538.6324
  21246072.058   -14294081.23849 -11120798.21149  21246073.6774   21246080.6244
 95  1  9 18  9 59.9910000  0  7  1 25 21 22 14 15 29
  21035805.436     1692489.61749   1314967.13049  21035808.4454   21035817.1014
  18291492.293   -23496865.43949 -18293668.63349  18291495.2774   18291501.5004
  21688424.142     2185579.34349   1698360.28949  21688428.7544   21688437.8264
  21345408.802   -12188429.65449  -9464746.96849  21345407.1484   21345415.1794
  19907169.324   -21208847.74949 -16494474.10949  19907171.5604   19907179.0744
  18527366.681   -26699401.87349 -20782757.81549  18527368.9944   18527376.2714
  21219552.983   -14433437.52749 -11229387.47849  21219554.7294   21219562.3284
 95  1  9 18 10 29.9910000  0  7  1 25 21 22 14 15 29
  21034953.131     1688012.97549   1311478.79049  21034956.4674   21034965.3394
  18283376.761   -23539519.44949 -18326905.53049  18283378.7554   18283384.6884
  21692156.422     2205189.85749   1713641.13849  21692160.3374   21692168.5004
  21313759.286   -12354715.77749  -9594320.50849  21313763.9824   21313771.9154
  19877100.096   -21366852.02549 -16617594.30749  19877104.4844   19877111.8704
  18518300.594   -26747046.33249 -20819883.37649  18518302.3224   18518309.8404
  21193029.246   -14572809.63849 -11337989.09649  21193032.7894   21193039.9564
 95  1  9 18 10 59.9910000  0  7  1 25 21 22 14 15 29
  21034089.173     1683470.32549   1307939.01549  21034092.5644   21034101.0334
  18275329.524   -23581799.92249 -18359851.36149  18275333.0754   18275339.0864
  21695909.470     2224913.26249   1729009.92649  21695913.5634   21695923.0634
  21282107.783   -12521066.50849  -9723944.39849  21282108.4214   21282116.3154
  19847035.827   -21524843.27149 -16740704.35449  19847039.9074   19847047.1014
  18509330.281   -26794182.81149 -20856613.11049  18509332.6384   18509340.2544
  21166507.665   -14712186.08649 -11446594.07749  21166510.7084   21166518.0624
 95  1  9 18 11 29.9910000  0  7  1 25 21 22 14 15 29
  21033215.801     1678871.62349   1304355.56449  21033217.1044   21033225.4324
  18267358.793   -23623700.01649 -18392500.79349  18267359.4624   18267365.6284
  21699685.443     2244744.74349   1744462.95249  21699687.0944   21699696.5074
  21250442.447   -12687458.49749  -9853600.44249  21250445.2844   21250452.9264
  19816976.265   -21682810.40549 -16863795.61349  19816979.5804   19816986.7884
  18500457.963   -26840810.71049 -20892946.54749  18500459.7954   18500467.1964
  21139986.751   -14851562.55349 -11555199.08049  21139988.6764   21139995.4194
 95  1  9 18 11 59.9910000  0  7  1 25 21 22 14 15 29
  21032330.609     1674225.29149   1300734.99949  21032333.2224   21032341.4504
  18259455.885   -23665214.06449 -18424849.40949  18259459.6914   18259466.1014
  21703480.795     2264691.76649   1760005.98249  21703483.0764   21703493.1584
  21218771.662   -12853895.29749  -9983291.41949  21218773.0894   21218781.4104
  19786923.948   -21840738.05049 -16986856.10349  19786927.0464   19786934.2694
  18491681.066   -26886926.92449 -20928881.27349  18491684.1914   18491691.6354
  21113461.055   -14990930.69149 -11663797.59449  21113467.1844   21113474.5944
 95  1  9 18 12 29.9910000  0  7  1 25 21 22 14 15 29
  21031434.071     1669520.45349   1297068.82749  21031437.6224   21031446.3394
  18251630.795   -23706340.96649 -18456896.35349  18251633.5274   18251639.9424
  21707294.528     2284737.28549   1775625.77349  21707297.9274   21707306.9424
  21187088.450   -13020378.93449 -10113018.88849  21187092.2634   21187100.2254
  19756881.636   -21998616.41349 -17109878.19249  19756883.7614   19756891.0324
  18483004.151   -26932532.65749 -20964418.22249  18483005.9234   18483013.1134
  21086948.013   -15130283.49849 -11772384.15749  21086948.9014   21086955.7944
 95  1  9 18 12 59.9910000  0  7  1 25 21 22 14 15 29
  21030529.978     1664755.53549   1293355.83949  21030530.8574   21030540.0094
  18243885.257   -23747053.35949 -18488620.30249  18243886.3014   18243892.5524
  21711129.142     2304892.09449   1791330.74649  21711134.0364   21711143.0244
  21155403.710   -13186894.98449 -10242771.60949  21155405.3474   21155413.4954
  19726849.350   -22156438.96449 -17232856.79049  19726851.3104   19726858.5314
  18474423.534   -26977624.94349 -20999555.07849  18474424.9494   18474432.3024
  21060440.569   -15269602.19349 -11880944.14649  21060437.3634   21060444.0084
 95  1  9 18 13 29.9910000  0  7  1 25 21 22 14 15 29
  21029612.144     1659931.51249   1289596.84149  21029612.7974   21029621.3434
  18236219.253   -23787335.35049 -18520008.87149  18236221.0144   18236227.1484
  21714992.797     2325166.91349   1807129.24849  21714991.6654   21715001.5154
  21123714.044   -13353427.66949 -10372537.28549  21123715.2914   21123723.1654
  19696830.596   -22314186.83249 -17355777.19149  19696832.5044   19696840.1204
  18465941.475   -27022193.32649 -21034283.69649  18465943.9464   18465951.2414
  21033933.215   -15408877.89349 -11989470.64049  21033934.2024   21033941.3484
 95  1  9 18 13 59.9910000  0  7  1 25 21 22 14 15 29
  21028679.448     1655026.82449   1285774.93849  21028679.3314   21028689.0434
  18228632.106   -23827202.92649 -18551074.52549  18228634.2664   18228640.5194
  21718870.001     2345562.59649   1823021.88349  21718872.4964   21718882.1624
  21092013.863   -13520001.93649 -10502335.38449  21092016.2594   21092025.1784
  19666826.723   -22471865.51249 -17478643.68149  19666827.1374   19666834.7694
  18457558.253   -27066245.84249 -21068610.34249  18457560.8834   18457568.4154
  21007437.453   -15548112.21449 -12097964.88549  21007438.5264   21007445.7214
 95  1  9 18 14 29.9910000  0  7  1 25 21 22 14 15 29
  21027732.103     1650049.98949   1281896.82249  21027733.8194   21027741.4464
  18221124.611   -23866649.91049 -18581812.44649  18221127.8974   18221134.0524
  21722776.172     2366094.16449   1839020.44049  21722778.5444   21722789.2924
  21060312.390   -13686597.70649 -10632150.23149  21060315.1054   21060323.0354
  19636836.201   -22629466.56349 -17601449.68349  19636836.7894   19636844.0924
  18449274.706   -27109777.90949 -21102531.44749  18449277.2064   18449284.4484
  20980948.520   -15687301.69649 -12206424.19349  20980951.9884   20980958.9724
 95  1  9 18 14 59.9910000  0  7  1 25 21 22 14 15 29
  21026770.527     1644997.31449   1277959.65149  21026770.1224   21026778.9514
  18213699.309   -23905674.71049 -18612221.39149  18213701.8024   18213708.0224
  21726709.250     2386765.63749   1855128.01849  21726713.7104   21726722.1394
  21028613.349   -13853197.30549 -10761968.05849  21028612.0334   21028620.7444
  19606856.158   -22786990.17849 -17724195.34149  19606861.2334   19606868.4384
  18441090.089   -27152789.60249 -21136047.06549  18441092.4024   18441099.7394
  20954476.118   -15826431.47049 -12314836.98949  20954476.4654   20954484.6494
 95  1  9 18 15 29.9910000  0  7  1 25 21 22 14 15 29
  21025795.414     1639861.51249   1273957.66149  21025794.4734   21025803.2604
  18206348.382   -23944301.41349 -18642320.13149  18206351.2834   18206357.6284
  21730671.919     2407568.83949   1871338.24649  21730671.3774   21730681.3294
  20996905.600   -14019798.91149 -10891787.46649  20996908.9244   20996917.1164
  19576897.957   -22944435.78049 -17846880.21049  19576900.2794   19576907.4514
  18433004.544   -27195283.32849 -21169159.07449  18433006.0984   18433013.4424
  20928009.797   -15965509.47149 -12423209.43949  20928010.7654   20928018.2084
 95  1  9 18 15 59.9910000  0  7  1 25 21 22 14 15 29
  21024795.577     1634636.42549   1269886.13349  21024800.1244   21024808.8424
  18199071.883   -23982540.08049 -18672116.50349  18199074.7224   18199080.8344
  21734652.926     2428500.27749   1887648.38549  21734655.5354   21734664.4364
  20965202.359   -14186404.84549 -11021610.25249  20965204.3674   20965213.5004
  19546949.812   -23101808.22449 -17969508.07149  19546953.1654   19546960.4334
  18425015.021   -27237267.37049 -21201873.92249  18425016.8024   18425024.0604
  20901548.870   -16104550.32249 -12531552.93049  20901552.5864   20901558.9384
 95  1  9 18 16 29.9910000  0  7  1 25 21 22 14 15 29
  21023794.018     1629340.63049   1265759.47949  21023790.9844   21023800.3414
  18191868.237   -24020391.02749 -18701610.75549  18191871.9664   18191878.1384
  21738661.547     2449564.69449   1904062.13749  21738663.4694   21738672.7484
  20933499.228   -14352994.82149 -11151420.62449  20933503.2654   20933511.8974
  19517016.013   -23259105.57949 -18092077.41649  19517020.5754   19517027.7254
  18417122.740   -27278735.77649 -21234186.97949  18417125.4384   18417132.8344
  20875099.056   -16243556.02449 -12639869.04149  20875100.2134   20875106.7924
 95  1  9 18 16 59.9910000  0  7  1 25 21 22 14 15 29
  21022770.578     1623978.97249   1261581.52549  21022773.0104   21022780.2424
  18184738.102   -24057867.27749 -18730813.03849  18184740.5144   18184746.5714
  21742689.987     2470745.54349   1920566.62749  21742694.7384   21742704.0254
  20901800.333   -14519589.19849 -11281234.40949  20901802.0574   20901810.0884
  19487092.529   -23416346.21649 -18214602.56549  19487098.6814   19487105.7564
  18409329.297   -27319696.01949 -21266104.06349  18409331.1084   18409338.4534
  20848650.182   -16382533.79349 -12748163.40949  20848653.8424   20848660.5654
 95  1  9 18 17 29.9910000  0  7  1 25 21 22 14 15 29
  21021738.494     1618566.67449   1257364.15049  21021743.2054   21021751.0944
  18177681.467   -24094960.13749 -18759716.57649  18177682.0844   18177688.0664
  21746749.143     2492053.53049   1937170.20249  21746749.3504   21746759.4524
  20870095.485   -14686191.84749 -11411054.65849  20870098.2104   20870106.5534
  19457182.480   -23573535.20649 -18337087.47349  19457186.5194   19457193.5254
  18401631.232   -27360143.59749 -21297621.67149  18401634.2034   18401641.6474
  20822208.207   -16521496.59049 -12856446.09349  20822209.9314   20822216.8244
 95  1  9 18 17 59.9910000  0  6  1 25 22 14 15 29
  21020705.469     1613121.62049   1253121.14249  21020704.5774   21020715.0954
  18170695.983   -24131653.72449 -18788308.99149  18170699.3044   18170705.5484
  20838393.867   -14852797.71449 -11540877.41449  20838394.4794   20838402.4024
  19427282.036   -23730665.16149 -18459526.37249  19427285.3944   19427292.7494
  18394035.245   -27400067.95949 -21328731.57649  18394037.0764   18394044.3084
  20795773.300   -16660420.76849 -12964698.67649  20795773.0664   20795780.3204
 95  1  9 18 18 29.9910000  0  6  1 25 22 14 15 29
  21019662.286     1607640.24549   1248849.86349  21019663.7414   21019670.6874
  18163791.793   -24167939.41449 -18816583.56449  18163794.5314   18163800.7204
  20806690.258   -15019400.10549 -11670697.46449  20806691.0484   20806699.1354
  19397393.494   -23887734.03449 -18581917.68149  19397396.3684   19397403.5334
  18386537.881   -27439465.20649 -21359430.75649  18386540.0384   18386547.3134
  20769344.692   -16799292.71649 -13072910.58849  20769347.1814   20769353.8364
 95  1  9 18 18 59.9910000  0  6  1 25 22 14 15 29
  21018608.857     1602112.85749   1244542.82349  21018611.3204   21018619.4844
  18156963.011   -24203824.22649 -18844545.76249  18156965.8664   18156972.0154
  20774991.078   -15185986.20149 -11800504.81049  20774990.4174   20774999.0184
  19367519.515   -24044725.80649 -18704248.90949  19367521.9064   19367529.0214
  18379141.423   -27478337.30749 -21389720.72349  18379142.9794   18379150.2184
  20742927.476   -16938108.61849 -13181078.82349  20742931.5374   20742938.6854
 95  1  9 18 19 29.9900000  0  6  1 25 22 14 15 29
  21017544.272     1596511.39249   1240177.96349  21017544.5954   21017553.4954
  18150210.309   -24239312.79849 -18872199.20449  18150212.5784   18150218.8104
  20743296.136   -15352533.52949 -11930281.94749  20743297.6744   20743306.0334
  19337665.737   -24201611.71649 -18826497.64849  19337667.6484   19337674.3034
  18371843.262   -27516687.16649 -21419603.74949  18371845.0114   18371852.5684
  20716524.928   -17076863.69949 -13289199.65649  20716527.4304   20716534.0434
 95  1  9 18 19 59.9900000  0  6  1 25 22 14 15 29
  21016464.918     1590839.02449   1235757.86949  21016466.4874   21016473.8894
  18143529.050   -24274423.91849 -18899558.52549  18143531.3774   18143537.5344
  20711612.389   -15519040.45049 -12060027.61049  20711612.1714   20711620.4284
  19307831.588   -24358380.73849 -18948655.30249  19307835.7184   19307842.3094
  18364643.516   -27554521.76549 -21449085.27749  18364645.3354   18364652.9274
  20690125.902   -17215562.98949 -13397277.01249  20690133.1984   20690139.8574
 95  1  9 18 20 29.9900000  0  6  1 25 22 14 15 29
  21015375.697     1585102.46549   1231287.81949  21015374.2414   21015382.2244
  18136921.085   -24309150.37549 -18926618.10449  18136923.1214   18136929.2014
  20679938.776   -15685483.05249 -12189723.13949  20679939.2004   20679947.7454
  19278027.216   -24515013.47549 -19070706.75849  19278029.4474   19278036.1304
  18357542.250   -27591836.59249 -21478161.78449  18357544.8414   18357552.2034
  20663749.577   -17354209.45349 -13505313.20249  20663750.0374   20663756.7304
 95  1  9 18 20 59.9900000  0  6  1 25 22 14 15 29
  21014269.623     1579324.39249   1226785.37249  21014274.4574   21014283.6824
  18130386.309   -24343488.74049 -18953375.28049  18130388.8094   18130394.8284
  20648278.555   -15851853.70049 -12319362.60349  20648279.9134   20648288.1744
  19248249.714   -24671501.29049 -19192645.29149  19248250.7814   19248257.1824
  18350540.656   -27628629.81549 -21506831.84449  18350543.1254   18350550.7034
  20637377.443   -17492796.11049 -13613302.78849  20637377.9934   20637384.4914
 95  1  9 18 21 29.9900000  0  6  1 25 22 14 15 29
  21013168.430     1573519.19949   1222261.76849  21013170.3474   21013179.4854
  18123928.598   -24377419.08549 -18979814.51749  18123931.7944   18123937.8974
  20616632.983   -16018155.64049 -12448948.52249  20616633.9424   20616641.9184
  19218497.337   -24827846.16149 -19314472.43949  19218499.2944   19218505.8894
  18343641.428   -27664898.83249 -21535093.43349  18343641.7024   18343648.7814
  20611019.676   -17631314.93849 -13721239.51549  20611018.8314   20611025.3234
 95  1  9 18 21 59.9900000  0  6  1 25 22 14 15 29
  21012055.090     1567695.86549   1217724.05449  21012061.6794   21012070.4914
  18117549.246   -24410943.46649 -19005937.42449  18117552.5164   18117558.5694
  20584996.866   -16184392.78049 -12578483.94049  20585000.4214   20585008.3704
  19188769.856   -24984063.40649 -19436200.14149  19188772.0424   19188778.8734
  18336836.003   -27700649.04349 -21562950.74949  18336838.4524   18336845.7514
  20584669.244   -17769766.21149 -13829123.59049  20584672.5684   20584679.0354
 95  1  9 18 22 29.9900000  0  6  1 25 22 14 15 29
  21010948.356     1561844.90049   1213164.80649  21010948.2584   21010956.8454
  18111249.872   -24444052.15449 -19031736.41049  18111251.9964   18111258.1274
  20553377.372   -16350576.38349 -12707977.63449  20553376.3644   20553384.4324
  19159065.982   -25140164.69949 -19557837.49249  19159066.8204   19159073.8764
  18330131.094   -27735885.68249 -21590407.88649  18330133.2994   18330140.5614
  20558333.213   -17908161.76249 -13936964.24849  20558336.5144   20558343.0834
 95  1  9 18 22 59.9900000  0  6  1 25 22 14 15 29
  21009828.296     1555974.91749   1208590.75249  21009832.1924   21009840.2824
  18105030.161   -24476731.39649 -19057200.76649  18105033.4044   18105039.5474
  20521763.202   -16516689.13649 -12837416.11249  20521765.8974   20521773.9994
  19129383.430   -25296142.14849 -19679378.34549  19129385.2014   19129392.3664
  18323524.072   -27770602.27149 -21617459.79149  18323526.7244   18323534.5144
  20532012.880   -18046492.69549 -14044754.55449  20532012.8004   20532019.5894
 95  1  9 18 23 29.9900000  0  6  1 25 22 14 15 29
  21008707.411     1550070.47549   1203989.82049  21008708.0674   21008717.1374
  18098891.807   -24508989.60649 -19082337.04149  18098894.8124   18098900.9864
  20490167.323   -16682727.74749 -12966796.81649  20490170.3764   20490177.5364
  19099725.369   -25451999.58249 -19800825.67449  19099726.7914   19099733.8374
  18317017.206   -27804801.28849 -21644108.39249  18317018.9084   18317026.5734
  20505694.990   -18184762.75949 -14152497.42049  20505701.2384   20505707.8054
 95  1  9 18 23 59.9900000  0  6  1 25 22 14 15 29
  21007574.757     1544134.11349   1199364.01349  21007578.6214   21007586.4354
  18092830.748   -24540841.14549 -19107156.42749  18092833.7344   18092839.9164
  20458587.626   -16848687.03449 -13096115.71249  20458589.3594   20458597.6984
  19070088.950   -25607741.97049 -19922183.35949  19070089.7154   19070097.0924
  18310608.182   -27838484.01849 -21670354.69149  18310609.5384   18310616.9034
  20479400.001   -18322983.18749 -14260201.60049  20479398.3774   20479405.4944
 95  1  9 18 24 29.9900000  0  6  1 25 22 14 15 29
  21006437.869     1538164.40149   1194712.31749  21006443.2224   21006449.8244
  18086845.380   -24572297.18249 -19131667.63549  18086847.8474   18086853.9864
  20427022.838   -17014570.44349 -13225375.48449  20427022.8644   20427030.3274
  19040472.053   -25763364.99449 -20043448.03249  19040475.5544   19040483.1324
  18304295.064   -27871652.06349 -21696199.93349  18304297.6274   18304304.8874
  20453102.602   -18461159.39849 -14367871.33949  20453104.0814   20453111.6374
 95  1  9 18 24 59.9900000  0  6  1 25 22 14 15 29
  21005297.467     1532165.43849   1190037.73849  21005300.3404   21005311.3234
  18080933.325   -24603364.69449 -19155876.09349  18080935.9204   18080942.0564
  20395469.910   -17180361.88749 -13354563.59349  20395473.2054   20395480.9764
  19010884.436   -25918852.83649 -20164607.36549  19010887.1264   19010894.4404
  18298082.351   -27904298.15949 -21721638.46449  18298085.3434   18298092.7624
  20426820.215   -18599260.82149 -14475482.80149  20426824.5454   20426831.4124
 95  1  9 18 25 29.9900000  0  6  1 25 22 14 15 29
  21004153.394     1526130.83449   1185335.29949  21004153.0304   21004160.8294
  18075092.566   -24634057.54649 -19179792.61249  18075095.3304   18075101.3744
  20363938.178   -17346071.67749 -13483688.08749  20363940.3964   20363947.9614
  18981320.705   -26074204.94649 -20285660.94149  18981324.5474   18981331.8354
  18291968.797   -27936424.83349 -21746672.25049  18291972.0944   18291979.4164
  20400560.037   -18737283.25349 -14583032.69249  20400559.7054   20400566.5194
 95  1  9 18 25 59.9900000  0  6  1 25 22 14 15 29
  21002998.118     1520062.33449   1180606.61049  21002998.5744   21003006.2134
  18069324.917   -24664371.45749 -19203413.85249  18069326.9034   18069332.9854
  20332420.869   -17511694.87049 -13612745.11549  20332422.6114   20332430.7424
  18951788.779   -26229407.80949 -20406598.21849  18951790.4454   18951797.7774
  18285956.593   -27968027.22349 -21771297.49549  18285957.7984   18285965.6214
  20374306.767   -18875224.12349 -14690519.04949  20374310.1464   20374317.3164
 95  1  9 18 26 29.9900000  0  6  1 25 22 14 15 29
  21001835.766     1513960.05849   1175851.55249  21001836.5044   21001845.4864
  18063631.556   -24694288.32149 -19226725.70749  18063633.7924   18063639.8754
  20300921.866   -17677227.72349 -13741731.74649  20300923.2674   20300931.5694
  18922285.412   -26384449.44749 -20527409.86949  18922287.1674   18922294.3644
  18280041.498   -27999105.12849 -21795514.06249  18280044.2584   18280051.8624
  20348078.246   -19013064.59949 -14797927.16649  20348080.2024   20348087.1524
 95  1  9 18 26 59.9900000  0  6  1 25 22 14 15 29
  21000669.377     1507828.73449   1171073.80849  21000669.6084   21000679.4174
  18058017.925   -24723785.49049 -19249710.52549  18058020.5104   18058026.4054
  20269442.657   -17842659.87849 -13870639.90249  20269442.3624   20269450.5264
  18892812.040   -26539330.60849 -20648096.47549  18892814.2894   18892821.3274
  18274227.131   -28029661.16849 -21819323.97949  18274229.3754   18274237.0744
  20321866.044   -19150815.56949 -14905265.54949  20321866.7044   20321874.2664
 95  1  9 18 27 29.9900000  0  6  1 25 22 14 15 29
  20999496.400     1501680.60649   1166282.98149  20999500.5334   20999509.5104
  18052488.178   -24752843.55249 -19272353.18049  18052490.9834   18052497.2154
  20237980.435   -18007982.04149 -13999462.34949  20237982.8294   20237990.5584
  18863371.357   -26694046.49449 -20768654.29549  18863372.9824   18863379.9344
  18268513.461   -28059689.99949 -21842723.08249  18268515.5834   18268522.6374
  20295666.640   -19288493.44749 -15012546.96949  20295666.9564   20295674.9174
 95  1  9 18 27 59.9900000  0  6  1 25 22 14 15 29
  20998323.838     1495517.19349   1161480.27449  20998326.7824   20998334.3344
  18047043.043   -24781470.75649 -19294660.10749  18047043.6514   18047049.8844
  20206543.187   -18173191.02749 -14128196.61149  20206544.4284   20206552.4844
  18833959.389   -26848596.17849 -20889082.61049  18833963.1574   18833970.2304
  18262897.223   -28089201.63649 -21865719.17949  18262899.4524   18262907.0694
  20269475.868   -19426111.33349 -15119781.66449  20269479.9434   20269487.3644
 95  1  9 18 28 29.9900000  0  6  1 25 22 14 15 29
  20997154.471     1489354.95949   1156678.53149  20997154.7744   20997163.7664
  18041675.359   -24809664.21749 -19316629.04949  18041678.5854   18041684.9894
  20175127.038   -18338273.84349 -14256832.52949  20175129.7064   20175138.2354
  18804582.512   -27002974.18349 -21009377.15049  18804585.8374   18804593.0174
  18257381.402   -28118192.36849 -21888309.37449  18257382.9494   18257389.8974
  20243305.502   -19563663.39949 -15226965.06449  20243304.6554   20243312.0694
 95  1  9 18 28 59.9900000  0  6  1 25 22 14 15 29
  20995980.188     1483191.88249   1151876.05649  20995981.5594   20995991.3444
  18036386.981   -24837455.94849 -19338284.96149  18036389.9664   18036396.1844
  20143741.328   -18503220.11449 -14385362.03449  20143741.4054   20143750.1294
  18775240.430   -27157181.43749 -21129538.63749  18775241.3014   18775248.2614
  18251963.805   -28146659.79749 -21910491.80149  18251965.5224   18251973.2214
  20217138.667   -19701157.95449 -15334103.65549  20217140.0164   20217147.1404
 95  1  9 18 29 29.9890000  0  6  1 25 22 14 15 29
  20994804.259     1477026.93649   1147072.14649  20994808.7114   20994818.8124
  18031169.055   -24864880.66349 -19359654.88349  18031171.2104   18031177.3514
  20112379.184   -18668022.74549 -14513779.61749  20112381.0354   20112389.0914
  18745928.856   -27311211.16549 -21249561.79549  18745930.4404   18745937.0454
  18246645.406   -28174603.88049 -21932266.43349  18246647.8534   18246655.3544
  20190984.271   -19838575.46949 -15441182.21949  20190990.6464   20190997.2514
 95  1  9 18 29 59.9890000  0  6  1 25 22 14 15 29
  20993627.979     1470849.48849   1142258.47249  20993633.2964   20993641.4224
  18026017.955   -24891942.22649 -19380741.83249  18026021.5884   18026027.9724
  20081044.950   -18832679.19449 -14642083.29249  20081047.8234   20081055.7404
  18716649.676   -27465078.68549 -21369458.55749  18716650.4704   18716657.1594
  18241428.051   -28202026.08049 -21953634.40049  18241429.9804   18241437.3014
  20164847.650   -19975917.02249 -15548201.58049  20164855.1284   20164861.6424
 95  1  9 18 30 29.9890000  0  6  1 25 22 14 15 29
  20992450.333     1464649.45549   1137427.26949  20992454.2104   20992461.1554
  18020936.635   -24918638.26049 -19401543.95549  18020941.4024   18020947.6774
  20049741.801   -18997183.27149 -14770268.24849  20049744.1754   20049751.9144
  18687398.205   -27618792.56249 -21489235.59949  18687399.5334   18687406.2074
  18236307.496   -28228932.15549 -21974600.18849  18236309.7394   18236317.0754
  20138733.786   -20113181.25549 -15655160.70549  20138733.9674   20138741.5374
 95  1  9 18 30 59.9890000  0  6  1 25 22 14 15 29
  20991266.483     1458436.09049   1132585.65449  20991271.4834   20991280.9074
  18015933.991   -24944962.69349 -19422056.51449  18015932.0084   18015938.3234
  20018470.937   -19161515.48149 -14898319.29349  20018472.4904   20018480.5494
  18658180.398   -27772325.92549 -21608871.97849  18658183.1354   18658189.6904
  18231280.659   -28255314.00649 -21995157.49249  18231289.4654   18231297.1354
  20112632.056   -20250349.29549 -15762044.86449  20112631.9274   20112639.7294
 95  1  9 18 31 29.9890000  0  6  1 25 22 14 15 29
  20990083.206     1452217.33149   1127739.77149  20990087.9374   20990096.8704
  18010997.172   -24970880.01349 -19442251.85049  18011000.1904   18011006.5544
  19987234.676   -19325661.91449 -15026225.57149  19987236.5994   19987244.5074
  18629003.367   -27925658.57049 -21728351.95049  18629004.7044   18629011.8104
  18226368.658   -28281167.21649 -22015302.86749  18226369.9184   18226377.4414
  20086547.990   -20387407.44249 -15868843.41449  20086551.0584   20086557.7404
 95  1  9 18 31 59.9890000  0  6  1 25 22 14 15 29
  20988901.240     1445996.66149   1122892.41449  20988904.4534   20988913.3114
  18006148.456   -24996365.32449 -19462110.54949  18006150.8484   18006157.1234
  19956035.255   -19489616.31349 -15153982.22049  19956036.8344   19956044.7664
  18599866.257   -28078768.63849 -21847658.48649  18599868.8404   18599875.9394
  18221549.852   -28306486.04649 -22035031.84349  18221551.9144   18221559.3624
  20060490.433   -20524350.12849 -15975551.98449  20060491.9054   20060498.7514
 95  1  9 18 32 29.9890000  0  6  1 25 22 14 15 29
  20987723.608     1439787.70149   1118054.24449  20987722.7044   20987732.2824
  18001377.067   -25021435.91149 -19481646.08949  18001380.0214   18001386.1204
  19924868.015   -19653403.66749 -15281608.70549  19924869.3424   19924876.8984
  18570775.809   -28231636.06649 -21966775.94749  18570779.1364   18570786.4264
  18216828.800   -28331281.71249 -22054353.15949  18216833.3154   18216840.7754
  20034451.202   -20661179.78649 -16082172.49049  20034453.5754   20034460.3984
 95  1  9 18 32 59.9890000  0  6  1 25 22 14 15 29
  20986539.820     1433589.09049   1113224.13349  20986543.8454   20986552.3414
  17996684.068   -25046098.96449 -19500864.06949  17996686.8364   17996692.9154
  19893731.345   -19817031.45149 -15409110.86749  19893731.9114   19893739.4484
  18541734.500   -28384258.27349 -22085702.33049  18541736.5304   18541743.3684
  18212211.612   -28355563.28749 -22073273.88949  18212212.7494   18212219.9044
  20008435.568   -20797899.66949 -16188707.45949  20008437.2084   20008444.0784
 95  1  9 18 33 29.9890000  0  6  1 25 22 14 15 29
  20985363.570     1427400.01549   1108401.42449  20985365.4114   20985375.7804
  17992071.957   -25070337.95849 -19519751.61349  17992074.3554   17992080.7214
  19862622.061   -19980506.95349 -15536494.37049  19862623.2654   19862631.1624
  18512735.024   -28536654.40949 -22204452.55249  18512736.4394   18512743.2654
  18207686.620   -28379333.49649 -22091796.14549  18207689.3114   18207696.9124
  19982436.999   -20934511.63549 -16295158.31849  19982440.8924   19982447.0474
 95  1  9 18 33 59.9890000  0  6  1 25 22 14 15 29
  20984186.765     1421225.92549   1103590.36449  20984189.7964   20984200.1624
  17987540.528   -25094151.50249 -19538307.64249  17987542.8584   17987549.1614
  19831541.543   -20143829.12449 -15663758.37549  19831543.7704   19831552.1544
  18483779.301   -28688817.51049 -22323021.18949  18483780.6894   18483787.3634
  18203262.568   -28402589.60649 -22109917.80849  18203264.0784   18203271.6704
  19956463.394   -21071007.05349 -16401518.36349  19956466.3964   19956472.8024
 95  1  9 18 34 29.9890000  0  6  1 25 22 14 15 29
  20983017.236     1415064.13049   1098788.90049  20983018.2914   20983026.8694
  17983091.776   -25117545.03649 -19556536.38749  17983091.3944   17983097.2014
  19800495.173   -20306983.48949 -15790891.61949  19800496.8344   19800505.2684
  18454864.761   -28840756.66449 -22441415.32449  18454867.6164   18454874.1994
  18198933.299   -28425337.67449 -22127643.59149  18198935.5154   18198942.5224
  19930515.440   -21207385.49949 -16507787.26249  19930514.7434   19930520.7244
 95  1  9 18 34 59.9890000  0  6  1 25 22 14 15 29
  20981845.152     1408894.06249   1093981.00649  20981844.2354   20981853.6114
  17978718.862   -25140512.19049 -19574432.88949  17978720.9024   17978726.7494
  19769486.097   -20469944.00749 -15917873.82549  19769486.4324   19769494.8144
  18425992.287   -28992481.54849 -22559642.49249  18425995.2584   18426001.7944
  18194698.159   -28447578.04849 -22144973.76449  18194703.1474   18194710.6684
  19904583.710   -21343650.53449 -16613967.78249  19904584.2874   19904590.7654
 95  1  9 18 35 29.9890000  0  6  1 25 22 14 15 29
  20980663.359     1402705.32749   1089158.60049  20980667.0124   20980675.9984
  17974424.362   -25163071.89549 -19592011.89449  17974427.7714   17974434.2274
  19738512.368   -20632709.22849 -16044703.83749  19738513.1904   19738521.5404
  18397162.688   -29143983.79249 -22677696.17449  18397165.0924   18397171.8154
  18190563.501   -28469315.15349 -22161911.79049  18190566.5704   18190574.0224
  19878671.751   -21479817.03049 -16720071.50949  19878672.4714   19878679.1474
 95  1  9 18 35 59.9890000  0  6  1 25 22 14 15 29
  20979485.596     1396511.31149   1084332.02549  20979487.6624   20979497.1224
  17970206.548   -25185238.18849 -19609284.34249  17970209.7554   17970216.0354
  19707578.157   -20795262.49049 -16171368.67249  19707580.3414   19707589.1374
  18368380.413   -29295239.50749 -22795557.75549  18368382.1934   18368389.1134
  18186525.600   -28490541.11949 -22178451.52749  18186527.6864   18186535.0474
  19852772.705   -21615890.64049 -16826102.86849  19852778.7814   19852785.0254
 95  1  9 18 36 29.9890000  0  6  1 25 22 14 15 29
  20978309.794     1390319.30749   1079507.00849  20978309.8194   20978319.1444
  17966058.641   -25207040.89149 -19626273.47749  17966060.5634   17966066.7314
  19676684.971   -20957607.81349 -16297871.47049  19676687.0694   19676695.5674
  18339640.193   -29446265.43749 -22913240.28749  18339642.8814   18339649.7624
  18182581.628   -28511264.30649 -22194599.48349  18182584.0404   18182591.2854
  19826900.137   -21751890.56149 -16932076.80649  19826898.5914   19826904.6504
 95  1  9 18 36 59.9890000  0  6  1 25 22 14 15 29
  20977129.993     1384129.13149   1074683.46549  20977131.7894   20977140.4074
  17961978.148   -25228488.10549 -19642985.61049  17961979.4264   17961985.8134
  19645829.022   -21119756.58749 -16424221.11149  19645831.1294   19645839.3424
  18310946.024   -29597057.37549 -23030740.48649  18310948.1684   18310955.0794
  18178732.860   -28531486.41049 -22210356.98449  18178735.9714   18178743.5974
  19801031.214   -21887813.99949 -17037991.14149  19801033.0354   19801039.8404
 95  1  9 18 37 29.9890000  0  6  1 25 22 14 15 29
  20975960.221     1377964.32349   1069879.68049  20975959.2934   20975967.8234
  17957965.719   -25249575.60349 -19659417.43749  17957966.3054   17957973.1314
  19615010.349   -21281712.53649 -16550420.51449  19615012.1584   19615020.1334
  18282295.372   -29747617.09049 -23148059.73149  18282297.6154   18282304.7174
  18174982.170   -28551206.15749 -22225723.03849  18174983.8064   18174990.6064
  19775182.816   -22023647.33749 -17143835.27049  19775185.0074   19775191.5624
 95  1  9 18 37 59.9890000  0  6  1 25 22 14 15 29
  20974786.749     1371813.03949   1065086.38049  20974788.2084   20974797.6754
  17954022.895   -25270299.56849 -19675565.99249  17954022.7674   17954029.3414
  19584226.549   -21443474.85549 -16676469.03649  19584229.8194   19584237.5304
  18253685.329   -29897957.53249 -23265208.11749  18253688.5654   18253695.8054
  18171321.707   -28570432.51049 -22240704.63249  18171324.5054   18171332.4904
  19749350.667   -22159387.16349 -17249606.54149  19749354.2384   19749360.5034
 95  1  9 18 38 29.9890000  0  6  1 25 22 14 15 29
  20973619.843     1365668.57449   1060298.40049  20973619.6774   20973628.2474
  17950148.562   -25290642.86249 -19691417.92749  17950151.6234   17950157.8434
  19553485.098   -21605034.53649 -16802359.65549  19553485.9324   19553493.8004
  18225122.421   -30048070.08449 -23382178.92949  18225123.1894   18225130.0834
  18167756.202   -28589164.28749 -22255300.83249  18167760.1514   18167767.9824
  19723539.620   -22295017.91149 -17355292.81249  19723544.5204   19723551.2004
 95  1  9 18 38 59.9890000  0  6  1 25 22 14 15 29
  20972448.773     1359511.43249   1055500.59049  20972447.0824   20972456.3684
  17946353.767   -25310589.30649 -19706960.62549  17946355.9994   17946362.4424
  19522782.004   -21766377.54649 -16928081.43549  19522783.2584   19522791.2164
  18196599.807   -30197949.50549 -23498968.07849  18196602.2084   18196609.1564
  18164284.986   -28607406.87949 -22269515.85849  18164288.7454   18164296.5764
  19697752.522   -22430539.90349 -17460894.34049  19697755.6464   19697762.2184
 95  1  9 18 39 29.9880000  0  6  1 25 22 14 15 29
  20971269.464     1353322.88349   1050678.29649  20971269.1424   20971278.6574
  17942631.010   -25330151.03349 -19722203.54349  17942633.7894   17942640.0814
  19492120.276   -21927503.35549 -17053633.96949  19492122.0984   19492129.7564
  18168119.757   -30347607.72549 -23615584.86249  18168123.1324   18168129.9594
  18160904.170   -28625181.43849 -22283366.17049  18160906.2014   18160913.9084
  19671974.751   -22565996.02149 -17566444.54049  19671978.9164   19671985.6544
 95  1  9 18 39 59.9880000  0  6  1 25 22 14 15 29
  20970069.221     1347034.65949   1045778.32549  20970073.1324   20970082.4864
  17938968.118   -25349399.65249 -19737202.47649  17938970.7844   17938976.5064
  19461490.009   -22088462.04349 -17179056.27949  19461492.1274   19461500.1484
  18139674.532   -30497101.35749 -23732073.39849  18139675.4494   18139682.3774
  18157597.318   -28642548.62449 -22296899.05749  18157601.5104   18157608.9154
  19646193.843   -22701468.87449 -17672007.78749  19646199.5964   19646205.8004
 95  1  9 18 40 29.9880000  0  6  1 25 22 14 15 29
  20968877.891     1340748.16949   1040879.69949  20968876.9604   20968886.8274
  17935378.358   -25368261.95949 -19751900.39149  17935381.4694   17935387.3954
  19430908.878   -22249153.70549 -17304270.49749  19430913.6564   19430921.7694
  18111273.962   -30646338.11049 -23848361.76949  18111276.6154   18111283.5054
  18154388.193   -28659427.87949 -22310051.73149  18154389.6684   18154397.3124
  19620434.439   -22836863.36949 -17777509.97049  19620435.1574   19620441.4504
 95  1  9 18 40 59.9880000  0  6  1 25 22 14 15 29
  20967681.442     1334490.40549   1036003.45849  20967686.5904   20967695.0824
  17931866.020   -25386728.01949 -19766289.54049  17931867.4264   17931874.0514
  19400388.004   -22409554.63849 -17429258.18149  19400390.4814   19400398.2284
  18082926.833   -30795295.72449 -23964432.62649  18082931.0394   18082938.1524
  18151271.359   -28675801.00849 -22322810.03249  18151273.5634   18151281.1124
  19594692.525   -22972153.60949 -17882930.92249  19594690.0134   19594696.7174
 95  1  9 18 41 29.9880000  0  6  1 25 22 14 15 29
  20966499.099     1328257.75149   1031146.82149  20966499.0434   20966508.3564
  17928421.754   -25404823.06549 -19780389.58049  17928424.0424   17928430.0844
  19369915.724   -22569691.36649 -17554040.00849  19369917.5754   19369924.8274
  18054632.872   -30943989.19649 -24080297.65849  18054635.6384   18054642.6404
  18148248.691   -28691681.49949 -22335184.44649  18148251.9814   18148259.6844
  19568963.888   -23107343.71549 -17988273.84549  19568964.2594   19568970.9834
 95  1  9 18 41 59.9880000  0  6  1 25 22 14 15 29
  20965312.925     1322042.76149   1026303.91949  20965317.6844   20965325.7024
  17925045.657   -25422568.24649 -19794217.00149  17925047.3114   17925052.9454
  19339488.484   -22729586.22049 -17678633.35249  19339490.2074   19339498.3584
  18026387.911   -31092426.44449 -24195963.03249  18026388.8374   18026395.9264
  18145319.141   -28707082.77249 -22347185.46249  18145321.2944   18145328.7584
  19543262.119   -23242411.48049 -18093521.43349  19543261.6314   19543268.3694
 95  1  9 18 42 29.9880000  0  6  1 25 22 14 15 29
  20964139.705     1315860.44449   1021486.48349  20964141.7984   20964149.8614
  17921736.448   -25439946.55349 -19807758.54549  17921740.4374   17921746.6224
  19309106.267   -22889254.98149 -17803050.50849  19309106.5064   19309114.4394
  17998188.518   -31240604.50149 -24311426.44249  17998191.3844   17998198.4914
  18142480.733   -28722000.54949 -22358809.70149  18142482.3084   18142490.2804
  19517581.471   -23377344.23949 -18198663.82149  19517584.9014   19517591.4564
 95  1  9 18 42 59.9880000  0  6  1 25 22 14 15 29
  20962970.347     1309709.38349   1016693.41649  20962970.8694   20962979.7184
  17918502.197   -25456942.76449 -19821002.34849  17918506.0804   17918512.4874
  19278762.787   -23048703.47049 -17927296.03449  19278764.7774   19278772.2094
  17970037.712   -31388535.73149 -24426697.52149  17970041.1234   17970048.0014
  18139734.180   -28736428.72249 -22370052.45149  18139736.8584   18139744.0174
  19491929.318   -23512148.97949 -18303706.44849  19491932.3464   19491938.8024
 95  1  9 18 43 29.9880000  0  6  1 25 22 14 15 29
  20961804.287     1303590.72549   1011925.58849  20961806.3434   20961814.9074
  17915339.608   -25473559.99249 -19833950.84349  17915343.8404   17915349.9164
  19248463.830   -23207930.42949 -18051368.94949  19248464.5874   19248472.3634
  17941934.506   -31536226.95749 -24541781.58549  17941936.4024   17941943.2944
  18137081.541   -28750371.63349 -22380917.06749  18137083.3144   18137091.6004
  19466300.518   -23646834.13349 -18408655.89649  19466302.6684   19466309.2174
 95  1  9 18 43 59.9880000  0  6  1 25 22 14 15 29
  20960642.869     1297486.00549   1007168.58849  20960642.5424   20960653.2474
  17912248.897   -25489817.87049 -19846619.32649  17912250.0524   17912256.1264
  19218206.095   -23366935.70649 -18175269.11549  19218206.5224   19218214.7614
  17913874.198   -31683683.15849 -24656682.51049  17913876.3524   17913883.2164
  18134516.042   -28763853.41249 -22391422.36749  18134517.9894   18134525.1884
  19440686.429   -23781430.12649 -18513535.85949  19440689.8714   19440696.5994
 95  1  9 18 44 29.9880000  0  6  1 25 22 14 15 29
  20959487.990     1291417.11749   1002439.50049  20959491.0724   20959499.3674
  17909228.943   -25505690.37449 -19858987.51449  17909229.6284   17909235.8454
  19187997.503   -23525672.26249 -18298959.88249  19188000.0484   19188008.1634
  17885864.524   -31830870.74749 -24771374.12949  17885867.6344   17885874.5344
  18132043.031   -28776849.46949 -22401549.17749  18132045.3324   18132052.7984
  19415095.586   -23915920.43649 -18618333.47449  19415097.1384   19415104.2634
 95  1  9 18 44 59.9880000  0  6  1 25 22 14 15 29
  20958338.466     1285369.98749    997727.44049  20958339.4914   20958348.7894
  17906276.930   -25521189.85849 -19871065.04549  17906280.1794   17906286.1784
  19157845.789   -23684121.74749 -18422426.96249  19157848.2184   19157856.3914
  17857910.990   -31977767.83449 -24885839.38049  17857913.9534   17857921.1154
  18129663.036   -28789359.82349 -22411297.52749  18129664.2864   18129671.8534
  19389523.983   -24050294.76149 -18723040.69849  19389526.5384   19389533.5944
 95  1  9 18 45 29.9880000  0  6  1 25 22 14 15 29
  20957183.170     1279309.53149    993004.91249  20957185.2484   20957194.2054
  17903391.053   -25536362.31849 -19882887.74749  17903393.1884   17903398.9674
  19127745.982   -23842305.47849 -18545686.97149  19127746.6844   19127754.4394
  17830014.791   -32124361.39649 -25000068.12249  17830018.2504   17830025.2234
  18127366.231   -28801419.04249 -22420694.32649  18127369.3434   18127377.4704
  19363973.089   -24184578.11849 -18827677.04349  19363973.0444   19363980.0674
 95  1  9 18 45 59.9880000  0  6  1 25 22 14 15 29
  20956032.130     1273245.83549    988279.86649  20956032.1704   20956041.7974
  17900566.350   -25551195.79349 -19894446.31249  17900570.4854   17900576.5944
  19097697.907   -24000213.63149 -18668732.26049  19097697.9114   19097705.4854
  17802183.016   -32270624.41649 -25114039.29849  17802185.1874   17802192.0664
  18125161.675   -28813013.28049 -22429728.82549  18125163.3584   18125170.6474
  19338437.452   -24318752.41449 -18932228.40349  19338440.5764   19338447.4374
 95  1  9 18 46 29.9880000  0  6  1 25 22 14 15 29
  20954875.183     1267178.39949    983551.94549  20954878.0984   20954884.4064
  17897810.688   -25565684.94349 -19905736.57049  17897813.2664   17897819.4014
  19067699.801   -24157854.86149 -18791569.54649  19067699.8464   19067708.0574
  17774412.344   -32416557.78249 -25227753.59849  17774415.1314   17774421.9044
  18123045.163   -28824138.75149 -22438398.03349  18123046.2704   18123054.0074
  19312929.127   -24452803.73649 -19036683.94649  19312931.9274   19312938.4694
 95  1  9 18 46 59.9880000  0  6  1 25 22 14 15 29
  20953720.619     1261104.37149    978818.93249  20953721.9294   20953730.0414
  17895121.324   -25579831.04449 -19916759.52449  17895121.4354   17895127.3854
  19037745.470   -24315249.00149 -18914214.29649  19037748.7774   19037756.8174
  17746701.348   -32562181.17049 -25341226.35749  17746703.9954   17746710.6364
  18121014.128   -28834816.20549 -22446718.15349  18121015.0614   18121021.9474
  19287436.357   -24586756.52149 -19141062.70949  19287441.1804   19287447.8714
 95  1  9 18 47 29.9880000  0  6  1 25 22 14 15 29
  20952565.810     1255053.80949    974104.18649  20952571.0674   20952578.8704
  17892497.434   -25593604.34449 -19927491.98149  17892500.7204   17892506.6874
  19007844.589   -24472382.36949 -19036655.85249  19007847.3094   19007854.8884
  17719049.056   -32707501.53249 -25454462.99549  17719050.1014   17719057.0534
  18119065.049   -28845038.89249 -22454683.90049  18119069.3634   18119076.9244
  19261966.239   -24720609.52549 -19245363.72749  19261970.0524   19261976.2454
 95  1  9 18 47 59.9880000  0  6  1 25 22 14 15 29
  20951423.543     1249035.15049    969414.28949  20951425.2244   20951434.1994
  17889953.563   -25606983.77949 -19937917.53449  17889954.2754   17889960.5004
  18977997.351   -24629243.34349 -19158885.16449  18977997.9144   18978005.0344
  17691448.573   -32852539.83749 -25567479.84449  17691450.2534   17691457.3514
  18117208.666   -28854805.54349 -22462294.30149  18117210.5084   18117218.5274
  19236515.117   -24854360.95349 -19349585.59649  19236517.7404   19236524.3094
 95  1  9 18 48 29.9880000  0  6  1 25 22 14 15 29
  20950279.008     1243026.36849    964732.06249  20950281.8124   20950291.1304
  17887478.479   -25619987.36149 -19948050.21949  17887479.9754   17887486.1224
  18948198.001   -24785834.51949 -19280904.23849  18948199.1434   18948207.0924
  17663895.715   -32997322.38549 -25680297.40549  17663899.1054   17663906.1204
  18115432.120   -28864143.97649 -22469571.02449  18115433.5824   18115440.5024
  19211073.903   -24988040.68849 -19453751.60249  19211079.1934   19211085.8064
 95  1  9 18 48 59.9880000  0  6  1 25 22 14 15 29
  20949132.119     1236994.78549    960032.12049  20949134.8874   20949142.2944
  17885065.360   -25632668.33749 -19957931.52149  17885067.0074   17885073.1694
  18918447.377   -24942175.27349 -19402728.16849  18918448.8834   18918456.7064
  17636389.241   -33141884.05149 -25792942.85049  17636389.9844   17636396.8654
  18113728.256   -28873094.24049 -22476545.27849  18113730.7124   18113737.8604
  19185644.845   -25121691.69449 -19557895.22549  19185646.4954   19185652.9674
 95  1  9 18 49 29.9880000  0  6  1 25 22 14 15 29
  20947981.817     1230948.89049    955321.02549  20947983.9024   20947992.8914
  17882712.457   -25645024.30649 -19967559.57849  17882715.8244   17882721.9244
  18888752.574   -25098232.55149 -19524331.21049  18888752.0544   18888759.8494
  17608925.271   -33286198.21549 -25905395.43949  17608927.9184   17608934.8704
  18112105.377   -28881629.22049 -22483195.93349  18112106.7134   18112113.6094
  19160225.494   -25255273.92149 -19661985.26449  19160226.6474   19160232.8774
 95  1  9 18 49 59.9870000  0  6  1 25 22 14 15 29
  20946836.128     1224928.08949    950629.46549  20946837.3104   20946846.0794
  17880430.192   -25657029.69049 -19976914.44849  17880431.1574   17880437.1554
  18859119.703   -25253943.97949 -19645664.78049  18859120.8534   18859128.7194
  17581521.335   -33430202.17849 -26017606.31749  17581525.0794   17581531.9014
  18110568.720   -28889701.80349 -22489486.28149  18110570.1624   18110578.6364
  19134830.415   -25388725.20149 -19765973.25849  19134831.6574   19134838.2734
 95  1  9 18 50 29.9870000  0  6  1 25 22 14 15 29
  20945679.152     1218876.34049    945913.78549  20945686.3114   20945696.5354
  17878194.449   -25668759.57649 -19986054.64549  17878198.8214   17878205.0504
  18829542.843   -25409375.10349 -19766779.92649  18829543.5914   18829551.3484
  17554167.692   -33573950.68449 -26129618.13549  17554170.5974   17554177.3004
  18109107.211   -28897372.26749 -22495463.28949  18109110.5944   18109117.5394
  19109446.851   -25522107.24949 -19869907.30649  19109449.8954   19109456.1334
 95  1  9 18 50 59.9870000  0  6  1 25 22 14 15 29
  20944540.667     1212858.30249    941224.31749  20944541.5934   20944550.8274
  17876027.916   -25680157.16649 -19994935.90849  17876030.1534   17876036.4544
  18800030.847   -25564452.70349 -19887619.59249  18800032.9994   18800040.7974
  17526877.751   -33717368.49549 -26241372.26949  17526879.1634   17526885.9914
  18107738.277   -28904576.93849 -22501077.34249  18107739.6774   18107747.2324
  19084094.510   -25655339.16349 -19973724.36549  19084096.5484   19084102.8424
 95  1  9 18 51 29.9870000  0  6  1 25 22 14 15 29
  20943391.991     1206818.48049    936517.91749  20943391.8984   20943401.9424
  17873910.824   -25691274.74649 -20003598.98149  17873914.3894   17873920.4124
  18770578.252   -25719239.71049 -20008232.82349  18770577.9664   18770585.4934
  17499639.205   -33860507.48749 -26352909.14349  17499640.6334   17499647.5264
  18106443.102   -28911375.16649 -22506374.70349  18106445.7614   18106453.5204
  19058759.035   -25788480.75549 -20077471.05049  19058760.8014   19058766.8664
 95  1  9 18 51 59.9870000  0  6  1 25 22 14 15 29
  20942244.112     1200793.39149    931823.00549  20942245.8264   20942254.8824
  17871857.332   -25702067.84349 -20012009.20149  17871860.6244   17871866.9004
  18741184.711   -25873698.77749 -20128590.52749  18741185.4974   18741193.1164
  17472462.376   -34003321.49649 -26464192.77849  17472464.1374   17472471.0194
  18105233.005   -28917739.05849 -22511333.59749  18105235.3754   18105242.6434
  19033442.708   -25921510.65849 -20181130.69649  19033445.8694   19033451.9534
 95  1  9 18 52 29.9870000  0  6  1 25 22 14 15 29
  20941105.656     1194797.70549    927151.00749  20941104.3364   20941114.7694
  17869868.553   -25712513.57149 -20020148.74749  17869872.9124   17869879.1994
  18711857.001   -26027815.20449 -20248681.22949  18711858.2184   18711865.7794
  17445351.468   -34145788.76049 -26575206.22449  17445353.3454   17445360.1514
  18104106.328   -28923657.21149 -22515945.16449  18104108.8424   18104116.4754
  19008150.338   -26054422.89749 -20284698.67049  19008153.5454   19008159.4434
 95  1  9 18 52 59.9870000  0  6  1 25 22 14 15 29
  20939965.169     1188805.98249    922482.09349  20939964.1074   20939974.2514
  17867946.721   -25722634.90649 -20028035.51449  17867947.2294   17867953.2904
  18682589.108   -26181624.49949 -20368532.61549  18682588.9654   18682596.2824
  17418301.021   -34287935.39949 -26685969.83449  17418303.7394   17418310.6134
  18103057.854   -28929155.77649 -22520229.78449  18103062.8094   18103069.8514
  18982876.219   -26187244.32249 -20388195.87749  18982878.4274   18982884.4044
 95  1  9 18 53 29.9870000  0  6  1 25 22 14 15 29
  20938828.183     1182838.93849    917832.40949  20938829.4514   20938838.5894
  17866085.983   -25732408.19449 -20035651.07649  17866087.6004   17866093.5554
  18653378.437   -26335125.51349 -20488143.78849  18653378.7984   18653386.2614
  17391317.749   -34429740.16449 -26796467.04749  17391319.3204   17391326.0314
  18102097.532   -28934221.67749 -22524177.26449  18102098.5414   18102106.7314
  18957619.413   -26319960.83249 -20491611.32549  18957623.5754   18957629.2004
 95  1  9 18 53 59.9870000  0  6  1 25 22 14 15 29
  20937698.329     1176907.69549    913210.61549  20937700.6874   20937710.1674
  17864293.710   -25741818.57449 -20042983.84449  17864296.6874   17864302.6974
  18624229.432   -26488300.15349 -20607500.63749  18624230.9034   18624238.2904
  17364401.764   -34571186.92649 -26906685.29449  17364402.9284   17364409.5614
  18101216.224   -28938850.03349 -22527783.79949  18101217.6674   18101225.1204
  18932388.629   -26452554.49749 -20594931.06049  18932391.6634   18932397.4794
 95  1  9 18 54 29.9870000  0  6  1 25 22 14 15 29
  20936583.145     1171045.92649    908642.96649  20936585.1444   20936594.5494
  17862576.816   -25750857.38649 -20050027.08149  17862576.5384   17862582.6884
  18595148.496   -26641129.81749 -20726588.66849  18595148.0264   18595155.9104
  17337554.981   -34712264.19649 -27016615.62849  17337556.7234   17337563.3274
  18100421.117   -28943018.40049 -22531031.90749  18100424.8004   18100432.5564
  18907186.943   -26584993.11149 -20698129.97249  18907189.1304   18907195.2524
 95  1  9 18 54 59.9870000  0  6  1 25 22 14 15 29
  20935463.199     1165172.03249    904065.85449  20935467.8744   20935477.3214
  17860906.170   -25759615.19549 -20056851.35949  17860909.8604   17860916.3364
  18566109.337   -26793708.75149 -20845481.32349  18566113.2494   18566121.1704
  17310760.341   -34853066.92749 -27126332.03249  17310762.7094   17310769.4474
  18099698.548   -28946823.90049 -22533997.26449  18099700.6324   18099707.8064
  18881996.241   -26717369.27749 -20801280.22049  18881999.0684   18882005.2994
 95  1  9 18 55 29.9870000  0  6  1 25 22 14 15 29
  20934351.820     1159333.78549    899516.52749  20934355.9494   20934364.8114
  17859301.155   -25768045.50749 -20063420.44249  17859305.5304   17859312.0164
  18537139.866   -26945962.49449 -20964120.57749  18537140.5014   18537148.0654
  17284029.996   -34993539.96749 -27235791.53249  17284031.5634   17284038.4394
  18099053.341   -28950219.10949 -22536642.89649  18099054.3604   18099062.0364
  18856826.279   -26849642.71649 -20904350.42149  18856828.1614   18856834.2524
 95  1  9 18 55 59.9870000  0  6  1 25 22 14 15 29
  20933256.968     1153530.95049    894994.80049  20933251.5954   20933262.2034
  17857758.918   -25776151.03249 -20069736.44349  17857763.2584   17857769.1704
  18508231.599   -27097869.59249 -21082489.71849  18508233.0344   18508241.2624
  17257361.518   -35133680.99949 -27344992.33049  17257363.6584   17257370.6084
  18098484.841   -28953197.98449 -22538964.13149  18098487.5374   18098495.1584
  18831673.080   -26981812.32449 -21007339.71849  18831676.8784   18831682.8634
 95  1  9 18 56 29.9870000  0  6  1 25 22 14 15 29
  20932150.299     1147771.21749    890506.71449  20932155.8434   20932165.2104
  17856277.264   -25783930.77049 -20075798.59349  17856282.6624   17856289.1414
  18479388.980   -27249427.15749 -21200586.48249  18479392.6824   18479400.4944
  17230758.529   -35273482.23749 -27453928.35449  17230760.4684   17230767.3434
  18097996.634   -28955754.16149 -22540955.99449  18098001.0944   18098008.9044
  18806543.776   -27113875.05949 -21110245.73449  18806546.4824   18806552.3464
 95  1  9 18 56 59.9870000  0  6  1 25 22 14 15 29
  20931055.785     1142001.59649    886010.89449  20931056.6894   20931067.9894
  17854853.154   -25791420.84949 -20081635.03649  17854857.8154   17854863.5414
  18450611.105   -27400667.90049 -21318436.37749  18450612.7534   18450620.2824
  17204212.497   -35412978.57249 -27562626.79349  17204215.3114   17204222.0594
  18097584.398   -28957936.54049 -22542656.57649  18097585.8034   18097593.6134
  18781420.630   -27245885.71749 -21213111.17049  18781425.2814   18781431.5054
 95  1  9 18 57 29.9870000  0  6  1 25 22 14 15 29
  20929968.749     1136293.18449    881562.73749  20929971.1554   20929981.3724
  17853498.450   -25798544.37849 -20087185.85449  17853502.0804   17853508.0844
  18421907.070   -27551504.83549 -21435971.62349  18421909.4924   18421917.0874
  17177740.630   -35552089.87849 -27671025.20549  17177743.3224   17177749.9234
  18097253.991   -28959664.77449 -22544003.28049  18097257.0244   18097264.6114
  18756330.597   -27377751.81249 -21315863.95549  18756331.9364   18756338.2884
 95  1  9 18 57 59.9870000  0  5 25 22 14 15 29
  17852203.749   -25805363.21949 -20092499.26149  17852204.5474   17852210.6434
  18393267.189   -27702010.01449 -21553248.33749  18393269.0244   18393276.8084
  17151329.020   -35690882.39249 -27779175.21049  17151331.7294   17151338.5414
  18096998.809   -28961009.84849 -22545051.43349  18097001.1484   18097009.1234
  18731253.626   -27509523.02349 -21418542.80249  18731256.8634   18731263.0244
 95  1  9 18 58 29.9870000  0  5 25 22 14 15 29
  17850975.076   -25811810.03149 -20097522.76249  17850977.3144   17850983.2884
  18364706.142   -27852105.50649 -21670205.82449  18364707.1054   18364714.3074
  17124993.577   -35829276.09849 -27887014.45349  17124996.2414   17125003.0954
  18096829.121   -28961905.03549 -22545749.00849  18096830.7284   18096838.6114
  18706214.627   -27641119.17549 -21521085.24249  18706214.9584   18706220.9144
 95  1  9 18 58 59.9870000  0  5 25 22 14 15 29
  17849802.083   -25817975.85449 -20102327.32149  17849804.3304   17849810.2404
  18336209.309   -28001861.74649 -21786898.95249  18336209.5424   18336216.8394
  17098718.903   -35967352.92949 -27994606.78249  17098721.1344   17098727.9144
  18096726.192   -28962435.96449 -22546162.74749  18096730.0874   18096737.6974
  18681187.820   -27772619.36749 -21623552.90749  18681191.3354   18681197.3974
 95  1  9 18 59 29.9870000  0  5 25 22 14 15 29
  17848684.851   -25823838.92149 -20106895.96249  17848689.1524   17848695.0164
  18307782.833   -28151238.88749 -21903296.66849  18307783.3784   18307791.0634
  17072513.051   -36105066.39649 -28101915.97549  17072515.1774   17072521.9074
  18096703.384   -28962568.35149 -22546265.93849  18096704.7654   18096712.5804
  18656190.765   -27903982.54849 -21725913.80649  18656193.6274   18656199.8504
 95  1  9 18 59 59.9860000  0  5 25 22 14 15 29
  17847623.980   -25829423.38949 -20111247.50849  17847626.1354   17847631.9204
  18279430.842   -28300234.93249 -22019397.43349  18279430.8684   18279438.3384
  17046376.001   -36242409.28249 -28208936.40049  17046379.6604   17046386.3674
  18096750.908   -28962314.92549 -22546068.49249  18096753.0794   18096760.9144
  18631218.291   -28035227.67949 -21828182.72149  18631218.6424   18631225.1004
 95  1  9 19  0 29.9860000  0  5 25 22 14 15 29
  17846620.770   -25834712.60049 -20115368.98449  17846619.9274   17846625.6434
  18251149.960   -28448829.18649 -22135185.10249  18251154.0554   18251161.3274
  17020317.585   -36379355.77049 -28315647.93849  17020319.7664   17020326.3974
  18096874.919   -28961654.02049 -22545553.51949  18096878.6864   18096886.0494
  18606265.014   -28166352.55249 -21930357.91349  18606266.5464   18606272.6694
 95  1  9 19  0 59.9860000  0  5 25 22 14 15 29
  17845664.668   -25839737.70949 -20119284.66349  17845663.1884   17845669.5274
  18222944.934   -28597050.58649 -22250682.24549  18222948.4174   18222956.0564
  16994325.163   -36515942.53449 -28422079.17749  16994327.9664   16994334.7194
  18097073.392   -28960625.40449 -22544752.03449  18097074.5574   18097082.3044
  18581328.044   -28297396.09349 -22032469.73549  18581329.7334   18581335.7624
 95  1  9 19  1 29.9860000  0  5 25 22 14 15 29
  17844762.006   -25844469.49749 -20122971.78849  17844762.7954   17844768.6594
  18194813.613   -28744884.31049 -22365877.29049  18194816.6954   18194824.2664
  16968403.218   -36652161.31449 -28528223.67749  16968406.3204   16968413.1974
  18097342.180   -28959218.40749 -22543655.69849  18097342.3974   18097350.2724
  18556405.790   -28428350.20449 -22134511.87649  18556409.5944   18556416.0114
 95  1  9 19  1 59.9860000  0  5 25 22 14 15 29
  17843917.410   -25848903.03649 -20126426.51049  17843919.1314   17843925.5364
  18166756.840   -28892333.36649 -22480772.60149  18166758.0884   18166765.5854
  16942548.882   -36788032.53049 -28634097.34349  16942551.0734   16942557.9334
  18097678.134   -28957440.45949 -22542270.32049  18097680.5174   18097688.2194
  18531508.081   -28559211.08449 -22236481.36949  18531507.8504   18531514.0794
 95  1  9 19  2 29.9860000  0  5 25 22 14 15 29
  17843131.132   -25853029.28249 -20129641.77749  17843134.1484   17843140.3684
  18138771.061   -29039403.43149 -22595372.60349  18138771.5074   18138779.3194
  16916757.524   -36923572.12349 -28739712.60149  16916758.7724   16916765.5744
  18098082.484   -28955299.77349 -22540602.27849  18098088.0574   18098095.5584
  18506620.610   -28689977.35949 -22338377.14849  18506623.7674   18506630.1644
 95  1  9 19  2 59.9860000  0  5 25 22 14 15 29
  17842410.113   -25856818.60649 -20132594.51449  17842412.7654   17842418.8644
  18110861.958   -29186062.02349 -22709651.97749  18110863.2664   18110871.0164
  16891030.536   -37058760.91449 -28845054.51049  16891033.0254   16891039.9544
  18098568.347   -28952765.93849 -22538627.89449  18098570.3774   18098577.9264
  18481763.202   -28820613.84949 -22440171.80649  18481764.4874   18481770.8774
 95  1  9 19  3 29.9860000  0  5 25 22 14 15 29
  17841733.558   -25860374.15549 -20135365.08949  17841736.3454   17841742.7304
  18083013.368   -29332399.94949 -22823681.49049  18083015.7614   18083023.4654
  16865354.379   -37193687.25949 -28950191.91649  16865357.4134   16865364.2464
  18099104.971   -28949935.67549 -22536422.53649  18099108.9504   18099116.4884
  18456906.845   -28951215.86249 -22541939.59349  18456911.8314   18456918.2324
 95  1  9 19  3 59.9860000  0  5 25 22 14 15 29
  17841108.489   -25863658.16849 -20137924.07349  17841111.0924   17841117.3894
  18055236.273   -29478375.76349 -22937428.84749  18055237.6174   18055245.4504
  16839740.279   -37328287.36849 -29055075.11449  16839743.8844   16839750.6174
  18099709.789   -28946759.91349 -22533947.94449  18099712.8844   18099721.1444
  18432074.527   -29081725.36649 -22643635.30249  18432076.7104   18432082.9734
 95  1  9 19  4 29.9860000  0  5 25 22 14 15 29
  17840529.843   -25866689.32249 -20140286.03849  17840534.2914   17840540.4724
  18027525.174   -29623999.46649 -23050901.81549  18027526.1474   18027534.0094
  16814191.025   -37462554.05549 -29159698.50149  16814194.0884   16814200.6504
  18100375.143   -28943254.84349 -22531216.75549  18100379.8984   18100388.2054
  18407253.499   -29212169.12749 -22745279.78049  18407253.8654   18407260.0934
 95  1  9 19  4 59.9860000  0  5 25 22 14 15 29
  17840015.178   -25869407.72349 -20142404.29149  17840017.1544   17840023.8384
  17999893.413   -29769202.99449 -23164047.38549  17999894.6574   17999902.5454
  16788721.685   -37596397.68149 -29263992.22449  16788724.3594   16788731.1954
  18101122.371   -28939354.20649 -22528177.32649  18101122.6684   18101129.9334
  18382457.839   -29342472.56349 -22846814.91149  18382458.1684   18382464.3404
 95  1  9 19  5 29.9860000  0  5 25 22 14 15 29
  17839539.842   -25871908.72949 -20144353.13749  17839541.2644   17839547.4044
  17972320.839   -29914093.29249 -23276948.87449  17972322.9334   17972330.4564
  16763318.032   -37729892.66349 -29368014.26949  16763320.9334   16763327.9174
  18101916.891   -28935158.25849 -22524907.77249  18101920.9184   18101928.8844
  18357670.649   -29472728.44649 -22948312.97549  18357671.2984   18357677.6774
 95  1  9 19  5 59.9860000  0  5 25 22 14 15 29
  17839101.547   -25874181.62049 -20146124.24549  17839108.7234   17839114.8654
  17944813.642   -30058651.30249 -23389591.44649  17944814.5374   17944822.2254
  16737989.195   -37862998.74149 -29471733.27849  16737991.7914   16737998.8944
  18102774.394   -28930651.63849 -22521396.14949  18102778.6644   18102785.5404
  18332896.220   -29602916.28349 -23049758.02649  18332897.3004   18332903.6184
 95  1  9 19  6 29.9860000  0  5 25 22 14 15 29
  17838742.541   -25876090.56749 -20147611.76049  17838745.5054   17838751.8014
  17917397.869   -30202712.20549 -23501846.66449  17917400.8314   17917408.5544
  16712761.673   -37995564.91649 -29575031.58949  16712765.2924   16712772.3584
  18103721.937   -28925692.20449 -22517531.68249  18103722.4264   18103730.2644
  18308163.609   -29732890.30649 -23151036.47949  18308164.2954   18308170.2524
 95  1  9 19  6 59.9860000  0  5 25 22 14 15 29
  17838438.391   -25877686.89849 -20148855.67449  17838441.7714   17838447.5804
  17890069.209   -30346328.63049 -23613755.53049  17890071.2464   17890079.2254
  16687626.266   -38127651.57249 -29677956.24549  16687630.0614   16687636.8654
  18104740.571   -28920332.50749 -22513355.31949  18104742.0904   18104750.4384
  18283460.805   -29862688.76449 -23252178.12449  18283464.7184   18283470.4644
 95  1  9 19  7 29.9860000  0  5 25 22 14 15 29
  17838200.523   -25878934.58049 -20149827.92049  17838204.7044   17838210.8264
  17862835.186   -30489447.82149 -23725276.94049  17862837.0834   17862844.2124
  16662589.444   -38259227.28449 -29780482.76249  16662591.9914   16662598.7554
  18105844.497   -28914537.51349 -22508839.78049  18105845.0724   18105853.1134
  18258800.659   -29992283.87449 -23353161.31649  18258803.3434   18258809.5674
 95  1  9 19  7 59.9860000  0  5 25 22 14 15 29
  17838044.664   -25879752.29549 -20150465.12849  17838049.0124   17838055.0354
  17835711.210   -30631968.97049 -23836332.35149  17835715.5604   17835723.5864
  16637660.648   -38390228.33249 -29882561.49449  16637663.2194   16637669.9444
  18107040.641   -28908230.45749 -22503925.22749  18107044.9824   18107053.0894
  18234190.783   -30121604.66349 -23453930.74749  18234194.2924   18234200.5024
 95  1  9 19  8 29.9860000  0  5 25 22 14 15 29
  17837959.398   -25880193.91449 -20150809.27749  17837964.8954   17837970.9084
  17808696.677   -30773946.76449 -23946964.36549  17808698.4534   17808706.0644
  16612821.940   -38520754.21149 -29984269.96249  16612824.7834   16612831.4674
  18108326.325   -28901483.80849 -22498668.12349  18108328.9224   18108336.9744
  18209623.644   -30250714.94949 -23554536.15549  18209625.2914   18209631.8364
 95  1  9 19  8 59.9860000  0  5 25 22 14 15 29
  17837942.193   -25880306.33249 -20150896.88549  17837943.3304   17837949.8954
  17781773.744   -30915430.17749 -24057211.13949  17781775.4954   17781782.4254
  16588063.999   -38650859.37849 -30085650.58949  16588066.9474   16588073.5344
  18109683.665   -28894352.24249 -22493111.09149  18109686.1194   18109693.5654
  18185084.347   -30379665.08449 -23655016.75249  18185087.1164   18185093.3284
 95  1  9 19  9 29.9860000  0  5 25 22 14 15 29
  17837977.346   -25880113.67749 -20150746.78449  17837980.0554   17837986.1684
  17754944.332   -31056426.09849 -24167078.05849  17754944.2344   17754951.6724
  16563383.126   -38780558.24549 -30186714.63049  16563386.0474   16563392.7804
  18111108.452   -28886862.83049 -22487275.20949  18111111.3054   18111119.5834
  18160570.519   -30508485.45949 -23755396.24649  18160573.4824   18160579.7224
 95  1  9 19  9 59.9860000  0  5 25 22 14 15 29
  17838070.641   -25879633.86049 -20150372.92249  17838071.5564   17838077.7104
  17728200.004   -31196956.75949 -24276582.43149  17728202.1134   17728209.4734
  16538775.102   -38909878.37349 -30287483.54449  16538777.1454   16538783.7614
  18112598.114   -28879041.51149 -22481180.71749  18112600.1704   18112607.4964
  18136078.670   -30637190.65049 -23855685.97749  18136081.7174   18136087.6264
 95  1  9 19 10 29.9850000  0  5 25 22 14 15 29
  17838210.157   -25878894.45349 -20149796.77949  17838212.4614   17838218.5804
  17701541.833   -31337046.81349 -24385743.47949  17701543.7824   17701551.3704
  16514237.697   -39038817.95849 -30387955.93749  16514240.8064   16514247.3684
  18114146.454   -28870910.35249 -22474844.76449  18114147.3254   18114154.8844
  18111609.549   -30765784.79449 -23955889.18549  18111611.0324   18111617.0284
 95  1  9 19 10 59.9850000  0  5 25 22 14 15 29
  17838402.025   -25877888.22449 -20149012.72749  17838403.8964   17838410.1414
  17674963.398   -31476720.09549 -24494579.76949  17674964.8114   17674971.7944
  16489777.248   -39167360.17649 -30488118.69349  16489779.9514   16489786.6234
  18115751.484   -28862469.31049 -22468267.35849  18115753.3444   18115761.2604
  18087154.925   -30894293.44149 -24056025.76649  18087156.4234   18087162.3124
 95  1  9 19 11 29.9850000  0  5 25 22 14 15 29
  17838641.069   -25876617.83749 -20148022.83049  17838645.6394   17838651.7324
  17648461.510   -31615984.67649 -24603097.60049  17648463.8574   17648470.4904
  16465392.056   -39295510.92549 -30587976.41149  16465393.5784   16465400.1964
  18117414.040   -28853729.33249 -22461457.01949  18117417.0054   18117424.6134
  18062714.152   -31022723.72849 -24156101.28849  18062717.0034   18062723.3484
 95  1  9 19 11 59.9850000  0  5 25 22 14 15 29
  17838934.455   -25875080.57349 -20146824.97849  17838938.2894   17838944.2444
  17622037.368   -31754836.98349 -24711294.17249  17622040.8354   17622047.8484
  16441085.627   -39423241.45049 -30687506.68449  16441087.5284   16441094.1904
  18119136.986   -28844676.31649 -22454402.76449  18119139.2634   18119147.3934
  18038292.945   -31151048.77049 -24256094.80049  18038297.2804   18038303.4734
 95  1  9 19 12 29.9850000  0  5 25 22 14 15 29
  17839283.715   -25873247.33249 -20145396.50549  17839286.9544   17839293.6544
  17595704.437   -31893233.32849 -24819135.45049  17595705.1794   17595712.2164
  16416868.615   -39550497.59949 -30786667.31549  16416871.3914   16416878.0834
  18120926.360   -28835270.37349 -22447073.47849  18120929.4834   18120937.0804
  18013904.466   -31279225.35749 -24355972.64449  18013906.1624   18013912.3534
 95  1  9 19 12 59.9850000  0  5 25 22 14 15 29
  17839695.788   -25871093.65049 -20143718.33949  17839697.1834   17839703.1624
  17569462.285   -32031132.05749 -24926588.97949  17569463.9004   17569471.2424
  16392749.065   -39677251.22149 -30885436.36749  16392751.0724   16392757.7674
  18122790.793   -28825485.59849 -22439449.01749  18122791.3094   18122799.1344
  17989543.901   -31407222.57749 -24455710.71049  17989549.0864   17989555.4704
 95  1  9 19 13 29.9850000  0  5 25 22 14 15 29
  17840158.843   -25868662.65749 -20141824.07949  17840159.6654   17840165.9624
  17543313.724   -32168529.95749 -25033652.24449  17543317.9314   17543325.1774
  16368722.657   -39803510.82549 -30983820.47749  16368724.6494   16368731.1834
  18124719.822   -28815331.24649 -22431536.57149  18124723.5684   18124731.4144
  17965227.561   -31535022.55749 -24555295.09249  17965229.4084   17965235.9864
 95  1  9 19 13 59.9850000  0  5 25 22 14 15 29
  17840668.133   -25865967.98449 -20139724.35049  17840672.2864   17840678.6804
  17517264.376   -32305432.36249 -25140329.40649  17517266.0074   17517273.3954
  16344789.885   -39929275.17449 -31081818.66849  16344792.3894   16344799.0814
  18126719.820   -28804824.02349 -22423349.17249  18126723.0714   18126731.3314
  17940939.849   -31662643.55349 -24654740.00449  17940944.0514   17940950.0724
 95  1  9 19 14 29.9850000  0  5 25 22 14 15 29
  17841233.570   -25863014.57149 -20137423.01049  17841234.8624   17841240.3144
  17491307.076   -32441844.45449 -25246624.50849  17491307.6974   17491315.1774
  16320945.600   -40054580.66149 -31179459.31049  16320947.5104   16320954.1864
  18128781.395   -28793989.55649 -22414906.77149  18128785.0824   18128792.6734
  17916682.762   -31790129.55549 -24754079.73249  17916684.1884   17916690.2334
 95  1  9 19 14 59.9850000  0  5 25 22 14 15 29
  17841839.714   -25859818.28249 -20134932.40949  17841842.7264   17841849.0394
  17465440.116   -32577775.84249 -25352545.03649  17465440.9654   17465448.2254
  16297188.055   -40179432.61749 -31276746.54949  16297189.0504   16297195.5394
  18130904.780   -28782844.43349 -22406222.29149  18130905.8784   18130914.0444
  17892443.401   -31917496.94749 -24853327.02849  17892447.0964   17892453.0974
 95  1  9 19 15 29.9850000  0  5 25 22 14 15 29
  17842496.844   -25856370.84949 -20132246.11749  17842498.7214   17842504.5494
  17439665.023   -32713222.84849 -25458088.12249  17439666.3124   17439673.7024
  16273515.155   -40303830.11749 -31373679.66649  16273517.0474   16273523.5094
  18133082.825   -28771392.87049 -22397299.04349  18133084.8264   18133093.0774
  17868228.692   -32044751.54449 -24952486.44249  17868231.1834   17868237.2124
 95  1  9 19 15 59.9850000  0  5 25 22 14 15 29
  17843201.923   -25852654.76149 -20129350.48149  17843205.8274   17843212.2314
  17413982.291   -32848172.61549 -25563243.75149  17413985.7274   17413993.5514
  16249928.551   -40427775.66849 -31470260.61349  16249930.9094   16249937.5964
  18135318.376   -28759643.73449 -22388143.91349  18135321.2414   18135328.5444
  17844029.068   -32171916.28649 -25051575.84049  17844032.6984   17844038.6614
 95  1  9 19 16 29.9850000  0  5 25 22 14 15 29
  17843955.845   -25848697.22349 -20126266.70349  17843959.0144   17843964.9664
  17388397.789   -32982629.95949 -25668015.67449  17388399.6974   17388406.9864
  16226423.219   -40551295.62849 -31566509.93149  16226425.6124   16226432.5554
  18137609.947   -28747610.22349 -22378767.19949  18137611.0524   18137619.4834
  17819849.030   -32298988.68649 -25150593.28449  17819851.7244   17819857.6494
 95  1  9 19 16 59.9850000  0  5 25 22 14 15 29
  17844755.005   -25844500.73249 -20122996.73549  17844757.6604   17844763.3404
  17362906.586   -33116596.78149 -25772405.36949  17362906.5054   17362913.7264
  16203002.058   -40674377.46249 -31662417.85249  16203004.0684   16203010.7834
  18139955.011   -28735292.79249 -22369169.23149  18139955.3244   18139962.4874
  17795692.140   -32425941.58349 -25249517.60649  17795693.4514   17795699.3304
 95  1  9 19 17 29.9850000  0  5 25 22 14 15 29
  17845599.783   -25840064.23149 -20119539.73349  17845601.6384   17845607.8714
  17337504.848   -33250070.78649 -25876411.05449  17337507.1554   17337514.5354
  16179660.877   -40797034.03749 -31757994.40049  16179663.1864   16179669.9214
  18142350.439   -28722699.09449 -22359355.99549  18142351.6484   18142359.5894
  17771556.554   -32552780.74949 -25348353.30449  17771556.7204   17771562.5884
 95  1  9 19 17 59.9850000  0  5 25 22 14 15 29
  17846486.468   -25835403.47749 -20115907.99549  17846488.7924   17846494.2294
  17312202.045   -33383053.18149 -25980033.66549  17312201.4754   17312208.6264
  16156401.398   -40919264.51449 -31853238.92749  16156403.8064   16156410.3204
  18144795.077   -28709832.63249 -22349330.22749  18144799.5574   18144807.8334
  17747440.079   -32679504.51849 -25447099.08549  17747441.8164   17747447.7264
 95  1  9 19 18 29.9850000  0  5 25 22 14 15 29
  17847413.543   -25830539.44249 -20112117.85549  17847414.5064   17847420.5764
  17286982.167   -33515577.97349 -26083299.70149  17286982.7314   17286990.1014
  16133221.556   -41041072.08649 -31948153.91449  16133224.3874   16133231.1094
  18147295.439   -28696705.45349 -22339101.29349  18147297.8574   18147305.8504
  17723346.409   -32806107.78449 -25545750.96649  17723350.0734   17723356.0434
 95  1  9 19 18 59.9850000  0  5 25 22 14 15 29
  17848375.737   -25825477.16949 -20108173.25149  17848377.7704   17848383.4184
  17261847.277   -33647657.50049 -26186218.78449  17261848.7054   17261855.8544
  16110126.249   -41162440.89249 -32042727.00749  16110128.7604   16110135.3884
  18149842.655   -28683325.52749 -22328675.43549  18149844.0204   18149851.5944
  17699278.063   -32932600.20149 -25644316.47349  17699279.3594   17699285.4574
 95  1  9 19 19 29.9850000  0  5 25 22 14 15 29
  17849373.232   -25820225.74949 -20104081.26049  17849376.9844   17849383.0854
  17236797.559   -33779295.47649 -26288793.79349  17236798.9514   17236806.4534
  16087114.982   -41283364.01649 -32136952.81249  16087117.7514   16087124.4244
  18152435.398   -28669690.14949 -22318050.48449  18152438.4634   18152446.8244
  17675227.485   -33058984.75249 -25742797.93349  17675229.1464   17675235.3244
 95  1  9 19 19 59.9850000  0  5 25 22 14 15 29
  17850407.963   -25814797.70549 -20099851.63349  17850409.9834   17850415.8504
  17211825.719   -33910517.40949 -26391044.62849  17211828.2594   17211835.1854
  16064188.704   -41403844.46449 -32230833.67649  16064191.2354   16064197.7474
  18155079.885   -28655810.87749 -22307235.51449  18155080.4854   18155088.2534
  17651196.371   -33185267.83549 -25841200.32449  17651198.2684   17651204.2854
 95  1  9 19 20 29.9840000  0  5 25 22 14 15 29
  17851474.256   -25809189.11849 -20095481.34149  17851477.2294   17851483.4774
  17186937.557   -34041315.71649 -26492965.36449  17186938.0314   17186945.1844
  16041346.156   -41523882.06649 -32324369.46249  16041348.7044   16041355.4354
  18157765.065   -28641695.14949 -22296236.27349  18157765.9504   18157773.7704
  17627185.834   -33311449.66649 -25939523.82149  17627186.4874   17627192.4154
 95  1  9 19 20 59.9840000  0  5 25 22 14 15 29
  17852576.985   -25803402.91849 -20090972.63949  17852578.2014   17852584.5334
  17162128.708   -34171683.73749 -26594550.80749  17162130.0444   17162137.1464
  16018583.045   -41643508.29249 -32417584.69549  16018584.4784   16018591.2604
  18160491.939   -28627351.69449 -22285059.59149  18160495.4344   18160503.9174
  17603186.201   -33437548.61549 -26037782.72749  17603190.8074   17603196.6314
 95  1  9 19 21 29.9840000  0  5 25 22 14 15 29
  17853712.146   -25797432.58549 -20086320.45549  17853714.2834   17853720.4014
  17137406.734   -34301597.39949 -26695782.20549  17137408.1484   17137415.3314
  15995894.224   -41762732.73149 -32510486.84549  15995896.8924   15995903.6554
  18163265.808   -28612786.21149 -22273709.91349  18163266.6934   18163275.2964
  17579207.994   -33563567.27049 -26135979.06249  17579210.1944   17579216.0434
 95  1  9 19 21 59.9840000  0  5 25 22 14 15 29
  17854881.373   -25791282.93449 -20081528.54749  17854884.6974   17854890.8774
  17112774.300   -34431033.24449 -26796641.28349  17112777.1194   17112784.6984
  15973281.108   -41881566.09549 -32603084.26449  15973283.5064   15973290.3264
  18166076.567   -28598008.77249 -22262195.05849  18166078.8484   18166086.7624
  17555241.205   -33689512.73249 -26234118.36749  17555243.2754   17555249.4334
 95  1  9 19 22 29.9840000  0  5 25 22 14 15 29
  17856089.137   -25784950.46649 -20076594.18849  17856089.8684   17856096.1094
  17088238.917   -34559969.21649 -26897110.84949  17088241.5454   17088249.1474
  15950742.035   -42000010.32649 -32695378.46249  15950744.5504   15950751.3224
  18168928.604   -28583019.93249 -22250515.48949  18168931.8814   18168939.7274
  17531289.150   -33815380.90449 -26332197.44149  17531291.5024   17531297.7504
 95  1  9 19 22 59.9840000  0  5 25 22 14 15 29
  17857326.111   -25778429.86149 -20071513.22449  17857330.2764   17857336.9024
  17063799.391   -34688409.63449 -26997194.27749  17063800.1684   17063807.4264
  15928281.325   -42118047.29749 -32787355.31549  15928282.8304   15928289.4554
  18171821.036   -28567818.03049 -22238669.88049  18171824.5014   18171832.2144
  17507351.333   -33941172.31549 -26430216.70449  17507354.2894   17507360.4734
 95  1  9 19 23 29.9840000  0  5 25 22 14 15 29
  17858603.586   -25771722.46449 -20066286.70949  17858607.1374   17858613.0614
  17039450.783   -34816354.45949 -27096891.52049  17039452.8504   17039460.4174
  15905900.811   -42235652.50149 -32878995.72149  15905903.2484   15905909.9484
  18174755.643   -28552409.76649 -22226663.47949  18174757.3414   18174764.1804
  17483426.817   -34066898.18449 -26528184.89149  17483429.5124   17483435.4394
 95  1  9 19 23 59.9840000  0  5 25 22 14 15 29
  17859918.356   -25764831.02249 -20060916.78549  17859918.7084   17859924.6854
  17015194.807   -34943818.93349 -27196214.46649  17015197.3224   17015204.6994
  15883606.660   -42352809.07649 -32970286.54949  15883609.0914   15883615.7364
  18177725.013   -28536794.09049 -22214495.43949  18177727.6864   18177736.2094
  17459515.588   -34192553.58449 -26626098.16849  17459518.1434   17459524.0284
 95  1  9 19 24 29.9840000  0  6 25 18 22 14 15 29
  17861264.693   -25757747.15649 -20055396.91549  17861266.2274   17861272.7824
  19954212.597    -2439972.22559  -1879696.51859  19954211.6054   19954218.6564
  16991027.893   -35070813.84249 -27295171.51849  16991030.9504   16991038.3144
  15861400.897   -42469503.35749 -33061217.14449  15861402.7514   15861409.5284
  18180733.800   -28520968.63349 -22202163.95349  18180739.3994   18180747.4484
  17435616.877   -34318140.05449 -26723957.73349  17435619.7234   17435625.5004
 95  1  9 19 24 59.9840000  0  6 25 18 22 14 15 29
  17862649.449   -25750472.69749 -20049728.53349  17862650.9494   17862657.1684
  19924930.040    -2593787.93949  -1999552.86749  19924941.7484   19924948.0424
  16966955.189   -35197331.76749 -27393756.89749  16966955.4324   16966962.5694
  15839284.321   -42585725.93349 -33151780.17849  15839286.2064   15839293.1584
  18183788.598   -28504935.80749 -22189670.88549  18183790.1774   18183798.6174
  17411731.723   -34443658.80649 -26821764.53249  17411734.3674   17411740.1654
 95  1  9 19 25 29.9840000  0  6 25 18 22 14 15 29
  17864066.176   -25743033.45949 -20043931.75749  17864066.6764   17864072.8814
  19895672.142    -2747605.03049  -2119410.28749  19895671.5484   19895678.0694
  16942971.242   -35323363.12149 -27491963.13349  16942972.8104   16942980.0554
  15817253.664   -42701491.70249 -33241987.26049  15817256.9844   15817263.8854
  18186877.114   -28488706.80949 -22177024.94849  18186879.4574   18186886.7264
  17387860.438   -34569109.32649 -26919518.16149  17387861.9454   17387868.0514
 95  1  9 19 25 59.9840000  0  6 25 18 22 14 15 29
  17865506.778   -25735448.84849 -20038021.69749  17865509.5304   17865516.2554
  19866392.584    -2901432.03649  -2239275.43049  19866398.6604   19866406.1104
  16919074.466   -35448929.31149 -27589806.89149  16919077.7824   16919085.2674
  15795308.722   -42816816.60849 -33331850.81249  15795311.3724   15795318.0454
  18189998.799   -28472292.58949 -22164234.67449  18190002.2834   18190010.4894
  17364001.727   -34694490.65049 -27017217.87049  17364002.7114   17364008.7224
 95  1  9 19 26 29.9840000  0  6 25 18 22 14 15 29
  17866978.381   -25727714.43149 -20031994.91349  17866981.6294   17866988.0384
  19837126.466    -3055267.03249  -2359146.81749  19837124.6834   19837133.0724
  16895272.709   -35574018.49049 -27687278.96449  16895274.4214   16895281.5874
  15773447.507   -42931697.59549 -33421368.45749  15773450.1524   15773456.9304
  18193157.890   -28455695.64449 -22151302.04549  18193160.6674   18193169.6794
  17340155.145   -34819794.59449 -27114857.28849  17340158.0244   17340164.0424
 95  1  9 19 26 59.9840000  0  6 25 18 22 14 15 29
  17868475.080   -25719844.13349 -20025862.24849  17868479.5674   17868485.7754
  19807854.176    -3209109.52749  -2479024.05549  19807849.8954   19807858.0344
  16871557.888   -35698636.51349 -27784383.90049  16871560.3284   16871567.1424
  15751670.449   -43046137.82649 -33510542.64849  15751672.9274   15751679.8284
  18196350.331   -28438923.87149 -22138233.15949  18196352.4714   18196359.6904
  17316327.261   -34945017.00249 -27212433.16949  17316328.9374   17316335.0724
 95  1  9 19 27 29.9840000  0  6 25 18 22 14 15 29
  17869998.209   -25711840.95049 -20019626.02549  17870001.9094   17870008.6694
  19778560.105    -3362948.06349  -2598898.20349  19778575.1284   19778581.8354
  16847931.651   -35822795.99049 -27881131.52549  16847933.5884   16847941.0164
  15729977.852   -43160133.69449 -33599370.58349  15729980.2464   15729987.2084
  18199573.610   -28421981.40549 -22125031.26049  18199576.3974   18199584.6784
  17292515.276   -35070154.65249 -27309943.00649  17292515.8924   17292522.1614
 95  1  9 19 27 59.9840000  0  6 25 18 22 14 15 29
  17871548.901   -25703690.21249 -20013274.84449  17871553.2024   17871559.9854
  19749293.155    -3516787.58849  -2718773.12849  19749299.6884   19749306.7914
  16824391.129   -35946501.05349 -27977525.06049  16824392.9874   16824400.3874
  15708370.865   -43273680.23749 -33687848.39949  15708373.0234   15708379.9374
  18202829.727   -28404871.27449 -22111698.74049  18202832.2404   18202840.9944
  17268715.933   -35195214.82549 -27407392.46949  17268717.6404   17268724.1134
 95  1  9 19 28 29.9840000  0  6 25 18 22 14 15 29
  17873127.532   -25695396.85049 -20006812.52749  17873131.1514   17873137.7194
  19720012.803    -3670631.74749  -2838651.66449  19720023.9954   19720032.4014
  16800939.636   -36069740.30149 -28073555.62449  16800941.5584   16800948.4984
  15686847.566   -43386787.19149 -33775983.67849  15686849.6104   15686856.4864
  18206116.745   -28387601.72949 -22098241.98149  18206118.5674   18206126.0274
  17244931.155   -35320205.70349 -27504787.93849  17244932.8884   17244939.0724
 95  1  9 19 28 59.9840000  0  6 25 18 22 14 15 29
  17874738.155   -25686956.68249 -20000235.79949  17874737.2274   17874744.3484
  19690745.964    -3824476.43549  -2958530.62949  19690748.1614   19690756.3534
  16777582.628   -36192488.52849 -28169203.57849  16777583.3924   16777590.5564
  15665409.440   -43499443.36749 -33863767.70449  15665411.4824   15665418.5174
  18209435.235   -28370162.69649 -22084653.16749  18209437.4194   18209445.8304
  17221159.361   -35445123.72249 -27602126.63549  17221161.7574   17221167.9644
 95  1  9 19 29 29.9840000  0  6 25 18 22 14 15 29
  17876373.043   -25678344.33949 -19993524.91649  17876376.6944   17876382.9124
  19661466.393    -3978314.26349  -3078404.25449  19661473.7504   19661482.0934
  16754326.064   -36314700.69249 -28264433.81349  16754326.8244   16754334.8384
  15644062.990   -43611613.30249 -33951172.84049  15644066.3534   15644073.1774
  18212789.512   -28352528.83749 -22070912.52349  18212792.8464   18212800.7734
  17197407.488   -35569944.57649 -27699389.62349  17197408.7814   17197415.2704
 95  1  9 19 29 59.9840000  0  6 25 18 22 14 15 29
  17878046.844   -25669554.37749 -19986675.62949  17878048.6714   17878055.8004
  19632191.029    -4132138.39349  -3198267.18849  19632201.5804   19632210.3814
  16731175.244   -36436348.00449 -28359223.90449  16731178.3974   16731185.6054
  15622814.107   -43723284.54149 -34038189.38549  15622816.2464   15622822.9794
  18216185.571   -28334689.97249 -22057012.12449  18216188.3904   18216195.7134
  17173673.117   -35694653.18249 -27796565.13949  17173677.6804   17173684.1364
 95  1  9 19 30 29.9840000  0  6 25 18 22 14 15 29
  17879749.560   -25660598.85449 -19979697.31749  17879753.0364   17879759.7614
  19602923.995    -4285949.29149  -3318119.79249  19602932.9574   19602940.3684
  16708136.735   -36557422.16749 -28453567.39549  16708138.6004   16708145.6144
  15601660.420   -43834453.56249 -34124814.59049  15601661.3774   15601668.1804
  18219618.574   -28316651.98149 -22042956.60249  18219619.5984   18219629.3614
  17149964.187   -35819249.81049 -27893653.40549  17149967.7434   17149974.1084
 95  1  9 19 30 59.9830000  0  6 25 18 22 14 15 29
  17881485.590   -25651495.75349 -19972604.02849  17881485.9254   17881492.1414
  19573661.113    -4439756.81049  -3437969.77749  19573664.1654   19573672.6744
  16685205.498   -36677926.07449 -28547466.53249  16685207.4854   16685214.4204
  15580601.996   -43945111.67449 -34211041.68549  15580603.7354   15580610.6364
  18223085.923   -28298428.50549 -22028756.53149  18223088.2624   18223095.0044
  17126278.490   -35943731.40849 -27990652.04249  17126279.7074   17126286.0104
 95  1  9 19 31 29.9830000  0  6 25 18 22 14 15 29
  17883244.648   -25642235.71849 -19965388.43349  17883247.3054   17883254.4434
  19544389.901    -4593551.06049  -3557809.42249  19544397.9274   19544406.1274
  16662381.367   -36797875.74449 -28640933.79749  16662382.0444   16662389.1274
  15559640.492   -44055258.35849 -34296870.26649  15559643.5344   15559650.5044
  18226585.462   -28280022.23749 -22014413.98849  18226590.2064   18226600.3554
  17102612.216   -36068098.65649 -28087561.57349  17102613.4064   17102619.5554
 95  1  9 19 31 59.9830000  0  6 25 18 22 14 15 29
  17885036.254   -25632810.93249 -19958044.47349  17885041.2164   17885048.0414
  19515134.150    -4747306.04249  -3677618.46149  19515140.3604   19515147.4204
  16639658.780   -36917278.68549 -28733975.02949  16639660.1714   16639667.4654
  15538777.112   -44164898.11449 -34382303.83949  15538779.9064   15538786.8174
  18230126.111   -28261438.88749 -21999933.54549  18230127.1084   18230135.4164
  17078966.841   -36192354.04749 -28184383.94049  17078968.4074   17078974.4914
 95  1  9 19 32 29.9830000  0  6 25 18 22 14 15 29
  17886863.435   -25623220.66749 -19950571.57549  17886866.0754   17886873.1084
  19485884.544    -4901026.78849  -3797400.83049  19485887.9844   19485894.9904
  16617035.741   -37036163.32649 -28826612.39049  16617037.5294   16617044.4974
  15518008.379   -44274040.57849 -34467349.91349  15518010.8224   15518017.6724
  18233692.032   -28242693.01249 -21985326.39849  18233694.2104   18233702.1364
  17055339.714   -36316511.06649 -28281129.65549  17055342.1344   17055348.0294
 95  1  9 19 32 59.9830000  0  6 25 18 22 14 15 29
  17888720.774   -25613460.82249 -19942966.51849  17888723.6284   17888730.3654
  19456642.282    -5054712.32649  -3917155.76349  19456642.4964   19456650.1704
  16594508.168   -37154543.91649 -28918856.98149  16594510.0784   16594517.4324
  15497332.150   -44382696.26049 -34552016.67849  15497334.2394   15497341.1014
  18237288.057   -28223782.48849 -21970590.93749  18237292.3514   18237301.2624
  17031734.831   -36440563.42249 -28377793.81949  17031735.7354   17031741.7024
 95  1  9 19 33 29.9830000  0  6 25 18 22 14 15 29
  17890609.396   -25603537.75549 -19935234.27549  17890612.0094   17890618.4954
  19427401.264    -5208366.39149  -4036886.16949  19427402.9534   19427410.6774
  16572073.089   -37272436.52249 -29010721.32349  16572075.8534   16572083.3324
  15476742.294   -44490888.06749 -34636321.98049  15476745.9794   15476752.9194
  18240919.642   -28204721.52649 -21955738.30449  18240920.7384   18240928.8194
  17008142.181   -36564530.68849 -28474391.66949  17008145.4414   17008151.5084
 95  1  9 19 33 59.9830000  0  6 25 18 22 14 15 29
  17892526.196   -25593462.40749 -19927383.38549  17892528.8384   17892535.8284
  19398162.432    -5362002.99049  -4156602.97949  19398166.9564   19398174.1524
  16549732.974   -37389839.58649 -29102204.20849  16549734.8544   16549742.0824
  15456240.386   -44598629.72649 -34720276.52449  15456243.4764   15456250.4644
  18244573.417   -28185511.63049 -21940769.57649  18244575.0644   18244582.8124
  16984570.317   -36688408.27549 -28570919.63949  16984572.4784   16984578.2364
 95  1  9 19 34 29.9830000  0  6 25 18 22 14 15 29
  17894475.233   -25583239.44249 -19919417.45349  17894474.7284   17894480.8224
  19368931.492    -5515620.42249  -4276304.86249  19368934.5644   19368941.9404
  16527490.002   -37506727.71549 -29193285.83449  16527491.4814   16527498.6864
  15435825.996   -44705906.27349 -34803868.64249  15435829.4414   15435836.3474
  18248254.481   -28166143.08749 -21925677.20949  18248260.9794   18248269.7014
  16961016.634   -36812173.19149 -28667359.81049  16961020.7844   16961026.5394
 95  1  9 19 34 59.9830000  0  6 25 18 22 14 15 29
  17896442.550   -25572888.77849 -19911352.02549  17896444.2164   17896450.4644
  19339695.277    -5669229.71249  -4396000.42949  19339703.7134   19339711.5764
  16505348.344   -37623088.24749 -29283956.34749  16505349.2354   16505356.0904
  15415500.506   -44812726.63049 -34887105.28549  15415502.1864   15415509.0914
  18251970.068   -28146631.01949 -21910473.08049  18251974.9054   18251982.3404
  16937488.408   -36935833.78249 -28763718.69049  16937488.9344   16937494.6784
 95  1  9 19 35 29.9830000  0  6 25 18 22 14 15 29
  17898436.929   -25562395.31849 -19903175.31249  17898440.3584   17898447.0484
  19310475.756    -5822801.93149  -4515667.10849  19310480.4714   19310487.7554
  16483311.917   -37738887.47649 -29374189.48349  16483313.2314   16483320.4814
  15395265.065   -44919057.43949 -34969960.46249  15395268.1454   15395275.0114
  18255712.575   -28126971.32449 -21895153.86349  18255715.4114   18255723.8784
  16913976.215   -37059378.16049 -28859987.02449  16913979.2724   16913984.7964
 95  1  9 19 35 59.9830000  0  6 25 18 22 14 15 29
  17900462.435   -25551754.30849 -19894883.64449  17900466.1904   17900472.6234
  19281261.199    -5976335.20849  -4635303.44549  19281262.9074   19281271.1034
  16461386.310   -37854115.31649 -29463977.37549  16461385.8584   16461393.1864
  15375128.049   -45024876.40649 -35052416.80049  15375131.5524   15375138.3474
  18259480.802   -28107159.34849 -21879716.00649  18259484.9374   18259494.2424
  16890488.951   -37182806.00549 -28956164.54349  16890491.5954   16890497.3704
 95  1  9 19 36 29.9830000  0  6 25 18 22 14 15 29
  17902516.700   -25540964.75849 -19886476.22949  17902518.9374   17902525.6224
  19252047.563    -6129833.66349  -4754912.64749  19252053.7644   19252060.8914
  16439566.005   -37968768.84449 -29553317.75949  16439568.1154   16439575.4504
  15355094.103   -45130158.85049 -35134455.07249  15355096.7954   15355103.5834
  18263280.775   -28087199.19249 -21864162.68549  18263284.0684   18263291.9524
  16867022.591   -37306128.88049 -29052260.27649  16867023.8084   16867029.7284
 95  1  9 19 36 59.9830000  0  6 25 18 22 14 15 29
  17904595.140   -25530033.90749 -19877958.69249  17904599.3514   17904605.8894
  19222845.751    -6283300.33449  -4874497.08949  19222850.0544   19222857.3464
  16417852.787   -38082861.49649 -29642221.09749  16417857.1574   16417864.3214
  15335160.515   -45234910.32749 -35216079.60149  15335163.2074   15335170.1364
  18267108.161   -28067105.10649 -21848504.98849  18267108.8114   18267115.7954
  16843569.823   -37429356.41249 -29148281.71249  16843574.6274   16843580.1484
 95  1  9 19 37 29.9830000  0  6 25 18 22 14 15 29
  17906697.649   -25518993.48949 -19869355.79949  17906699.9724   17906706.7764
  19193647.739    -6436762.09849  -4994077.69949  19193646.4914   19193654.1584
  16396245.996   -38196423.37949 -29730710.84249  16396246.7504   16396253.9424
  15315324.958   -45339148.29949 -35297303.99649  15315327.6124   15315334.5874
  18270952.264   -28046897.74849 -21832759.03449  18270952.7344   18270961.3034
  16820135.838   -37552515.63049 -29244249.92049  16820138.0564   16820144.0404
 95  1  9 19 37 59.9830000  0  6 25 18 22 14 15 29
  17908817.134   -25507855.92549 -19860677.18149  17908819.5474   17908826.5524
  19164439.620    -6590238.51849  -5113669.72649  19164441.7094   19164448.7904
  16374735.941   -38309458.08649 -29818789.80549  16374737.1484   16374743.9294
  15295584.635   -45442884.18949 -35378137.15649  15295587.3834   15295594.2564
  18274814.885   -28026579.67149 -21816926.81049  18274819.1494   18274828.6694
  16796713.959   -37675600.90349 -29340160.50349  16796715.6054   16796721.8684
 95  1  9 19 38 29.9830000  0  6 25 18 22 14 15 29
  17910955.304   -25496623.28049 -19851924.50549  17910957.3304   17910963.6504
  19135229.206    -6743716.23549  -5233262.76649  19135236.1064   19135244.0434
  16353327.137   -38421957.54349 -29906451.69449  16353329.0874   16353335.9254
  15275936.345   -45546129.62549 -35458588.13949  15275940.2184   15275947.1034
  18278702.691   -28006154.85049 -21801011.42449  18278707.0994   18278713.0384
  16773309.186   -37798590.79849 -29435996.77349  16773311.5404   16773317.4624
 95  1  9 19 38 59.9830000  0  6 25 18 22 14 15 29
  17913111.934   -25485282.27549 -19843087.36849  17913115.0464   17913122.2814
  19106029.734    -6897180.81849  -5352845.54349  19106032.6984   19106040.0594
  16332023.028   -38533904.40349 -29993682.98649  16332026.2794   16332033.2144
  15256383.023   -45648888.29349 -35538659.82649  15256385.8154   15256392.7344
  18282611.713   -27985614.27949 -21785005.77849  18282614.8974   18282623.6364
  16749926.855   -37921465.80849 -29531743.52249  16749929.2084   16749934.9794
 95  1  9 19 39 29.9830000  0  6 25 18 22 14 15 29
  17915299.330   -25473794.66149 -19834135.99949  17915301.9474   17915308.0884
  19076841.845    -7050599.98749  -5472392.93849  19076837.7324   19076845.5514
  16310835.288   -38645255.98649 -30080450.40549  16310836.7064   16310844.1644
  15236929.960   -45751123.96949 -35618323.98249  15236931.3254   15236938.3214
  18286551.674   -27964922.35749 -21768882.24249  18286553.2444   18286560.8104
  16726572.210   -38044193.70849 -29627375.63149  16726574.6364   16726581.0264
 95  1  9 19 39 59.9830000  0  6 25 18 22 14 15 29
  17917518.686   -25462117.34649 -19825036.82349  17917523.5594   17917529.9544
  19047655.751    -7203940.53949  -5591879.03949  19047657.1204   19047667.0024
  16289764.386   -38755983.16749 -30166731.32649  16289766.1504   16289773.1164
  15217579.281   -45852803.83249 -35697555.05749  15217582.2864   15217589.1294
  18290522.140   -27944051.93349 -21752619.60849  18290523.9174   18290532.9884
  16703252.788   -38166735.95549 -29722863.10449  16703255.9654   16703261.9144
 95  1  9 19 40 29.9830000  0  6 25 18 22 14 15 29
  17919774.674   -25450288.70249 -19815819.73849  17919774.4804   17919781.0364
  19018481.584    -7357235.31949  -5711329.46949  19018486.4244   19018494.3304
  16268804.483   -38866126.22249 -30252557.06149  16268806.4644   16268813.5494
  15198330.377   -45953959.30249 -35776377.49949  15198332.8354   15198339.8364
  18294522.577   -27923037.88749 -21736245.09649  18294523.5624   18294530.9694
  16679961.251   -38289139.82349 -29818242.73149  16679963.0334   16679968.9364
 95  1  9 19 40 59.9830000  0  6 25 18 22 14 15 29
  17922056.398   -25438274.27849 -19806457.88649  17922060.6434   17922067.7584
  18989321.678    -7510450.18349  -5830717.62249  18989330.7654   18989339.3274
  16247964.163   -38975648.33749 -30337898.94949  16247965.1584   16247972.4784
  15179190.489   -46054538.14149 -35854750.62049  15179193.2844   15179200.3454
  18298551.918   -27901841.84049 -21719728.71449  18298556.3564   18298564.4244
  16656700.742   -38411375.39149 -29913491.21849  16656702.5464   16656708.2364
 95  1  9 19 41 29.9820000  0  6 25 18 22 14 15 29
  17924373.670   -25426108.41349 -19796978.01849  17924376.1444   17924383.0274
  18960189.060    -7663600.87149  -5950055.75949  18960187.0004   18960195.5784
  16227235.340   -39084576.05749 -30422777.67249  16227236.7374   16227244.3274
  15160158.313   -46154556.27749 -35932686.83049  15160160.7384   15160167.5254
  18302617.514   -27880493.31049 -21703093.53349  18302619.6484   18302627.6584
  16633465.393   -38533467.95649 -30008628.27549  16633469.1434   16633474.9284
 95  1  9 19 41 59.9820000  0  6 25 18 22 14 15 29
  17926716.972   -25413798.72449 -19787386.09149  17926718.3844   17926725.0954
  18931045.367    -7816719.47149  -6069368.89349  18931049.7864   18931057.4734
  16206613.506   -39192934.21249 -30507212.57249  16206617.1814   16206624.2424
  15141227.441   -46254037.10249 -36010204.35549  15141230.2454   15141236.9904
  18306703.776   -27859010.68149 -21686353.86149  18306707.0474   18306714.9224
  16610255.917   -38655440.70649 -30103671.96749  16610258.4304   16610264.2574
 95  1  9 19 42 29.9820000  0  6 25 18 22 14 15 29
  17929083.996   -25401356.73849 -19777691.05749  17929085.8544   17929093.0334
  18901916.207    -7969802.79649  -6188654.54349  18901918.7624   18901927.0044
  16186107.636   -39300706.84249 -30591191.22749  16186108.6084   16186115.7854
  15122396.917   -46352991.34649 -36087311.55749  15122399.6074   15122406.5694
  18310816.063   -27837412.36449 -21669523.98649  18310817.8764   18310825.7404
  16587065.278   -38777306.19049 -30198632.08249  16587068.1704   16587074.1654
 95  1  9 19 42 59.9820000  0  6 25 18 22 14 15 29
  17931478.410   -25388770.03049 -19767883.28549  17931481.4314   17931487.9964
  18872794.200    -8122848.06549  -6307910.56249  18872795.5514   18872802.9984
  16165715.695   -39407875.67449 -30674699.38749  16165714.8774   16165722.2934
  15103667.406   -46451415.32049 -36164005.56049  15103670.2824   15103677.0894
  18314945.167   -27815705.58249 -21652609.66649  18314948.0614   18314956.7594
  16563895.944   -38899057.27649 -30293503.04749  16563899.7494   16563905.5914
 95  1  9 19 43 29.9820000  0  6 25 18 22 14 15 29
  17933908.603   -25376014.95149 -19757944.26949  17933908.2874   17933914.7944
  18843672.114    -8275861.70449  -6427141.91749  18843677.9434   18843685.7474
  16145435.515   -39514427.33749 -30757726.63749  16145438.7744   16145446.1284
  15085039.238   -46549307.08349 -36240284.85449  15085041.9344   15085048.8354
  18319097.155   -27793886.70949 -21635607.98149  18319100.1114   18319107.9004
  16540753.054   -39020679.09349 -30388273.28649  16540755.6054   16540761.6594
 95  1  9 19 43 59.9820000  0  6 25 18 22 14 15 29
  17936363.326   -25363106.22949 -19747885.58449  17936365.1634   17936371.9324
  18814561.850    -8428851.45249  -6546354.66649  18814565.3144   18814572.4284
  16125277.498   -39620360.08349 -30840271.61949  16125280.2864   16125287.4014
  15066513.282   -46646666.88949 -36316149.63749  15066515.2844   15066521.9864
  18323270.430   -27771968.94249 -21618529.23449  18323270.3604   18323280.0484
  16517632.257   -39142180.01749 -30482949.32449  16517634.8944   16517640.9794
 95  1  9 19 44 29.9820000  0  6 25 18 22 14 15 29
  17938843.196   -25350075.75149 -19737732.00349  17938843.7784   17938851.0264
  18785453.136    -8581815.92149  -6665547.72049  18785456.6634   18785464.4204
  16105236.851   -39725682.36549 -30922340.91649  16105238.4234   16105245.2404
  15048088.072   -46743485.01649 -36391592.33349  15048091.2704   15048097.9984
  18327460.566   -27749959.51249 -21601379.08949  18327458.9284   18327467.8764
  16494535.406   -39263560.42949 -30577531.45749  16494536.8714   16494543.0484
 95  1  9 19 44 59.9820000  0  6 25 18 22 14 15 29
  17941344.043   -25336938.74249 -19727495.40549  17941345.4074   17941351.7824
  18756348.334    -8734766.19049  -6784729.72849  18756351.4534   18756359.7204
  16085303.727   -39830421.53649 -31003955.83749  16085307.0794   16085314.2014
  15029769.308   -46839755.31149 -36466608.14549  15029771.5524   15029778.4634
  18331662.295   -27727859.36049 -21584158.26549  18331664.0294   18331674.5524
  16471460.890   -39384814.90849 -30672015.46049  16471462.8964   16471468.9764
 95  1  9 19 45 29.9820000  0  6 25 18 22 14 15 29
  17943857.692   -25323724.95949 -19717198.98349  17943858.9204   17943866.0434
  18727246.365    -8887702.87849  -6903901.15549  18727248.3414   18727255.8374
  16065477.738   -39934614.54349 -31085145.17549  16065479.9074   16065486.8894
  15011553.459   -46935474.36349 -36541194.41849  15011556.7214   15011563.6734
  18335885.432   -27705676.59149 -21566873.07049  18335886.5754   18335894.1064
  16448408.074   -39505953.59149 -30766409.22949  16448411.1814   16448417.2074
 95  1  9 19 45 59.9820000  0  6 25 18 22 14 15 29
  17946379.086   -25310455.80449 -19706859.41249  17946384.4584   17946390.9244
  18698146.649    -9040602.84449  -7023043.97049  18698152.8994   18698160.5624
  16045753.940   -40038269.50649 -31165915.26349  16045755.0394   16045761.8104
  14993447.913   -47030624.84249 -36615337.64849  14993450.2344   14993457.1394
  18340121.719   -27683414.92649 -21549526.29549  18340122.4724   18340129.5844
  16425376.097   -39626993.61649 -30860726.12649  16425378.1334   16425384.0374
 95  1  9 19 46 29.9820000  0  6 25 18 22 14 15 29
  17948918.175   -25297125.12249 -19696471.91949  17948920.2654   17948927.8904
  18669055.377    -9193470.62649  -7142161.70749  18669063.0134   18669070.3194
  16026127.399   -40141399.11949 -31246275.98649  16026130.1444   16026136.8574
  14975448.989   -47125217.98049 -36689046.58649  14975449.9154   14975456.7724
  18344369.547   -27661079.39649 -21532122.03449  18344373.0894   18344381.8264
  16402361.272   -39747928.94849 -30954961.44049  16402364.7724   16402370.9514
 95  1  9 19 46 59.9820000  0  6 25 18 22 14 15 29
  17951465.372   -25283725.07049 -19686030.33249  17951471.1884   17951476.9224
  18639979.979    -9346307.69249  -7261255.50249  18639979.2624   18639986.5044
  16006603.780   -40243996.80649 -31326222.22049  16006606.0764   16006613.4114
  14957550.695   -47219260.10549 -36762326.16649  14957554.2724   14957561.0734
  18348633.752   -27638677.98649 -21514666.42649  18348635.3834   18348644.1374
  16379369.527   -39868764.43949 -31049118.95349  16379370.6074   16379376.5914
 95  1  9 19 47 29.9820000  0  6 25 18 22 14 15 29
  17954033.424   -25270243.78249 -19675525.45149  17954035.6824   17954042.7774
  18610898.936    -9499107.27649  -7380320.09949  18610902.3894   18610909.5444
  15987188.898   -40346030.93549 -31405729.31949  15987189.7644   15987197.1394
  14939764.417   -47312737.28749 -36835165.53249  14939765.8704   14939772.8144
  18352910.837   -27616209.79849 -21497158.83949  18352910.7994   18352919.6484
  16356394.839   -39989498.95449 -31143197.78149  16356395.3774   16356401.3534
 95  1  9 19 47 59.9820000  0  6 25 18 22 14 15 29
  17956617.871   -25256663.37649 -19664943.34349  17956620.2374   17956627.0404
  18581827.973    -9651873.85749  -7499358.97949  18581831.6784   18581838.7224
  15967888.006   -40447465.20949 -31484768.99549  15967887.4454   15967894.7564
  14922080.382   -47405666.63949 -36907578.01849  14922082.2394   14922089.0684
  18357195.808   -27593678.54249 -21479601.99949  18357198.9364   18357207.4304
  16333438.916   -40110122.44049 -31237190.09749  16333441.6004   16333447.6384
 95  1  9 19 48 29.9820000  0  6 25 18 22 14 15 29
  17959218.780   -25242978.32549 -19654279.69249  17959224.1604   17959231.5534
  18552760.919    -9804615.49649  -7618378.41449  18552765.4814   18552772.9264
  15948701.740   -40548279.93149 -31563325.90049  15948703.0464   15948710.2914
  14904495.984   -47498068.54849 -36979579.50749  14904498.9104   14904505.5874
  18361494.550   -27571082.46149 -21461994.79249  18361499.0584   18361507.5044
  16310511.321   -40230609.10449 -31331075.79549  16310513.5684   16310519.8664
 95  1  9 19 48 59.9820000  0  6 25 18 22 14 15 29
  17961846.311   -25229186.63949 -19643532.95249  17961849.5324   17961856.2254
  18523705.543    -9957328.72549  -7737375.70749  18523705.5164   18523712.6964
  15929636.305   -40648466.69949 -31641393.48949  15929638.1214   15929645.5854
  14887014.201   -47589934.17349 -37051163.11449  14887017.5854   14887024.2634
  18365811.908   -27548424.41649 -21444339.17449  18365809.8054   18365819.0444
  16287604.637   -40350976.73149 -31424868.73649  16287608.6514   16287614.8324
 95  1  9 19 49 29.9820000  0  6 25 18 22 14 15 29
  17964492.649   -25215289.19549 -19632703.80449  17964494.0024   17964500.1464
  18494646.478   -10110018.67749  -7856354.85549  18494649.5054   18494657.0234
  15910688.736   -40748041.54449 -31718984.25649  15910689.3834   15910696.9274
  14869631.974   -47681286.42649 -37122346.68949  14869633.5674   14869640.4984
  18370128.862   -27525718.10449 -21426645.98949  18370132.0134   18370139.8444
  16264722.741   -40471232.15249 -31518574.24549  16264724.7214   16264730.7674
 95  1  9 19 49 59.9820000  0  6 25 18 22 14 15 29
  17967154.491   -25201286.79649 -19621792.85949  17967158.2614   17967165.4354
  18465597.091   -10262668.17049  -7975302.46349  18465601.0514   18465608.8334
  15891854.464   -40847011.38149 -31796103.57849  15891856.1944   15891863.5664
  14852343.267   -47772134.25149 -37193137.20549  14852345.7664   14852352.6594
  18374459.444   -27502959.89149 -21408912.37549  18374461.8374   18374470.7134
  16241860.729   -40591368.69349 -31612187.12449  16241863.2934   16241869.3174
 95  1  9 19 50 29.9820000  0  7 25 18 19 22 14 15 29
  17969839.262   -25187187.43549 -19610806.38049  17969840.6234   17969847.9954
  18436558.377   -10415273.21349  -8094215.43949  18436561.2664   18436568.9944
  19322735.249    -3094037.50859  -2377483.48859  19322737.8504   19322748.3994
  15873132.217   -40945392.31649 -31872764.02549  15873135.0284   15873141.9934
  14835154.182   -47862463.41249 -37263523.57049  14835156.7314   14835163.6454
  18378800.761   -27480150.50649 -21391138.84849  18378802.5064   18378808.7194
  16219017.761   -40711408.82049 -31705724.87249  16219020.5504   16219026.6084
 95  1  9 19 50 59.9820000  0  7 25 18 19 22 14 15 29
  17972547.235   -25172964.22149 -19599723.38549  17972548.0174   17972554.3694
  18407530.254   -10567823.37349  -8213085.64649  18407531.9744   18407539.2304
  19290885.052    -3261404.36849  -2507899.18049  19290889.3974   19290898.7874
  15854526.825   -41043167.91849 -31948952.78549  15854528.7454   15854535.9764
  14818069.502   -47952242.21749 -37333481.08649  14818072.4374   14818079.1904
  18383155.214   -27457277.98749 -21373316.11849  18383155.5364   18383164.9054
  16196195.749   -40831342.49949 -31799179.67849  16196197.9254   16196203.8104
 95  1  9 19 51 29.9820000  0  7 25 18 19 22 14 15 29
  17975274.513   -25158627.76949 -19588552.13949  17975276.1414   17975283.8084
  18378512.392   -10720328.47149  -8331920.74649  18378511.3884   18378518.3694
  19259076.297    -3428585.09549  -2638169.80049  19259076.9424   19259086.4144
  15836033.214   -41140350.43349 -32024679.39949  15836035.6714   15836042.7904
  14801089.988   -48041473.71449 -37403012.12349  14801092.3334   14801099.1024
  18387514.998   -27434350.48749 -21355450.65949  18387517.2804   18387526.4894
  16173395.467   -40951155.23349 -31892540.23649  16173398.3804   16173404.3344
 95  1  9 19 51 59.9810000  0  7 25 18 19 22 14 15 29
  17978018.344   -25144193.05249 -19577304.35649  17978023.3244   17978029.5494
  18349492.685   -10872802.39249  -8450731.54849  18349496.1444   18349503.5674
  19227303.666    -3595567.54249  -2768285.99349  19227301.2594   19227310.3984
  15817654.431   -41236941.06949 -32099944.81949  15817655.2814   15817662.1194
  14784217.573   -48130143.07349 -37472105.13649  14784218.9674   14784225.7654
  18391887.688   -27411375.21549 -21337547.79849  18391889.6504   18391897.2104
  16150616.583   -41070852.92349 -31985811.15349  16150620.6734   16150626.7194
 95  1  9 19 52 29.9810000  0  7 25 18 19 22 14 15 29
  17980785.960   -25129661.26549 -19565980.91949  17980788.0474   17980795.2164
  18320479.325   -11025270.09649  -8569537.51349  18320483.2874   18320490.0174
  19195556.061    -3762356.22849  -2898251.21749  19195562.6444   19195571.8284
  15799384.077   -41332947.93249 -32174755.34749  15799385.8774   15799392.7504
  14767451.912   -48218241.61949 -37540753.36049  14767454.4594   14767461.2124
  18396270.090   -27388354.23649 -21319609.43749  18396271.5544   18396279.5304
  16127862.549   -41190430.69449 -32078988.63049  16127865.8464   16127871.7554
 95  1  9 19 52 59.9810000  0  7 25 18 19 22 14 15 29
  17983564.664   -25115042.19849 -19554589.50249  17983570.1374   17983577.7024
  18291474.976   -11177724.66049  -8688333.23749  18291471.4644   18291478.0594
  19163865.219    -3928946.87349  -3028062.06749  19163861.3964   19163870.4644
  15781226.546   -41428369.53449 -32249109.82749  15781227.5704   15781234.4324
  14750797.906   -48305761.62349 -37608950.77049  14750799.9834   14750806.7444
  18400658.103   -27365291.90149 -21301638.84349  18400658.5164   18400667.9404
  16105136.464   -41309857.26249 -32172048.28449  16105139.5424   16105145.7234
 95  1  9 19 53 29.9810000  0  7 25 18 19 22 14 15 29
  17986361.248   -25100367.13449 -19543154.44349  17986362.5814   17986369.5734
  18262460.145   -11330164.15049  -8807117.21849  18262462.9384   18262470.0234
  19132194.104    -4095347.41749  -3157724.90749  19132196.1784   19132205.3024
  15763175.905   -41523217.36549 -32323017.22449  15763178.6464   15763185.7264
  14734252.670   -48392708.79249 -37676701.82249  14734254.5314   14734261.3694
  18405050.292   -27342197.27149 -21283643.04749  18405054.6114   18405062.6214
  16082435.821   -41429147.56549 -32265001.76149  16082439.3094   16082445.3354
 95  1  9 19 53 59.9810000  0  7 25 18 19 22 14 15 29
  17989154.059   -25085663.70949 -19531697.25849  17989160.9144   17989168.3724
  18233454.242   -11482600.98149  -8925899.11649  18233455.1564   18233462.5694
  19100556.522    -4261586.19149  -3287261.69349  19100562.1404   19100572.1634
  15745237.968   -41617485.91049 -32396473.21649  15745239.7954   15745246.7554
  14717811.966   -48479101.50949 -37744020.82949  14717814.3574   14717821.3464
  18409449.282   -27319084.09449 -21265632.82149  18409452.6764   18409462.2694
  16059759.857   -41548322.60449 -32357865.42149  16059760.9684   16059767.1854
 95  1  9 19 54 29.9810000  0  7 25 18 19 22 14 15 29
  17991958.637   -25070936.94149 -19520221.89649  17991963.6444   17991970.9064
  18204445.511   -11635029.95649  -9044674.90649  18204449.2874   18204456.4594
  19068952.812    -4427682.16949  -3416687.12849  19068955.6854   19068964.8114
  15727411.812   -41711163.57649 -32469468.79049  15727413.4994   15727420.8144
  14701477.243   -48564944.11149 -37810911.17949  14701479.1604   14701486.0314
  18413851.943   -27295958.07849 -21247612.65649  18413852.2844   18413861.1144
  16037100.867   -41667385.10449 -32450641.39449  16037104.2814   16037110.3294
 95  1  9 19 54 59.9810000  0  7 25 18 19 22 14 15 29
  17994766.901   -25056166.65449 -19508712.65949  17994773.9374   17994781.5974
  18175443.574   -11787431.37549  -9163429.23449  18175447.9824   18175455.1394
  19037374.972    -4593632.85449  -3545999.38249  19037376.0134   19037385.3944
  15709703.530   -41804226.26449 -32541985.15949  15709704.4564   15709711.7504
  14685249.117   -48650222.79349 -37877362.10549  14685251.2094   14685258.0084
  18418256.547   -27272805.96549 -21229572.02349  18418259.7944   18418268.2734
  16014467.679   -41786326.05049 -32543322.64849  16014470.4344   16014476.3184
 95  1  9 19 55 29.9810000  0  7 25 18 19 22 14 15 29
  17997587.937   -25041357.51949 -19497173.11849  17997592.2294   17997599.4854
  18146446.630   -11939823.90249  -9282176.62549  18146448.2294   18146455.2584
  19005816.728    -4759453.65449  -3675210.48249  19005822.0004   19005829.9754
  15692108.419   -41896684.89149 -32614030.83149  15692109.7614   15692117.1534
  14669123.767   -48734956.60649 -37943388.45749  14669126.9244   14669133.7024
  18422664.120   -27249646.81449 -21211526.02849  18422663.3094   18422675.4754
  15991854.091   -41905161.66349 -32635921.82149  15991856.9074   15991862.8504
 95  1  9 19 55 59.9810000  0  7 25 18 19 22 14 15 29
  18000419.684   -25026500.95049 -19485596.63449  18000419.5694   18000426.7344
  18117451.214   -12092212.81449  -9400921.19049  18117449.8304   18117457.2744
  18974285.296    -4925146.00549  -3804321.41249  18974290.1914   18974299.9064
  15674625.787   -41988552.12949 -32685615.68449  15674628.3034   15674635.5274
  14653101.510   -48819154.49549 -38008997.20449  14653104.4444   14653111.1554
  18427069.808   -27226491.51349 -21193483.00449  18427073.9284   18427081.4824
  15969259.847   -42023895.50049 -32728441.68849  15969262.6384   15969268.6814
 95  1  9 19 56 29.9810000  0  7 25 18 19 22 14 15 29
  18003259.125   -25011567.95749 -19473960.56749  18003260.9644   18003268.4494
  18088456.909   -12244576.45649  -9519646.07649  18088456.6094   18088463.6714
  18942793.527    -5090685.51549  -3933313.19549  18942789.4564   18942799.4214
  15657257.489   -42079830.41849 -32756741.61749  15657258.5334   15657265.9384
  14637185.719   -48902797.45549 -38074173.53949  14637187.9104   14637194.6244
  18431477.083   -27203333.07149 -21175437.54149  18431478.5654   18431488.3844
  15946687.474   -42142512.35149 -32820870.39749  15946690.4374   15946696.5894
 95  1  9 19 56 59.9810000  0  7 25 18 19 22 14 15 29
  18006115.918   -24996563.23249 -19462268.59349  18006116.8704   18006123.1044
  18059463.002   -12396910.57049  -9638347.95649  18059467.4304   18059475.1304
  18911310.946    -5256073.94949  -4062187.25349  18911317.6314   18911325.9594
  15639996.811   -42170533.54949 -32827419.37149  15639998.2204   15640005.3264
  14621372.656   -48985896.18749 -38138925.80249  14621374.7664   14621381.5284
  18435882.111   -27180180.72349 -21157396.78649  18435885.3694   18435893.4494
  15924138.872   -42261011.80749 -32913207.63649  15924140.7604   15924146.9584
 95  1  9 19 57 29.9810000  0  7 25 18 19 22 14 15 29
  18008985.085   -24981490.68649 -19450523.81049  18008984.7574   18008992.5314
  18030484.475   -12549206.21849  -9757019.87349  18030487.3924   18030494.2774
  18879874.253    -5421297.50349  -4190932.86349  18879876.7514   18879885.0074
  15622847.450   -42260649.90549 -32897639.90049  15622849.7174   15622856.8314
  14605662.245   -49068449.53449 -38203253.08449  14605665.2904   14605672.0814
  18440291.803   -27157029.30649 -21139356.74249  18440290.7204   18440300.5554
  15901610.084   -42379399.51749 -33005457.79749  15901612.4684   15901618.5254
 95  1  9 19 57 59.9810000  0  7 25 18 19 22 14 15 29
  18011857.671   -24966376.74549 -19438746.76249  18011860.6474   18011867.8974
  18001505.507   -12701476.28449  -9875671.84349  18001510.5614   18001518.2034
  18848462.894    -5586367.99449  -4319559.12849  18848463.4154   18848473.7564
  15605808.977   -42350183.80549 -32967406.56749  15605812.2144   15605818.9484
  14590055.681   -49150468.15049 -38267163.69349  14590057.7764   14590064.4624
  18444691.356   -27133891.06149 -21121327.06049  18444694.2324   18444702.9754
  15879099.017   -42497699.11349 -33097639.29449  15879100.7904   15879106.8964
 95  1  9 19 58 29.9810000  0  7 25 18 19 22 14 15 29
  18014739.908   -24951228.09049 -19426942.65749  18014743.4504   18014750.5344
  17972539.509   -12853727.03849  -9994308.77749  17972538.1424   17972546.3754
  18817078.180    -5751282.95849  -4448064.15249  18817082.0674   18817091.6424
  15588886.579   -42439115.64449 -33036704.10449  15588888.7854   15588895.7104
  14574549.778   -49231954.12149 -38330659.25649  14574551.4584   14574558.0984
  18449091.827   -27110772.75949 -21103312.84749  18449093.4274   18449101.6504
  15856604.534   -42615906.74349 -33189749.13349  15856606.7514   15856612.6074
 95  1  9 19 58 59.9810000  0  7 25 18 19 22 14 15 29
  18017626.991   -24936061.00749 -19415124.16349  18017630.1224   18017636.8524
  17943561.004   -13005975.68549 -10112944.06949  17943566.1864   17943573.3604
  18785721.966    -5916049.72049  -4576453.78849  18785728.6454   18785735.4734
  15572077.299   -42527444.24849 -33105531.58249  15572080.4894   15572087.6304
  14559142.173   -49312916.98649 -38393747.20049  14559144.5674   14559151.4164
  18453487.122   -27087681.87749 -21085319.94549  18453487.7754   18453496.2904
  15834126.786   -42734036.09249 -33281797.96649  15834127.4544   15834133.2254
 95  1  9 19 59 29.9810000  0  7 25 18 19 22 14 15 29
  18020519.736   -24920871.79549 -19403288.46249  18020520.5014   18020526.6214
  17914589.931   -13158222.43549 -10231577.88449  17914594.9074   17914602.0544
  18754404.301    -6080654.27149  -4704717.06049  18754404.7884   18754412.8974
  15555388.300   -42615158.86349 -33173880.62449  15555389.0704   15555396.0854
  14543836.563   -49393350.32149 -38456422.52449  14543838.7774   14543845.5504
  18457874.790   -27064615.54949 -21067346.25749  18457876.1594   18457886.6454
  15811660.744   -42852089.80749 -33373787.86249  15811662.4364   15811668.2134
 95  1  9 19 59 59.9810000  0  7 25 18 19 22 14 15 29
  18023412.612   -24905652.00549 -19391428.90749  18023416.0734   18023423.1324
  17885618.324   -13310469.93949 -10350212.30349  17885623.2504   17885630.0644
  18723113.535    -6245092.49949  -4832850.58949  18723112.5194   18723121.8004
  15538808.406   -42702272.28049 -33241761.19849  15538811.8774   15538818.8104
  14528629.988   -49473260.67049 -38518690.32949  14528632.4054   14528639.0964
  18462257.898   -27041588.15749 -21049402.98149  18462259.3224   18462268.5204
  15789209.510   -42970063.90649 -33465715.72049  15789212.6964   15789218.5494
 95  1  9 20  0 29.9810000  0  7 25 18 19 22 14 15 29
  18026314.462   -24890397.99349 -19379542.69249  18026319.1444   18026326.3424
  17856647.747   -13462721.16549 -10468849.61749  17856650.6924   17856658.0804
  18691854.648    -6409364.22349  -4960854.48949  18691851.5354   18691861.9954
  15522345.363   -42788791.78149 -33309178.98149  15522347.7094   15522354.7714
  14513522.479   -49552649.71549 -38580551.92249  14513525.0504   14513531.8614
  18466632.774   -27018605.49549 -21031494.43349  18466632.9234   18466640.8014
  15766777.153   -43087952.30849 -33557576.79849  15766779.1404   15766785.1014
 95  1  9 20  0 59.9810000  0  7 25 18 19 22 14 15 29
  18029232.452   -24875079.61949 -19367606.36249  18029234.3854   18029241.5324
  17827685.744   -13614936.89149 -10587459.26049  17827685.2434   17827692.7834
  18660633.453    -6573441.33449  -5088706.72449  18660630.0154   18660640.2924
  15505997.247   -42874705.17349 -33376124.47049  15505998.6184   15506006.0504
  14498521.127   -49631481.88949 -38641979.59249  14498523.6814   14498530.5734
  18471002.742   -26995633.91749 -21013594.55249  18471003.5824   18471012.7644
  15744367.105   -43205715.49749 -33649340.30649  15744369.7084   15744375.5304
 95  1  9 20  1 29.9810000  0  7 25 18 19 22 14 15 29
  18032156.312   -24859708.90649 -19355629.19549  18032159.1534   18032165.7454
  17798722.679   -13767120.81849 -10706044.11649  17798725.1264   17798732.7994
  18629437.394    -6737332.12249  -5216413.81049  18629442.5524   18629451.6584
  15489762.383   -42960017.67349 -33442601.72749  15489764.5004   15489771.5844
  14483625.939   -49709756.02449 -38702972.42249  14483628.7264   14483635.5614
  18475370.261   -26972686.17349 -20995713.27949  18475370.5934   18475379.8134
  15721982.833   -43323342.71549 -33740997.86349  15721985.7504   15721991.8554
 95  1  9 20  1 59.9810000  0  7 25 18 19 22 14 15 29
  18035089.265   -24844297.23249 -19343620.14249  18035091.2554   18035099.5774
  17769765.497   -13919293.25849 -10824620.03349  17769768.0684   17769774.8804
  18598283.134    -6901051.36749  -5343987.12949  18598288.5074   18598297.4004
  15473638.988   -43044749.87449 -33508626.79949  15473640.3994   15473647.8114
  14468836.423   -49787476.08049 -38763533.50449  14468839.3354   14468846.0274
  18479728.322   -26949774.17249 -20977859.87049  18479729.8324   18479740.1864
  15699626.803   -43440832.79949 -33832548.56149  15699628.1504   15699634.0764
 95  1  9 20  2 29.9800000  0  7 25 18 19 22 14 15 29
  18038018.908   -24828895.21649 -19331618.62049  18038023.0014   18038029.8294
  17740809.833   -14071467.25149 -10943197.13349  17740810.2744   17740817.3334
  18567155.898    -7064634.96349  -5471454.88449  18567158.4224   18567167.2024
  15457619.338   -43128918.48049 -33574212.71449  15457623.6154   15457630.9364
  14454148.542   -49864660.73149 -38823677.38749  14454151.3884   14454158.1994
  18484078.260   -26926924.25849 -20960054.81349  18484079.3324   18484087.2764
  15677289.751   -43558204.42249 -33924006.95449  15677293.1624   15677299.0764
 95  1  9 20  2 59.9800000  0  7 25 18 19 22 14 15 29
  18040952.951   -24813487.40349 -19319612.54749  18040954.0484   18040962.4824
  17711856.614   -14223629.91449 -11061765.39949  17711854.5404   17711861.7224
  18536047.008    -7228081.53549  -5598815.80749  18536056.0284   18536066.1884
  15441713.973   -43212513.50349 -33639351.68349  15441716.0704   15441723.1984
  14439565.583   -49941295.08949 -38883392.47149  14439568.2394   14439575.0884
  18488415.354   -26904127.90049 -20942291.42149  18488417.8704   18488425.9484
  15654977.362   -43675458.83249 -34015374.01649  15654980.3504   15654986.4264
 95  1  9 20  3 29.9800000  0  7 25 18 19 22 14 15 29
  18043879.006   -24798088.66249 -19307613.56449  18043883.8734   18043892.2264
  17682892.023   -14375798.33849 -11180338.17449  17682897.9034   17682905.0924
  18504973.789    -7391390.16749  -5726069.21349  18504979.7384   18504987.2624
  15425916.881   -43295537.05349 -33704045.34549  15425917.0154   15425924.5624
  14425086.176   -50017384.68949 -38942683.07149  14425088.8744   14425095.7784
  18492737.460   -26881404.26849 -20924584.79149  18492740.7824   18492751.2774
  15632683.312   -43792612.13849 -34106662.29049  15632686.7674   15632692.5994
 95  1  9 20  3 59.9800000  0  7 25 18 19 22 14 15 29
  18046815.048   -24782673.13449 -19295601.51049  18046819.4354   18046826.2004
  17653940.789   -14527950.17549 -11298898.01449  17653944.1694   17653951.1694
  18473930.134    -7554541.90649  -5853200.47549  18473932.5494   18473940.5644
  15410228.508   -43377975.44949 -33768283.04749  15410229.5704   15410236.9164
  14410713.705   -50092910.72649 -39001534.53249  14410716.7584   14410723.5054
  18497053.756   -26858735.99749 -20906921.29749  18497054.6944   18497064.2024
  15610412.502   -43909647.37749 -34197858.56849  15610415.9184   15610421.6754
 95  1  9 20  4 29.9800000  0  7 25 18 19 22 14 15 29
  18049756.611   -24767232.78649 -19283570.10849  18049755.7354   18049764.9354
  17624994.548   -14680058.42949 -11417423.88949  17624998.8094   17625005.8544
  18442915.456    -7717520.37049  -5980196.69249  18442918.7904   18442928.4664
  15394655.837   -43459810.71649 -33832050.78049  15394657.1244   15394664.2454
  14396451.986   -50167856.38049 -39059933.74449  14396455.1574   14396461.9274
  18501354.495   -26836116.12349 -20889295.34649  18501360.1984   18501367.9404
  15588166.015   -44026557.78249 -34288957.57049  15588168.6094   15588174.4334
 95  1  9 20  4 59.9800000  0  7 25 18 19 22 14 15 29
  18052689.145   -24751790.32549 -19271537.08449  18052694.7584   18052703.2554
  17596049.978   -14832177.55749 -11535958.22349  17596051.7224   17596058.7524
  18411934.033    -7880345.93349  -6107073.68249  18411934.8854   18411943.1844
  15379188.292   -43541087.48449 -33895383.32649  15379190.6214   15379197.7234
  14382295.154   -50242255.64149 -39117907.20049  14382297.6414   14382304.3624
  18505641.738   -26813581.18249 -20871735.77849  18505647.8044   18505657.5114
  15565935.171   -44143380.83249 -34379988.50949  15565937.8064   15565943.6024
 95  1  9 20  5 29.9800000  0  7 25 18 19 22 14 15 29
  18055637.932   -24736327.07949 -19259487.83649  18055637.8954   18055646.2944
  17567106.729   -14984282.60649 -11654481.58449  17567106.8164   17567114.0514
  18380983.873    -8043001.10549  -6233817.98749  18380982.2784   18380991.4654
  15363835.251   -43621774.77349 -33958256.53149  15363836.1834   15363842.8114
  14368246.098   -50316083.42849 -39175435.34749  14368248.4774   14368255.3034
  18509925.921   -26791105.81449 -20854222.54649  18509926.1874   18509932.1244
  15543725.787   -44260094.05049 -34470933.85849  15543728.1154   15543733.9524
 95  1  9 20  5 59.9800000  0  7 25 18 19 22 14 15 29
  18058579.678   -24720848.07449 -19247426.35849  18058582.9854   18058590.9044
  17538161.352   -15136362.56549 -11772985.41049  17538166.9824   17538174.0654
  18350060.856    -8205491.84749  -6360434.08049  18350062.1984   18350070.3574
  15348592.223   -43701867.09149 -34020666.13149  15348595.0094   15348601.7504
  14354303.471   -50389347.73449 -39232524.42349  14354306.8154   14354313.6324
  18514195.003   -26768691.74149 -20836757.06449  18514188.3084   18514200.1814
  15521533.956   -44376712.78649 -34561805.59449  15521536.2964   15521542.2674
 95  1  9 20  6 29.9800000  0  7 25 18 19 22 14 15 29
  18061531.721   -24705353.12249 -19235352.32449  18061532.8494   18061539.1334
  17509225.667   -15288420.75149 -11891472.26549  17509231.1124   17509238.4144
  18319174.667    -8367810.87249  -6486916.41549  18319173.0344   18319182.0384
  15333467.818   -43781349.86349 -34082600.75649  15333469.7484   15333477.0384
  14340468.485   -50462055.78149 -39289180.05349  14340470.9114   14340477.7184
  18518438.925   -26746336.59149 -20819337.68649  18518442.7114   18518453.6574
  15499358.307   -44493242.82349 -34652608.21649  15499361.2504   15499367.3694
 95  1  9 20  6 59.9800000  0  7 25 18 19 22 14 15 29
  18064477.497   -24689863.25449 -19223282.32149  18064480.0194   18064487.9874
  17480292.421   -15440489.74949 -12009967.54649  17480293.5434   17480300.4854
  18288309.537    -8529986.92049  -6613287.29349  18288312.0054   18288320.1404
  15318456.579   -43860241.39649 -34144074.66749  15318457.2854   15318464.6324
  14326732.319   -50534240.45549 -39345427.86249  14326734.5664   14326741.4374
  18522676.587   -26724068.80949 -20801986.31049  18522681.5144   18522691.4364
  15477196.961   -44609703.61549 -34743356.88049  15477199.5134   15477205.4914
 95  1  9 20  7 29.9800000  0  7 25 18 19 22 14 15 29
  18067424.271   -24674363.10949 -19211204.39649  18067429.1094   18067437.7724
  17451359.947   -15592541.07449 -12128449.06449  17451358.8824   17451366.3724
  18257481.364    -8692007.32649  -6739536.83949  18257480.4104   18257489.4404
  15303561.121   -43938512.89049 -34205065.43549  15303562.9934   15303569.7854
  14313098.208   -50605885.16649 -39401254.92049  14313101.0934   14313107.7894
  18526904.516   -26701874.46849 -20784692.05849  18526905.3394   18526913.1844
  15455053.918   -44726063.53949 -34834026.94349  15455057.0754   15455062.9494
 95  1  9 20  7 59.9800000  0  7 25 18 19 22 14 15 29
  18070372.638   -24658881.53249 -19199140.86749  18070375.8884   18070383.3344
  17422419.825   -15744610.35149 -12246944.56549  17422421.3434   17422428.1754
  18226672.025    -8853877.85949  -6865669.70749  18226676.8684   18226686.1914
  15288777.632   -44016194.03249 -34265596.18649  15288780.3904   15288787.5404
  14299563.777   -50677011.62049 -39456678.14449  14299566.3054   14299572.9244
  18531106.152   -26679779.25849 -20767474.88849  18531109.8804   18531117.7414
  15432930.479   -44842327.07749 -34924621.90649  15432932.9904   15432938.7584
 95  1  9 20  8 29.9800000  0  7 25 18 19 22 14 15 29
  18073319.387   -24643399.57149 -19187077.06749  18073321.2054   18073329.3304
  17393476.036   -15896683.98149 -12365443.46249  17393482.8044   17393489.1844
  18195900.601    -9015583.45349  -6991673.96749  18195906.4154   18195914.5674
  15274111.584   -44093275.51649 -34325659.67249  15274112.6964   15274119.8014
  14286132.403   -50747591.36149 -39511675.35649  14286135.2634   14286142.0734
  18535294.730   -26657771.80549 -20750326.32049  18535297.6904   18535307.8974
  15410830.893   -44958462.33249 -35015116.90349  15410832.9574   15410838.8464
 95  1  9 20  8 59.9800000  0  7 25 18 19 22 14 15 29
  18076265.595   -24627922.25649 -19175016.88149  18076267.2984   18076274.4144
  17364542.826   -16048742.11349 -12483930.27949  17364546.4034   17364553.0744
  18165170.042    -9177122.23649  -7117548.27849  18165165.5674   18165175.8634
  15259555.661   -44169764.41349 -34385261.40549  15259557.4474   15259564.6704
  14272811.088   -50817599.52549 -39566227.18549  14272813.1894   14272819.9364
  18539464.160   -26635853.56849 -20733247.32649  18539468.3174   18539478.0184
  15388755.280   -45074469.51449 -35105512.10949  15388757.6104   15388763.2744
 95  1  9 20  9 29.9800000  0  7 25 18 19 22 14 15 29
  18079206.463   -24612454.58649 -19162964.13949  18079211.0544   18079217.9614
  17335612.229   -16200787.18249 -12602406.92449  17335613.1464   17335620.3744
  18134451.813    -9338493.98049  -7243292.35749  18134458.1184   18134466.1484
  15245112.565   -44245670.89649 -34444409.30949  15245112.8344   15245119.8544
  14259597.970   -50887037.61349 -39620334.80349  14259599.5404   14259606.3824
  18543618.588   -26614032.84549 -20716244.29349  18543620.5954   18543629.8864
  15366700.380   -45190363.89049 -35195819.41449  15366703.3764   15366709.3084
 95  1  9 20  9 59.9800000  0  7 25 18 19 22 14 15 29
  18082152.229   -24596988.65049 -19150912.81649  18082153.0044   18082161.5424
  17306681.508   -16352815.13649 -12720870.22349  17306683.1504   17306690.5664
  18103777.581    -9499697.06449  -7368905.11249  18103782.0894   18103790.8104
  15230777.448   -44320993.20249 -34503102.00549  15230779.2874   15230786.2314
  14246492.920   -50955906.37649 -39673998.78949  14246494.2654   14246501.1744
  18547750.933   -26592310.28549 -20699317.55549  18547754.9654   18547762.6204
  15344665.875   -45306159.48149 -35286049.74049  15344668.5754   15344674.2504
 95  1  9 20 10 29.9800000  0  7 25 18 19 22 14 15 29
  18085091.009   -24581534.35449 -19138870.53649  18085094.9254   18085102.0994
  17277754.693   -16504832.97249 -12839325.63549  17277755.3474   17277762.1704
  18073123.560    -9660761.33049  -7494409.62249  18073130.6034   18073140.8374
  15216551.947   -44395752.73249 -34561356.17449  15216553.3764   15216560.1584
  14233489.864   -51024236.04549 -39727242.70049  14233491.9754   14233498.5524
  18551860.423   -26570709.57249 -20682485.88449  18551865.1824   18551874.5534
  15322646.513   -45421879.85449 -35376221.45049  15322647.6884   15322653.3094
 95  1  9 20 10 59.9800000  0  7 25 18 19 22 14 15 29
  18088035.536   -24566064.46249 -19126816.16849  18088038.2294   18088046.3014
  17248829.640   -16656824.84849 -12957760.83349  17248832.1734   17248839.2704
  18042509.847    -9821660.41249  -7619785.40449  18042515.2314   18042522.1364
  15202436.976   -44469922.26449 -34619150.60449  15202439.1604   15202446.2964
  14220591.867   -51092013.93949 -39780056.65749  14220594.1754   14220600.7424
  18555950.712   -26549203.23649 -20665727.89849  18555957.3164   18555968.1904
  15300646.047   -45537485.20349 -35466303.53649  15300648.7654   15300654.4234
 95  1  9 20 11 29.9800000  0  7 25 18 19 22 14 15 29
  18090976.899   -24550603.78549 -19114768.93149  18090980.5734   18090987.8434
  17219905.234   -16808816.67349 -13076195.98849  17219909.5464   17219915.7944
  18011920.478    -9982410.21549  -7745044.90349  18011923.9104   18011933.2584
  15188435.698   -44543505.02849 -34676487.81849  15188436.9244   15188443.8574
  14207792.499   -51159266.46349 -39832461.23449  14207796.2584   14207802.8754
  18560027.917   -26527805.60449 -20649054.47849  18560029.6824   18560039.5274
  15278668.922   -45652973.42549 -35556294.35649  15278672.1524   15278677.7684
 95  1  9 20 11 59.9800000  0  7 25 18 19 22 14 15 29
  18093916.478   -24535165.25349 -19102738.99249  18093918.5304   18093926.3654
  17190985.922   -16960805.21249 -13194628.58749  17190987.1554   17190993.9874
  17981357.042   -10143018.99749  -7870194.48649  17981361.5244   17981370.1944
  15174544.724   -44616504.15249 -34733370.24449  15174545.3274   15174552.5904
  14195095.385   -51225993.09249 -39884456.01849  14195098.5904   14195105.4964
  18564076.536   -26506517.44049 -20632466.31949  18564080.6584   18564089.8564
  15256716.721   -45768340.14449 -35646190.49249  15256718.5594   15256724.1804
 95  1  9 20 12 29.9800000  0  7 25 18 19 22 14 15 29
  18096843.749   -24519779.15949 -19090749.84349  18096846.7524   18096853.7624
  17162061.426   -17112802.86349 -13313068.28549  17162062.9994   17162070.1664
  17950823.861   -10303496.42149  -7995241.73549  17950822.7224   17950830.6914
  15160760.957   -44688941.45049 -34789814.88149  15160761.3914   15160768.0194
  14182498.211   -51292192.26249 -39936039.79949  14182501.2564   14182507.8624
  18568106.162   -26485353.82349 -20615975.29949  18568108.7784   18568118.1924
  15234783.391   -45883598.64449 -35736002.30349  15234785.5724   15234791.2034
 95  1  9 20 12 59.9790000  0  7 25 18 19 22 14 15 29
  18099764.655   -24504436.63549 -19078794.66549  18099766.0994   18099774.2904
  17133137.559   -17264794.71949 -13431503.46949  17133139.5914   17133146.5574
  17920312.740   -10463817.73049  -8120167.38949  17920315.2284   17920324.9604
  15147088.104   -44760796.08749 -34845805.49849  15147087.7544   15147094.5724
  14170005.536   -51357844.22549 -39987197.18049  14170008.2394   14170014.8164
  18572112.978   -26464309.15049 -20599576.96449  18572113.2394   18572122.9074
  15212873.133   -45998741.19349 -35825723.76349  15212874.6124   15212880.2614
 95  1  9 20 13 29.9790000  0  8 25 18  4 19 22 14 15 29
  18102677.403   -24489136.15049 -19066872.29149  18102677.0474   18102685.5264
  17104214.522   -17416778.29249 -13549932.19749  17104218.0964   17104224.9974
  18758802.082   -11225703.07859  -8724259.02959  18758803.2724   18758811.1994
  17889833.364   -10623990.11649  -8244976.94149  17889834.3284   17889844.2634
  15133522.506   -44832074.78249 -34901347.32949  15133523.5034   15133530.6534
  14157616.550   -51422953.99949 -40037932.07549  14157618.3614   14157624.9884
  18576094.828   -26443389.24149 -20583275.83049  18576094.6574   18576102.1814
  15190978.430   -46113794.13449 -35915375.39849  15190981.0014   15190986.5574
 95  1  9 20 13 59.9790000  0  8 25 18  4 19 22 14 15 29
  18105582.614   -24473854.48949 -19054964.51449  18105585.5964   18105592.2064
  17075293.916   -17568744.27549 -13668347.22549  17075300.0354   17075306.8764
  18740352.749   -11322611.14549  -8799771.81949  18740362.6854   18740369.3284
  17859382.622   -10783997.67149  -8369658.07749  17859387.0044   17859395.1944
  15120065.454   -44902783.99649 -34956445.42049  15120068.0644   15120075.2624
  14145327.925   -51487523.30949 -40088245.82949  14145331.1394   14145337.9914
  18580054.065   -26422598.10749 -20567074.95549  18580048.7414   18580056.4584
  15169101.536   -46228762.62049 -36004961.22349  15169102.9174   15169108.4624
 95  1  9 20 14 29.9790000  0  8 25 18  4 19 22 14 15 29
  18108488.732   -24458584.91849 -19043066.17749  18108490.7824   18108499.3594
  17046382.002   -17720705.15349 -13786758.26549  17046383.0154   17046390.0614
  18722022.582   -11419072.46149  -8874936.47149  18722005.4694   18722013.3184
  17828963.742   -10943839.19549  -8494209.91849  17828969.9624   17828978.8014
  15106720.841   -44972925.79549 -35011101.36349  15106720.9934   15106727.6714
  14133142.469   -51551561.52149 -40138145.73849  14133144.9874   14133151.8854
  18583976.370   -26401947.40749 -20550983.55249  18583980.1414   18583992.0204
  15147241.354   -46343637.85849 -36094474.38149  15147243.0944   15147248.6874
 95  1  9 20 14 59.9790000  0  8 25 18  4 19 22 14 15 29
  18111400.653   -24443296.23849 -19031152.99349  18111401.0554   18111408.0834
  17017463.436   -17872640.31049 -13905149.26449  17017470.5194   17017477.2714
  18703743.133   -11515064.70149  -8949735.61149  18703739.5414   18703747.1824
  17798587.020   -11103488.24449  -8618611.71549  17798590.4204   17798597.9884
  15093484.567   -45042469.10149 -35065290.95749  15093487.0754   15093493.5194
  14121062.547   -51615047.97949 -40187615.70549  14121064.1274   14121070.7084
  18587885.191   -26381411.21349 -20534981.49249  18587888.6174   18587898.1434
  15125406.667   -46458378.18649 -36183882.42349  15125408.6974   15125414.3494
 95  1  9 20 15 29.9790000  0  8 25 18  4 19 22 14 15 29
  18114308.179   -24427997.96249 -19019232.32449  18114312.0094   18114319.4454
  16988559.938   -18024557.56249 -14023526.32149  16988561.7114   16988568.4114
  18685563.466   -11610596.66249  -9024176.11849  18685559.1904   18685567.8814
  17768243.307   -11262950.57949  -8742868.00849  17768246.0274   17768252.8054
  15080367.312   -45111412.74649 -35119013.28049  15080367.4974   15080373.9064
  14109087.343   -51677969.96249 -40236645.81849  14109090.4624   14109097.1964
  18591777.851   -26360991.40149 -20519070.09149  18591773.3194   18591784.1634
  15103597.983   -46572981.45249 -36273183.65949  15103600.3904   15103606.2424
 95  1  9 20 15 59.9790000  0  8 25 18  4 19 22 14 15 29
  18117214.281   -24412732.87749 -19007337.49249  18117216.7524   18117223.5154
  16959649.188   -18176492.45349 -14141917.11849  16959649.1424   16959655.8684
  18667459.452   -11705699.06249  -9098281.89649  18667463.8334   18667471.0764
  17737926.317   -11422261.16949  -8867006.15149  17737929.3194   17737937.8724
  15067354.201   -45179789.80449 -35172294.11149  15067355.9414   15067362.7954
  14097217.893   -51740349.56449 -40285253.30049  14097219.9444   14097226.7114
  18595627.526   -26340724.83049 -20503278.10249  18595631.3514   18595639.3134
  15081810.800   -46687475.22649 -36362399.57849  15081812.9794   15081818.6744
 95  1  9 20 16 29.9790000  0  8 25 18  4 19 22 14 15 29
  18120113.548   -24397509.08249 -18995474.81649  18120113.4274   18120121.7014
  16930737.045   -18328421.25949 -14260303.17549  16930738.1544   16930744.8294
  18649463.066   -11800338.91449  -9172027.21849  18649453.7094   18649460.5704
  17707643.868   -11581404.55749  -8991013.95449  17707645.7894   17707654.3314
  15054453.809   -45247579.98349 -35225117.63549  15054455.8764   15054462.8124
  14085454.983   -51802161.50149 -40333418.44249  14085457.4194   14085464.3094
  18599461.187   -26320595.31249 -20487592.79149  18599461.4634   18599470.2264
  15060049.597   -46801831.29049 -36451508.19349  15060051.6054   15060057.2874
 95  1  9 20 16 59.9790000  0  8 25 18  4 19 22 14 15 29
  18122997.240   -24382346.62649 -18983660.00849  18122999.0064   18123007.8494
  16901822.631   -18480355.09549 -14378693.15149  16901826.1514   16901833.2324
  18631513.675   -11894517.46449  -9245413.08549  18631530.9254   18631540.7054
  17677389.745   -11740398.30649  -9114905.07849  17677390.1494   17677397.3764
  15041664.540   -45314796.18149 -35277493.89749  15041665.2044   15041672.2394
  14073798.176   -51863422.12549 -40381153.99149  14073800.0634   14073806.8864
  18603258.102   -26300620.59449 -20472028.12449  18603262.1074   18603271.5664
  15038307.392   -46916083.55849 -36540535.92549  15038309.9094   15038315.8084
 95  1  9 20 17 29.9790000  0  7 25 18  4 19 22 14 29
  18125877.075   -24367220.81249 -18971873.74149  18125877.1124   18125883.8534
  16872915.930   -18632255.53949 -14497057.10549  16872920.5644   16872927.1844
  18613686.088   -11988205.16149  -9318416.52049  18613703.7804   18613711.8084
  17647170.579   -11899213.86049  -9238657.44649  17647168.0524   17647176.5454
  15028986.789   -45381404.43349 -35329396.43249  15028990.0364   15028997.0744
  14062249.152   -51924108.11749 -40428441.77349  14062252.1204   14062258.5574
  15016588.364   -47030226.40049 -36629478.39049  15016589.5414   15016595.2354
 95  1  9 20 17 59.9790000  0  7 25 18  4 19 22 14 29
  18128743.919   -24352126.53049 -18960111.97849  18128749.8754   18128756.9784
  16844016.969   -18784124.28449 -14615396.36149  16844020.8634   16844027.5884
  18595948.951   -12081399.52049  -9391035.49249  18595969.3434   18595977.4734
  17616982.927   -12057848.91449  -9362269.11549  17616981.2024   17616989.6874
  15016426.879   -45447415.96849 -35380833.99049  15016428.1784   15016434.8794
  14050804.775   -51984245.79949 -40475302.30349  14050807.8814   14050814.7054
  14994884.890   -47144264.96049 -36718339.60049  14994888.7814   14994894.4814
 95  1  9 20 18 29.9790000  0  7 25 18  4 19 22 14 29
  18131611.113   -24337086.76449 -18948392.74949  18131612.0474   18131619.7684
  16815117.082   -18936007.30249 -14733746.73549  16815118.3454   16815124.8424
  18578315.989   -12174134.16249  -9463296.24149  18578322.6614   18578330.0994
  17586816.690   -12216341.34349  -9485769.69349  17586820.9874   17586828.5274
  15003974.356   -45512852.68649 -35431823.63849  15003976.3694   15003982.9694
  14039458.811   -52043874.09749 -40521765.91349  14039461.1084   14039468.0184
  14973200.431   -47258225.13749 -36807139.73349  14973202.5754   14973208.3214
 95  1  9 20 18 59.9790000  0  7 25 18  4 19 22 14 29
  18134467.226   -24322067.69959 -18936689.52759  18134470.2424   18134477.8424
  16786212.639   -19087893.45449 -14852099.55349  16786215.3504   16786222.4704
  18560752.959   -12266398.99649  -9535190.93049  18560765.2144   18560772.2824
  17556689.620   -12374671.41449  -9609143.68249  17556691.5384   17556699.7274
  14991634.532   -45577697.72349 -35482352.23749  14991636.2844   14991643.6754
  14028211.745   -52102981.05449 -40567823.28649  14028213.4494   14028220.2854
  14951531.717   -47372094.78549 -36895869.32649  14951534.2354   14951539.8984
 95  1  9 20 19 29.9790000  0  7 25 18  4 19 22 14 29
  18137317.758   -24307085.44549 -18925015.10849  18137321.1264   18137330.1624
  16757309.295   -19239792.86349 -14970462.70349  16757309.9114   16757316.9094
  18543298.037   -12358209.05449  -9606731.23349  18543293.6064   18543301.9274
  17526591.432   -12532842.26949  -9732393.69949  17526593.1064   17526600.2334
  14979402.355   -45641979.24049 -35532441.73049  14979404.0624   14979411.2284
  14017062.731   -52161573.18949 -40613479.49849  14017063.9434   14017070.4944
  14929882.845   -47485862.48649 -36984519.47649  14929884.9314   14929890.3864
 95  1  9 20 19 59.9790000  0  7 25 18  4 19 22 14 29
  18140168.010   -24292130.36649 -18913361.89649  18140167.5494   18140174.6494
  16728403.018   -19391693.71149 -15088826.96949  16728404.0024   16728411.1574
  18525908.783   -12449554.36549  -9677909.40449  18525910.2844   18525919.9074
  17496525.790   -12690853.30049  -9855519.12549  17496523.9784   17496533.2394
  14967279.086   -45705694.18549 -35582089.73749  14967279.2364   14967286.3114
  14006012.026   -52219637.11749 -40658724.12649  14006014.4454   14006021.0474
  14908258.628   -47599496.62449 -37073065.55749  14908260.9384   14908266.6304
 95  1  9 20 20 29.9790000  0  7 25 18  4 19 22 14 29
  18143004.005   -24277221.16349 -18901744.38049  18143004.0494   18143011.3994
  16699502.382   -19543588.44749 -15207186.48149  16699499.1974   16699506.0424
  18508607.432   -12540456.61249  -9748742.33149  18508614.1264   18508621.9834
  17466487.724   -12848713.40549  -9978526.93949  17466485.0954   17466492.1314
  14955259.231   -45768853.61049 -35631304.87649  14955261.2104   14955268.0754
  13995063.632   -52277167.69249 -40703553.15049  13995066.7754   13995073.4594
  14886658.463   -47713001.65349 -37161511.03149  14886661.7844   14886667.3124
 95  1  9 20 20 59.9790000  0  7 25 18  4 19 22 14 29
  18145827.079   -24262375.42749 -18890176.31149  18145829.1244   18145837.1514
  16670597.930   -19695459.30349 -15325527.38649  16670598.9814   16670605.9874
  18491384.150   -12630928.54449  -9819239.95149  18491397.0764   18491404.9144
  17436463.043   -13006411.82049 -10101408.83349  17436474.9964   17436481.6294
  14943341.946   -45831478.87749 -35680103.78249  14943343.3984   14943350.2774
  13984219.266   -52334158.19749 -40747961.34749  13984221.7584   13984228.7334
  14865083.836   -47826385.63749 -37249862.18949  14865085.3514   14865091.0454
 95  1  9 20 21 29.9790000  0  7 25 18  4 19 22 14 29
  18148639.354   -24247589.00049 -18878654.45949  18148642.1784   18148650.1664
  16641701.941   -19847283.68349 -15443832.06449  16641707.6374   16641715.1634
  18474252.350   -12720959.15049  -9889393.66749  18474266.5044   18474273.2004
  17406492.536   -13163945.15049 -10224162.00349  17406497.3644   17406506.6774
  14931531.614   -45893549.53649 -35728470.52849  14931531.4634   14931538.7364
  13973482.651   -52390588.36349 -40791932.92149  13973483.6494   13973490.5504
  14843532.172   -47939634.27049 -37338107.87749  14843534.8824   14843540.6414
 95  1  9 20 21 59.9790000  0  7 25 18  4 19 22 14 29
  18151445.882   -24232849.17149 -18867168.92749  18151448.1324   18151456.0484
  16612827.424   -19999049.38949 -15562091.02549  16612827.5914   16612834.7914
  18457205.650   -12810543.54149  -9959199.69449  18457217.4234   18457225.2104
  17376553.162   -13321298.60349 -10346775.06049  17376554.0614   17376562.6934
  14919831.161   -45955027.32949 -35776375.29749  14919833.6244   14919839.7724
  13962851.630   -52446441.06749 -40835454.51949  13962855.1704   13962862.0084
  14822008.767   -48052746.98449 -37426247.65249  14822010.2544   14822016.0394
 95  1  9 20 22 29.9790000  0  7 25 18  4 19 22 14 29
  18154238.887   -24218165.06549 -18855726.83449  18154242.1614   18154250.0774
  16583957.654   -20150762.76549 -15680309.21649  16583957.5664   16583964.5524
  18440243.313   -12899676.43549 -10028653.91249  18440256.6074   18440264.8954
  17346647.538   -13478458.67849 -10469237.46249  17346647.7804   17346656.8564
  14908242.443   -46015922.45149 -35823826.03849  14908244.7154   14908252.5814
  13952334.086   -52501724.03849 -40878532.17049  13952335.3684   13952342.0584
  14800507.160   -48165730.40349 -37514286.67649  14800510.0814   14800515.9754
 95  1  9 20 22 59.9790000  0  7 25 18  4 19 22 14 29
  18157030.492   -24203518.151 9
  16555102.656   -20302421.93449 -15798485.16949  16555097.8524   16555104.4714
  18423400.222   -12988330.69449 -10097735.16049  18423386.1304   18423392.3614
  17316780.353   -13635415.70849 -10591541.55249  17316780.2794   17316787.8324
  14896769.436   -46076221.61749 -35870812.39849  14896770.8274   14896777.2674
  13941922.732   -52556430.71549 -40921160.75949  13941924.8844   13941931.6444
  14779034.953   -48278573.14049 -37602216.07649  14779036.7804   14779042.5634
 95  1  9 20 23 29.9780000  0  7 25 18  4 19 22 14 29
  18159809.500   -24188898.90559 -18832922.02159  18159811.9004   18159819.7534
  16526246.983   -20454030.89649 -15916621.99249  16526247.8264   16526254.2774
  18406600.300   -13076495.00649 -10166434.63949  18406608.8954   18406617.0354
  17286950.265   -13792165.80749 -10713684.47049  17286951.6584   17286959.7624
  14885412.616   -46135904.93849 -35917318.87249  14885413.5804   14885419.8724
  13931619.467   -52610577.18749 -40963352.82949  13931621.1734   13931628.0634
  14757588.524   -48391268.65049 -37690030.75349  14757591.5834   14757597.3274
 95  1  9 20 23 59.9780000  0  7 25 18  4 19 22 14 29
  18162588.523   -24174304.92349 -18821550.13149  18162588.5024   18162597.1584
  16497400.684   -20605603.78049 -16034730.70949  16497404.3814   16497410.9574
  18389910.812   -13164173.25849 -10234755.35249  18389925.5364   18389932.2384
  17257161.713   -13948715.30949 -10835671.05449  17257160.3444   17257169.6674
  14874169.411   -46194983.12749 -35963353.81349  14874170.4584   14874177.9374
  13921420.605   -52664176.26549 -41005118.35849  13921421.5334   13921428.4994
  14736168.295   -48503825.24549 -37777737.19049  14736172.7924   14736178.5674
 95  1  9 20 24 29.9780000  0  7 25 18  4 19 22 14 29
  18165361.300   -24159729.84549 -18810193.01249  18165362.4574   18165370.1194
  16468566.172   -20757136.21749 -16152807.90849  16468568.7394   16468575.3104
  18373329.179   -13251361.40849 -10302694.17849  18373333.9954   18373340.7614
  17227410.253   -14105061.86649 -10957499.52949  17227408.2544   17227417.6334
  14863039.816   -46253470.30449 -36008928.23049  14863041.3254   14863048.5704
  13911323.389   -52717230.89549 -41046459.64249  13911325.6144   13911332.4524
  14714779.606   -48616234.97549 -37865329.18249  14714781.9674   14714787.6464
 95  1  9 20 24 59.9780000  0  7 25 18  4 19 22 14 29
  18168127.045   -24145174.88549 -18798851.52449  18168131.4114   18168140.5584
  16439732.997   -20908645.83849 -16270867.32949  16439737.0054   16439743.9094
  18356823.012   -13338079.12049 -10370266.45449  18356829.9544   18356838.5314
  17197691.222   -14261225.89649 -11079185.69549  17197692.3794   17197700.1984
  14852024.292   -46311360.75149 -36054037.65349  14852025.4614   14852031.2614
  13901331.061   -52769737.21449 -41087373.67449  13901333.7434   13901340.7134
  14693415.329   -48728507.61749 -37952814.36149  14693417.3064   14693423.0814
 95  1  9 20 25 29.9780000  0  7 25 18  4 19 22 14 29
  18170893.376   -24130645.44649 -18787529.95249  18170896.8484   18170905.2204
  16410907.379   -21060125.47749 -16388903.39149  16410911.9084   16410918.3344
  18340427.518   -13424328.52949 -10437473.79749  18340418.6584   18340427.4574
  17168011.986   -14417212.95549 -11200734.05849  17168007.7904   17168015.4724
  14841120.879   -46368645.57149 -36098675.15949  14841123.5494   14841130.9844
  13891447.372   -52821683.79549 -41127851.54649  13891448.7664   13891455.7424
  14672075.018   -48840643.38349 -38040192.87849  14672078.4974   14672084.3384
 95  1  9 20 25 59.9780000  0  7 25 18  4 19 22 14 29
  18173650.600   -24116169.19549 -18776249.81049  18173651.5074   18173659.5044
  16382087.262   -21211596.96549 -16506933.10649  16382087.7994   16382094.0174
  18324120.962   -13510128.65349 -10504331.05049  18324092.1134   18324099.6694
  17138351.413   -14573054.21049 -11322168.73449  17138353.1064   17138362.6894
  14830332.458   -46425361.89449 -36142869.68549  14830331.7584   14830338.4554
  13881665.610   -52873082.27849 -41167902.32949  13881668.0604   13881675.0294
  14650756.558   -48952667.41049 -38127484.32949  14650760.9674   14650766.7354
 95  1  9 20 26 29.9780000  0  7 25 18  4 19 22 14 29
  18176396.487   -24101725.88949 -18764995.33749  18176399.7294   18176407.5214
  16353268.662   -21363046.79049 -16624945.93749  16353267.7284   16353273.8414
  18307858.735   -13595453.33349 -10570817.83049  18307854.9644   18307862.7164
  17108727.842   -14728725.70949 -11443471.13149  17108729.0644   17108737.2644
  14819650.277   -46481493.57849 -36186608.64849  14819649.7344   14819656.5084
  13871995.193   -52923904.34549 -41207503.95849  13871997.0664   13872003.9734
  14629467.257   -49064547.68649 -38214663.76749  14629470.7744   14629476.5384
 95  1  9 20 26 59.9780000  0  6 18  4 19 22 14 29
  16324452.547   -21514454.88549 -16742926.25049  16324455.5434   16324461.9654
  18291708.391   -13680277.50349 -10636914.61749  18291713.3074   18291720.4954
  17079130.006   -14884219.97249 -11564635.52149  17079139.2234   17079147.6234
  14809081.388   -46537024.40049 -36229879.40149  14809082.3674   14809089.3374
  13862433.520   -52974150.21149 -41246656.59749  13862435.4244   13862442.3264
  14608209.571   -49176261.30949 -38301713.34949  14608212.5014   14608218.1764
